Date StartTime U_cm/s V_cm/s W_cm/s Ustd_cm/s Vstd_cm/s Wstd_cm/s Uvar_(cm/s)^2 Vvar_(cm/s)^2 Wvar_(cm/s)^2 KE_(m/s)^2 TurbulentKE_(m/s)^2 HorizWindSpeed_cm/s FrictionSpeec_cm/s DragCoef SpeedOfSound_m/s SonicTemperature_C Pressure_mb 
01/11/2015  00:00:00     -134.688      -64.607        3.365       37.313       28.911       23.018     1392.287      835.865      529.809        1.254        0.138      149.381       22.542        0.023      336.534        7.902      861.041
01/11/2015  00:01:00     -134.644      -59.645       -2.895       36.670       28.903       21.056     1344.715      835.394      443.343        1.216        0.131      147.263       16.696        0.013      336.495        7.835      861.052
01/11/2015  00:02:00     -107.891      -18.206       -2.547       36.711       23.881       16.983     1347.715      570.326      288.429        0.709        0.110      109.416       15.934        0.021      336.487        7.821      861.040
01/11/2015  00:03:00     -117.220       -5.575       -9.133       22.904       17.862       13.156      524.607      319.060      173.076        0.744        0.051      117.352        7.530        0.004      336.512        7.864      861.023
01/11/2015  00:04:00      -73.331      -33.867       -1.116       25.812       29.107       17.387      666.243      847.208      302.305        0.417        0.091       80.774       15.473        0.037      336.486        7.821      861.019
01/11/2015  00:05:00      -65.775      -49.900        4.064       33.922       26.041       21.033     1150.692      678.138      442.407        0.455        0.114       82.561       19.262        0.054      336.498        7.841      861.033
01/11/2015  00:06:00      -40.180      -55.675        4.067       39.649       38.431       24.725     1572.036     1476.924      611.324        0.419        0.183       68.660       20.790        0.092      336.568        7.958      861.045
01/11/2015  00:07:00      -66.774     -115.429      -12.613       34.774       31.476       18.019     1209.236      990.740      324.671        1.023        0.126      133.352       22.013        0.027      336.725        8.220      861.036
01/11/2015  00:08:00      -36.691      -52.230        6.971       34.947       32.706       22.382     1221.328     1069.689      500.965        0.346        0.140       63.830       14.795        0.054      336.704        8.187      861.022
01/11/2015  00:09:00      -91.758      -59.080       -5.478       53.952       36.263       25.416     2910.855     1315.018      645.983        0.840        0.244      109.133       14.914        0.019      336.717        8.206      861.044
01/11/2015  00:10:00     -173.871     -136.526        0.804       87.289       58.192       40.321     7619.382     3386.311     1625.792        3.075        0.632      221.067       40.132        0.033      336.358        7.603      861.110
01/11/2015  00:11:00     -180.173     -146.012      -10.306       92.480       70.253       45.934     8552.491     4935.448     2109.946        3.474        0.780      231.909       48.529        0.044      336.279        7.471      861.169
01/11/2015  00:12:00     -163.956     -125.729        4.177       98.445       86.238       44.988     9691.512     7436.941     2023.903        3.093        0.958      206.614       45.285        0.048      336.160        7.272      861.185
01/11/2015  00:13:00     -154.166     -102.690       -9.582       64.374       76.126       35.647     4143.991     5795.190     1270.720        2.280        0.560      185.236       37.912        0.042      336.100        7.172      861.191
01/11/2015  00:14:00     -137.606      -64.426      -14.631       62.884       51.189       26.048     3954.440     2620.292      678.511        1.528        0.363      151.941       28.197        0.034      336.130        7.223      861.185
01/11/2015  00:15:00     -166.397      -93.831       -7.492       49.575       42.782       31.928     2457.704     1830.300     1019.417        2.093        0.265      191.030       31.823        0.028      336.207        7.353      861.177
01/11/2015  00:16:00      -72.620      -77.263       -2.068       34.501       29.275       25.708     1190.311      857.042      660.919        0.698        0.135      106.034       20.363        0.037      336.277        7.472      861.170
01/11/2015  00:17:00      -65.217      -47.576       -6.608       38.378       31.258       16.470     1472.837      977.076      271.260        0.464        0.136       80.726       10.196        0.016      336.646        8.086      861.148
01/11/2015  00:18:00      -48.065        2.626       -1.098       33.289       12.484       17.922     1108.131      155.852      321.211        0.195        0.079       48.137       16.788        0.122      336.571        7.963      861.121
01/11/2015  00:19:00      -89.337      -47.087       -4.767       72.855       38.520       19.144     5307.904     1483.758      366.481        0.869        0.358      100.987       19.853        0.039      336.242        7.411      861.139
01/11/2015  00:20:00     -193.718      -63.857      -13.737       32.404       38.823       23.960     1050.003     1507.208      574.079        2.246        0.157      203.971       19.822        0.009      335.990        6.990      861.151
01/11/2015  00:21:00     -162.625       -4.140      -13.907       42.795       37.740       26.139     1831.437     1424.293      683.224        1.530        0.197      162.678       26.262        0.026      336.249        7.424      861.138
01/11/2015  00:22:00     -137.902       48.211      -11.867       46.134       23.165       18.676     2128.360      536.604      348.783        1.225        0.151      146.086       19.648        0.018      336.728        8.225      861.123
01/11/2015  00:23:00     -143.538       64.804      -13.955       38.507       23.736       16.988     1482.807      563.407      288.608        1.367        0.117      157.488       10.754        0.005      337.081        8.813      861.106
01/11/2015  00:24:00     -161.527       63.421      -10.668       46.981       22.841       21.423     2207.226      521.700      458.965        1.671        0.159      173.532       19.701        0.013      337.101        8.847      861.099
01/11/2015  00:25:00     -116.672       49.714      -17.410       29.881       30.003       20.776      892.893      900.199      431.637        0.931        0.111      126.822       18.923        0.022      336.988        8.658      861.087
01/11/2015  00:26:00     -112.543       64.531      -21.810       25.753       44.594       18.904      663.229     1988.637      357.347        1.016        0.150      129.732       15.698        0.015      337.056        8.773      861.070
01/11/2015  00:27:00     -144.780       60.772      -20.100       32.430       29.401       16.330     1051.737      864.418      266.684        1.362        0.109      157.018       13.533        0.007      337.027        8.724      861.060
01/11/2015  00:28:00     -147.478       73.624      -17.398       33.279       31.257       24.055     1107.466      977.010      578.629        1.507        0.133      164.834       19.144        0.013      337.195        9.005      861.042
01/11/2015  00:29:00     -134.020       63.043      -18.060       37.730       27.993       21.454     1423.590      783.581      460.267        1.246        0.133      148.108       17.565        0.014      337.225        9.056      861.028
01/11/2015  00:30:00     -124.521       50.990      -12.879       30.609       25.503       19.213      936.934      650.395      369.137        1.011        0.098      134.556       11.198        0.007      337.252        9.102      861.027
01/11/2015  00:31:00     -119.090       47.729      -21.761       44.535       25.824       21.160     1983.346      666.897      447.758        1.002        0.155      128.298       17.370        0.018      337.195        9.005      861.011
01/11/2015  00:32:00     -104.415       56.594      -20.316       40.322       21.196       20.556     1625.887      449.290      422.555        0.851        0.125      118.766       12.418        0.011      337.236        9.073      861.007
01/11/2015  00:33:00      -92.081      103.947      -27.079       43.190       29.706       23.551     1865.403      882.462      554.663        1.166        0.165      138.867       22.040        0.025      337.355        9.273      860.993
01/11/2015  00:34:00      -77.280      122.159      -28.724       40.747       18.343       20.541     1660.287      336.467      421.921        1.207        0.121      144.551       22.449        0.024      337.403        9.353      860.971
01/11/2015  00:35:00      -84.101      111.820      -35.651       53.450       16.649       24.910     2856.866      277.203      620.520        1.230        0.188      139.916       30.574        0.048      337.228        9.060      860.966
01/11/2015  00:36:00     -106.794       93.270      -30.736       43.243       30.334       24.249     1869.915      920.150      588.017        1.221        0.169      141.790       23.104        0.027      337.196        9.008      860.950
01/11/2015  00:37:00     -104.999       68.822      -23.078       39.891       24.238       23.863     1591.265      587.501      569.426        0.952        0.137      125.544       22.149        0.031      337.115        8.870      860.944
01/11/2015  00:38:00      -97.897        1.243      -17.002       30.005       25.313       15.076      900.306      640.761      227.273        0.582        0.088       97.905       16.002        0.027      336.509        7.859      860.949
01/11/2015  00:39:00      -77.325        0.973      -10.183       24.268       20.055       15.527      588.923      402.213      241.084        0.366        0.062       77.331        6.725        0.008      336.555        7.935      860.942
01/11/2015  00:40:00      -72.873       10.913      -12.924       23.841       20.232       14.213      568.370      409.336      202.002        0.339        0.059       73.685       14.474        0.039      336.879        8.477      860.935
01/11/2015  00:41:00      -39.963       -5.948       -5.834       17.713       17.552       13.964      313.745      308.062      194.980        0.124        0.041       40.404        3.832        0.009      336.779        8.311      860.937
01/11/2015  00:42:00      -15.998      -35.079      -15.768       25.575       29.715        8.836      654.094      882.986       78.066        0.167        0.081       38.554       10.446        0.073      336.639        8.077      860.937
01/11/2015  00:43:00       20.506      -78.170      -15.312       22.346       22.452       16.819      499.349      504.109      282.878        0.403        0.064       80.815       10.700        0.018      336.678        8.142      860.946
01/11/2015  00:44:00       15.404      -88.978        2.226       47.285       36.003       37.090     2235.908     1296.182     1375.698        0.653        0.245       90.301       30.299        0.113      336.671        8.131      860.958
01/11/2015  00:45:00       56.034      -34.222        5.159       49.791       57.551       36.448     2479.170     3312.091     1328.466        0.573        0.356       65.658       33.527        0.261      336.731        8.232      860.954
01/11/2015  00:46:00        3.396       36.729       61.944       27.180       33.620       27.872      738.750     1130.313      776.851        0.392        0.132       36.885       25.359        0.473      336.663        8.117      860.942
01/11/2015  00:47:00       23.808      -82.104        2.717       38.480       51.236       31.461     1480.677     2625.125      989.810        0.620        0.255       85.486       35.748        0.175      336.774        8.303      860.930
01/11/2015  00:48:00      -85.274      -33.879        2.610       32.986       44.195       23.252     1088.051     1953.160      540.670        0.600        0.179       91.757       15.488        0.028      336.690        8.160      860.937
01/11/2015  00:49:00     -103.436      -89.464        7.167       70.442       38.087       32.557     4962.036     1450.607     1059.937        1.311        0.374      136.758       33.883        0.061      336.605        8.021      860.965
01/11/2015  00:50:00     -132.275     -115.475       -8.359       63.015       51.071       28.756     3970.842     2608.280      826.923        1.915        0.370      175.588       26.937        0.024      336.444        7.747      860.978
01/11/2015  00:51:00     -113.509     -141.017       -4.258       70.496       68.695       37.862     4969.661     4719.071     1433.537        2.195        0.556      181.025       38.496        0.045      336.423        7.712      860.997
01/11/2015  00:52:00     -189.214     -149.495       -0.271       87.237       81.542       43.244     7610.225     6649.065     1870.059        3.714        0.806      241.145       44.339        0.034      336.352        7.592      861.004
01/11/2015  00:53:00     -162.839     -114.491      -18.089       62.313       64.773       42.370     3882.901     4195.510     1795.208        2.491        0.494      199.060       25.796        0.017      336.307        7.518      861.002
01/11/2015  00:54:00     -118.551      -75.918       -6.095       53.698       55.446       28.516     2883.428     3074.230      813.152        1.331        0.339      140.776       23.321        0.027      336.340        7.574      861.005
01/11/2015  00:55:00     -137.376     -100.970        3.331       70.916       68.390       39.963     5029.148     4677.142     1597.019        2.019        0.565      170.491       41.671        0.060      336.402        7.676      860.989
01/11/2015  00:56:00      -79.126      -70.204        8.534       63.732       68.464       33.766     4061.752     4687.375     1140.128        1.057        0.494      105.780       37.933        0.129      336.497        7.836      860.977
01/11/2015  00:57:00     -116.507      -80.811        4.467       46.223       35.904       25.069     2136.549     1289.114      628.446        1.209        0.203      141.789       20.702        0.021      336.519        7.876      860.976
01/11/2015  00:58:00     -102.152     -102.310        8.884       67.918       39.353       31.766     4612.914     1548.662     1009.068        1.407        0.359      144.577       31.324        0.047      336.448        7.755      860.988
01/11/2015  00:59:00      -53.803      -53.071        6.140       36.215       36.493       22.284     1311.515     1331.711      496.578        0.444        0.157       75.573       18.473        0.060      336.487        7.822      860.984
01/11/2015  01:00:00       31.813      -34.971        5.573       26.294       29.993       24.494      691.390      899.598      599.959        0.223        0.110       47.276       19.545        0.171      336.470        7.794      860.970
01/11/2015  01:01:00        9.058      -15.431       17.063       20.262       24.251       15.256      410.558      588.094      232.751        0.092        0.062       17.893       12.223        0.467      336.446        7.753      860.959
01/11/2015  01:02:00       20.861       16.670       16.643       20.920       15.833       12.767      437.634      250.680      163.006        0.092        0.043       26.703        7.896        0.087      336.330        7.559      860.950
01/11/2015  01:03:00       -6.397       20.588       23.130       12.569       15.335       18.921      157.978      235.163      357.992        0.088        0.038       21.559       13.371        0.385      336.317        7.538      860.946
01/11/2015  01:04:00       15.391       42.890       34.891       29.765       23.143       22.598      885.944      535.618      510.675        0.261        0.097       45.568       19.862        0.190      336.311        7.528      860.950
01/11/2015  01:05:00       51.824       46.721       39.269       39.663       29.419       26.785     1573.124      865.494      717.432        0.478        0.158       69.775       18.452        0.070      336.305        7.518      860.935
01/11/2015  01:06:00       71.429       54.649       34.697       48.386       39.055       39.048     2341.204     1525.327     1524.740        0.734        0.270       89.937       28.958        0.104      336.242        7.410      860.935
01/11/2015  01:07:00       31.016       30.234       38.751       37.291       34.116       25.427     1390.655     1163.925      646.539        0.329        0.160       43.314       19.433        0.201      336.217        7.369      860.935
01/11/2015  01:08:00       11.860        0.334       43.236       27.559       53.430       30.861      759.525     2854.810      952.386        0.329        0.228       11.864       27.930        5.542      336.319        7.541      860.930
01/11/2015  01:09:00       17.915      -29.442       26.732       27.935       53.124       42.930      780.347     2822.116     1843.025        0.367        0.272       34.464       44.134        1.640      336.434        7.732      860.931
01/11/2015  01:10:00       20.501      -49.001        4.610       28.831       33.175       30.435      831.210     1100.584      926.318        0.285        0.143       53.117       26.734        0.253      336.429        7.724      860.922
01/11/2015  01:11:00        7.169      -35.598        4.709       16.952       24.866       15.201      287.356      618.301      231.071        0.124        0.057       36.312       13.939        0.147      336.472        7.796      860.923
01/11/2015  01:12:00      -26.891       -2.500       13.010       13.725       17.642       15.065      188.366      311.254      226.949        0.081        0.036       27.007        7.736        0.082      336.460        7.776      860.921
01/11/2015  01:13:00      -28.047        1.179        1.855       16.555        6.624        6.506      274.053       43.876       42.328        0.058        0.018       28.072        3.318        0.014      336.414        7.698      860.925
01/11/2015  01:14:00      -20.101        5.934        3.107       11.126       15.190        8.690      123.796      230.745       75.513        0.044        0.022       20.959        9.920        0.224      336.431        7.729      860.917
01/11/2015  01:15:00      -35.228       43.860       -2.654       16.499       13.127        9.113      272.221      172.312       83.050        0.185        0.026       56.256        9.737        0.030      336.406        7.687      860.905
01/11/2015  01:16:00        1.372       20.398       10.247       10.861       17.775       10.040      117.969      315.942      100.792        0.053        0.027       20.445        6.422        0.099      336.428        7.723      860.895
01/11/2015  01:17:00       75.637       27.690        2.018       34.337       18.342       13.543     1179.063      336.434      183.421        0.409        0.085       80.546       11.814        0.022      336.395        7.667      860.902
01/11/2015  01:18:00       82.425       65.929       25.666       26.267       21.700       28.544      689.940      470.904      814.751        0.689        0.099      105.548       15.578        0.022      336.341        7.577      860.913
01/11/2015  01:19:00      120.529       57.734       16.121       30.982       21.695       25.423      959.858      470.658      646.315        1.010        0.104      133.643       18.633        0.019      336.247        7.420      860.941
01/11/2015  01:20:00       63.037       47.214        8.039       25.861       22.920       23.776      668.780      525.320      565.298        0.401        0.088       78.758       10.345        0.017      336.230        7.393      860.958
01/11/2015  01:21:00       62.940       54.617        0.506       27.065       23.076       19.542      732.508      532.494      381.907        0.430        0.082       83.333       11.784        0.020      336.147        7.249      860.949
01/11/2015  01:22:00       82.262       68.427        6.091       33.521       24.801       21.380     1123.630      615.085      457.121        0.684        0.110      107.001       13.809        0.017      336.197        7.336      860.936
01/11/2015  01:23:00       81.198       71.931        7.302       37.471       31.514       20.252     1404.104      993.116      410.129        0.731        0.140      108.477       16.202        0.022      336.230        7.391      860.929
01/11/2015  01:24:00       73.845       53.103        4.448       26.140       21.985       21.044      683.289      483.318      442.835        0.495        0.080       90.956       12.551        0.019      336.215        7.368      860.925
01/11/2015  01:25:00       40.822       34.481        6.283       29.616       26.315       20.015      877.128      692.459      400.619        0.243        0.099       53.436       16.889        0.100      336.159        7.273      860.919
01/11/2015  01:26:00       59.843       34.017        1.270       24.254       25.234       21.881      588.254      636.737      478.775        0.322        0.085       68.835       13.365        0.038      336.115        7.201      860.908
01/11/2015  01:27:00       57.855       41.239       20.829       23.578       24.589       19.500      555.933      604.627      380.245        0.351        0.077       71.048       12.990        0.033      336.081        7.142      860.913
01/11/2015  01:28:00       56.106       38.232       10.196       25.805       26.772       17.819      665.909      716.715      317.502        0.321        0.085       67.894       10.262        0.023      336.072        7.129      860.913
01/11/2015  01:29:00       42.173       38.770        2.982       23.472       16.431       13.743      550.931      269.994      188.872        0.215        0.050       57.286        9.174        0.026      336.074        7.132      860.927
01/11/2015  01:30:00       15.407       45.329       -7.556       12.624       20.281       10.727      159.366      411.326      115.078        0.152        0.034       47.876        7.684        0.026      336.066        7.118      860.944
01/11/2015  01:31:00        9.576       57.926       -9.832       15.833       14.561        8.946      250.672      212.018       80.038        0.204        0.027       58.713        8.413        0.021      336.078        7.138      860.957
01/11/2015  01:32:00       -6.834       50.993       -6.386       15.103        8.831        9.637      228.106       77.983       92.875        0.154        0.020       51.449        5.719        0.012      336.155        7.266      860.966
01/11/2015  01:33:00        6.133       36.621       -1.336        6.311       12.362        6.259       39.826      152.831       39.176        0.081        0.012       37.131        4.148        0.012      336.149        7.257      860.976
01/11/2015  01:34:00       16.305       54.195       -0.801       10.593       16.272       10.477      112.204      264.787      109.759        0.185        0.024       56.595       10.096        0.032      336.105        7.181      860.974
01/11/2015  01:35:00       38.471       39.056       -2.543       16.182       14.473       13.373      261.871      209.468      178.848        0.183        0.033       54.822        9.720        0.031      336.081        7.143      860.978
01/11/2015  01:36:00       59.864       16.623       12.939       21.100       16.413       16.684      445.211      269.381      278.359        0.251        0.050       62.130       11.321        0.033      336.126        7.217      860.984
01/11/2015  01:37:00       69.162       19.644        9.768       23.831       15.904       17.593      567.925      252.933      309.526        0.320        0.057       71.898       13.631        0.036      336.112        7.195      860.982
01/11/2015  01:38:00       71.737       42.123       12.443       12.162       14.725       12.625      147.912      216.829      159.385        0.380        0.026       83.190        5.176        0.004      336.090        7.158      860.979
01/11/2015  01:39:00       55.000       37.856        7.154       18.633       13.209       14.932      347.191      174.476      222.956        0.263        0.037       66.768       11.093        0.028      336.059        7.108      860.984
01/11/2015  01:40:00       70.124       26.229        7.016       19.341       13.960       16.825      374.079      194.878      283.071        0.325        0.043       74.869       10.030        0.018      336.058        7.104      861.000
01/11/2015  01:41:00       82.557       59.338       10.134       27.001       17.786       17.287      729.052      316.342      298.841        0.589        0.067      101.669       15.392        0.023      336.051        7.093      860.998
01/11/2015  01:42:00       46.200       36.106        7.278       26.170       20.200       13.980      684.889      408.037      195.429        0.239        0.064       58.635       15.048        0.066      336.022        7.044      861.001
01/11/2015  01:43:00       49.968       26.491        0.427       25.789       25.717       18.296      665.084      661.344      334.736        0.243        0.083       56.556        8.404        0.022      336.034        7.067      861.010
01/11/2015  01:44:00       64.406       37.975        0.673       18.768       16.714       14.428      352.248      279.343      208.167        0.322        0.042       74.768        7.543        0.010      336.031        7.061      861.016
01/11/2015  01:45:00       66.281       44.602        8.853       14.411       11.366       12.169      207.690      129.191      148.093        0.347        0.024       79.891        8.779        0.012      336.022        7.042      861.017
01/11/2015  01:46:00       48.199       29.296       13.845       14.671       13.143       14.230      215.233      172.742      202.507        0.198        0.030       56.403        8.264        0.021      336.022        7.043      861.019
01/11/2015  01:47:00       44.758       26.084       -2.391       12.813       10.004        8.082      164.180      100.077       65.312        0.151        0.016       51.804        5.792        0.013      336.012        7.026      861.027
01/11/2015  01:48:00       29.139       15.102       -2.251        9.733       10.740        8.155       94.728      115.349       66.504        0.068        0.014       32.821        6.424        0.038      336.025        7.051      861.031
01/11/2015  01:49:00       28.252       24.696       -0.889       14.801       17.800       13.452      219.064      316.841      180.953        0.106        0.036       37.524        9.577        0.065      336.015        7.031      861.038
01/11/2015  01:50:00       22.967       41.996       -4.800       13.350       16.850       13.277      178.226      283.910      176.287        0.148        0.032       47.866        8.728        0.033      335.981        6.975      861.036
01/11/2015  01:51:00       54.875       38.609        7.899       19.693       11.582       15.004      387.800      134.138      225.122        0.266        0.037       67.097       11.946        0.032      335.984        6.980      861.035
01/11/2015  01:52:00       92.159       44.882        3.201       20.584       16.989       18.312      423.706      288.630      335.339        0.578        0.052      102.507       14.671        0.020      336.015        7.032      861.031
01/11/2015  01:53:00       81.476       42.818       14.010       29.472       21.682       18.957      868.602      470.096      359.354        0.518        0.085       92.042       12.672        0.019      336.013        7.028      861.038
01/11/2015  01:54:00       81.325       59.186       28.783       18.700       18.215       25.907      349.705      331.802      671.177        0.615        0.068      100.582       11.138        0.012      335.979        6.974      861.032
01/11/2015  01:55:00      100.615       55.454       19.522       23.362       17.571       21.530      545.792      308.724      463.540        0.745        0.066      114.885       11.403        0.010      335.955        6.933      861.022
01/11/2015  01:56:00      113.271       63.212       25.113       34.991       23.544       27.556     1224.377      554.320      759.356        1.000        0.127      129.716       17.478        0.018      335.919        6.873      861.018
01/11/2015  01:57:00      101.978       39.347       16.124       40.691       32.676       35.355     1655.772     1067.697     1250.011        0.809        0.199      109.306       18.764        0.029      335.922        6.878      861.013
01/11/2015  01:58:00       89.124       43.608       11.113       33.626       26.262       24.345     1130.695      689.716      592.657        0.619        0.121       99.221       12.885        0.017      335.871        6.794      861.019
01/11/2015  01:59:00       88.764       50.603       23.798       25.285       25.132       24.098      639.321      631.617      580.705        0.643        0.093      102.175       18.118        0.031      335.876        6.801      861.024
01/11/2015  02:00:00       56.590       39.152       24.588       34.978       19.299       21.668     1223.432      372.443      469.507        0.370        0.103       68.814       14.871        0.047      335.845        6.749      861.024
01/11/2015  02:01:00       33.821       22.035       22.864       25.581       25.034       24.130      654.374      626.693      582.260        0.201        0.093       40.366       17.756        0.193      335.884        6.817      861.033
01/11/2015  02:02:00       41.921        2.152       14.211       25.384        9.795       14.241      644.344       95.933      202.798        0.145        0.047       41.977       12.409        0.087      335.924        6.881      861.034
01/11/2015  02:03:00       67.258       29.433       12.960       29.868       23.547       19.549      892.119      554.483      382.159        0.369        0.091       73.416       17.819        0.059      335.918        6.872      861.040
01/11/2015  02:04:00       70.682       35.342       20.300       27.615       17.728       20.674      762.607      314.278      427.421        0.408        0.075       79.025       16.636        0.044      335.919        6.874      861.043
01/11/2015  02:05:00       74.266       37.732       10.798       25.075       20.885       18.069      628.739      436.196      326.494        0.422        0.070       83.302        8.366        0.010      335.913        6.862      861.059
01/11/2015  02:06:00       60.410       21.291        8.509       21.977       14.671       18.131      482.979      215.242      328.749        0.260        0.051       64.052       11.997        0.035      335.895        6.834      861.072
01/11/2015  02:07:00       58.649       32.838       10.602       25.852       17.680       13.565      668.303      312.575      184.020        0.290        0.058       67.217        7.624        0.013      335.903        6.846      861.072
01/11/2015  02:08:00       74.447       39.440        7.119       19.928       13.580       13.260      397.132      184.425      175.817        0.395        0.038       84.249        5.538        0.004      335.915        6.868      861.066
01/11/2015  02:09:00       46.320       41.475       38.349       15.618       16.397       15.565      243.929      268.847      242.281        0.305        0.038       62.175        8.303        0.018      335.898        6.840      861.058
01/11/2015  02:10:00       43.982       47.566       42.835       23.812       17.318       13.531      567.001      299.898      183.079        0.354        0.052       64.784        5.858        0.008      335.948        6.921      861.054
01/11/2015  02:11:00        5.048       17.504       38.584       18.419       20.501       10.978      339.266      420.280      120.527        0.135        0.044       18.217        4.156        0.052      335.951        6.926      861.053
01/11/2015  02:12:00       24.739       33.741       42.362       17.802       18.855       13.699      316.918      355.524      187.664        0.220        0.043       41.839       12.417        0.088      335.970        6.957      861.042
01/11/2015  02:13:00        6.194       13.106       34.034       15.440       16.985        9.716      238.397      288.485       94.398        0.099        0.031       14.496        8.683        0.359      335.956        6.935      861.034
01/11/2015  02:14:00        8.748       -0.091       19.700       14.533       19.135       14.047      211.214      366.143      197.309        0.062        0.039        8.749       12.947        2.190      335.954        6.931      861.025
01/11/2015  02:15:00       11.823       21.440       35.206       17.335       18.896       10.016      300.488      357.050      100.318        0.130        0.038       24.484        8.454        0.119      335.905        6.849      861.020
01/11/2015  02:16:00       16.039       45.549       49.067       19.338       21.457        9.718      373.966      460.411       94.432        0.283        0.046       48.291        4.215        0.008      335.914        6.866      861.021
01/11/2015  02:17:00       38.091       25.340       31.031       24.979       15.639       20.323      623.937      244.579      413.011        0.217        0.064       45.750       14.985        0.107      335.916        6.869      861.021
01/11/2015  02:18:00       39.431       44.977       45.894       22.713       24.831       17.798      515.890      616.580      316.757        0.357        0.072       59.814       11.301        0.036      335.907        6.854      861.020
01/11/2015  02:19:00       17.267       28.369       40.730       24.333       22.655       15.988      592.080      513.238      255.626        0.206        0.068       33.210       17.168        0.267      335.924        6.880      861.024
01/11/2015  02:20:00       -4.237       19.542       41.671        8.490       18.434       13.166       72.075      339.797      173.345        0.136        0.029       19.996       12.632        0.399      335.957        6.936      861.032
01/11/2015  02:21:00       -1.908        4.291       28.056        9.149       12.510        8.297       83.703      156.513       68.847        0.056        0.015        4.696        6.876        2.144      335.975        6.966      861.042
01/11/2015  02:22:00       -3.010       -7.236       13.274        9.581       15.355        9.511       91.797      235.776       90.468        0.033        0.021        7.837        8.539        1.187      335.956        6.933      861.039
01/11/2015  02:23:00      -21.260      -14.757        3.022        8.160       10.209        7.704       66.592      104.219       59.358        0.045        0.012       25.880        4.170        0.026      335.840        6.743      861.045
01/11/2015  02:24:00      -30.111      -12.599       -4.301        8.667        9.637        7.468       75.113       92.863       55.769        0.065        0.011       32.641        5.384        0.027      335.843        6.747      861.040
01/11/2015  02:25:00      -45.760      -15.239       -5.631       14.236        7.096        5.191      202.657       50.347       26.943        0.132        0.014       48.231        3.582        0.006      335.769        6.623      861.039
01/11/2015  02:26:00      -51.856       -4.760       -6.330        9.535       11.763        5.046       90.925      138.371       25.466        0.150        0.013       52.074        6.098        0.014      335.708        6.524      861.038
01/11/2015  02:27:00      -51.862      -20.102       -5.358       14.184       15.675        8.564      201.180      245.718       73.340        0.182        0.026       55.622        5.423        0.010      335.660        6.442      861.039
01/11/2015  02:28:00      -55.412        1.022       -2.744       31.530       16.968       15.209      994.116      287.912      231.323        0.230        0.076       55.422       16.094        0.084      335.635        6.401      861.047
01/11/2015  02:29:00      -52.329      -17.360        2.796       28.472       23.349       16.450      810.642      545.193      270.592        0.234        0.081       55.133       13.731        0.062      335.559        6.273      861.056
01/11/2015  02:30:00      -67.218      -27.722        5.653       28.600       19.531       16.033      817.933      381.442      257.069        0.339        0.073       72.710       11.934        0.027      335.566        6.285      861.066
01/11/2015  02:31:00     -111.284      -21.329       -1.488       26.785       22.752       14.271      717.423      517.665      203.668        0.714        0.072      113.310        9.558        0.007      335.473        6.130      861.071
01/11/2015  02:32:00     -126.949      -16.943       -6.134       33.317       21.476       23.154     1110.050      461.227      536.126        0.927        0.105      128.074       21.402        0.028      335.431        6.060      861.071
01/11/2015  02:33:00     -105.456       -7.733       -3.201       40.730       27.483       22.630     1658.933      755.289      512.129        0.706        0.146      105.739       21.384        0.041      335.398        6.005      861.076
01/11/2015  02:34:00     -106.470      -12.786       -5.126       36.884       29.856       22.340     1360.446      891.374      499.097        0.714        0.138      107.234       23.112        0.046      335.419        6.041      861.084
01/11/2015  02:35:00     -131.411        9.034       -4.070       54.872       37.361       18.444     3010.882     1395.809      340.175        1.106        0.237      131.721       19.422        0.022      335.359        5.939      861.088
01/11/2015  02:36:00     -158.148       46.900      -14.786       32.050       30.857       14.736     1027.182      952.125      217.136        1.481        0.110      164.956       10.442        0.004      335.357        5.936      861.094
01/11/2015  02:37:00      -99.894       18.451       -4.642       51.496       30.898       20.427     2651.863      954.677      417.271        0.718        0.201      101.583       15.780        0.024      335.350        5.925      861.100
01/11/2015  02:38:00     -121.357       -6.856       -3.412       48.966       42.577       23.441     2397.677     1812.816      549.493        0.977        0.238      121.551       20.852        0.029      335.207        5.687      861.102
01/11/2015  02:39:00     -131.790      -49.028      -12.054       30.220       24.678       20.096      913.253      609.013      403.861        1.092        0.096      140.614       16.821        0.014      335.154        5.600      861.105
01/11/2015  02:40:00     -124.149      -38.041      -11.089       30.854       31.462       29.206      951.961      989.879      852.966        0.989        0.140      129.846       17.789        0.019      335.150        5.592      861.107
01/11/2015  02:41:00     -110.810      -22.634        0.328       41.073       37.658       25.631     1686.981     1418.159      656.973        0.828        0.188      113.098       25.617        0.051      335.191        5.660      861.113
01/11/2015  02:42:00     -102.282        0.272      -10.624       34.918       28.066       16.717     1219.255      787.694      279.453        0.643        0.114      102.282       17.086        0.028      335.334        5.898      861.115
01/11/2015  02:43:00     -134.395        0.700      -10.354       27.886       35.291       24.853      777.601     1245.447      617.664        1.040        0.132      134.397       20.265        0.023      335.376        5.966      861.121
01/11/2015  02:44:00      -70.069      -14.476       -2.899       25.393       30.225       21.128      644.797      913.552      446.403        0.357        0.100       71.549       16.457        0.053      335.315        5.866      861.124
01/11/2015  02:45:00      -42.930      -27.507       -0.389       36.058       24.499       17.933     1300.196      600.222      321.595        0.241        0.111       50.987       16.413        0.104      335.374        5.966      861.116
01/11/2015  02:46:00      -36.489       -1.696        8.588       23.579       19.111       18.405      555.988      365.226      338.740        0.133        0.063       36.528       17.900        0.240      335.316        5.867      861.116
01/11/2015  02:47:00      -57.416        4.842      -11.789       15.867       15.879        8.116      251.758      252.144       65.868        0.201        0.028       57.619        5.456        0.009      335.295        5.833      861.103
01/11/2015  02:48:00      -59.850       22.977       -9.390       17.719       19.270        9.179      313.968      371.336       84.259        0.248        0.038       64.110        4.050        0.004      335.291        5.826      861.096
01/11/2015  02:49:00      -57.823        3.019      -11.225       15.705       18.645       12.047      246.653      347.628      145.122        0.211        0.037       57.902        9.422        0.026      335.313        5.864      861.090
01/11/2015  02:50:00      -74.011      -20.987      -15.917       20.034       20.388       12.744      401.367      415.675      162.409        0.358        0.049       76.929       11.530        0.022      335.279        5.806      861.088
01/11/2015  02:51:00      -89.812      -14.657      -16.989       18.813       17.305       15.870      353.917      299.454      251.854        0.474        0.045       91.000       11.380        0.016      335.242        5.745      861.082
01/11/2015  02:52:00      -92.723      -34.455       -9.595       26.228       22.312       16.180      687.895      497.845      261.793        0.566        0.072       98.917       12.195        0.015      335.245        5.750      861.086
01/11/2015  02:53:00      -92.213      -14.820      -10.549       31.009       29.556       15.088      961.576      873.552      227.653        0.545        0.103       93.396       10.004        0.011      335.241        5.742      861.087
01/11/2015  02:54:00      -94.073       32.050      -14.485       24.170       23.877       16.010      584.188      570.132      256.313        0.575        0.071       99.383       14.292        0.021      335.510        6.190      861.072
01/11/2015  02:55:00      -96.121       28.326      -14.595       20.448       32.232       22.751      418.109     1038.879      517.589        0.611        0.099      100.208       17.660        0.031      335.530        6.225      861.050
01/11/2015  02:56:00     -100.807       21.433      -13.433       23.349       29.183       16.579      545.181      851.645      274.860        0.624        0.084      103.061       11.251        0.012      335.480        6.142      861.036
01/11/2015  02:57:00      -89.924       -2.519      -10.307       22.276       26.681       11.002      496.239      711.867      121.040        0.476        0.066       89.960        7.543        0.007      335.396        6.001      861.022
01/11/2015  02:58:00      -91.111       -8.974      -11.107       33.198       24.516       15.343     1102.087      601.046      235.407        0.522        0.097       91.552       11.647        0.016      335.343        5.913      861.012
01/11/2015  02:59:00      -74.320       22.495      -12.648       19.914       31.295       15.867      396.573      979.393      251.760        0.391        0.081       77.649       13.915        0.032      335.438        6.072      861.001
01/11/2015  03:00:00      -59.807       21.700      -12.411       22.549       22.820       14.392      508.437      520.770      207.117        0.272        0.062       63.622        6.923        0.012      335.415        6.035      861.001
01/11/2015  03:01:00     -112.897       29.716      -21.367       26.336       43.931       15.899      693.576     1929.889      252.782        0.848        0.144      116.742       17.610        0.023      335.299        5.838      861.015
01/11/2015  03:02:00     -135.246       59.508      -29.965       30.194       34.416       24.308      911.697     1184.489      590.872        1.271        0.134      147.759       21.552        0.021      335.265        5.782      861.030
01/11/2015  03:03:00      -92.159       16.415       -8.730       34.545       28.128       23.735     1193.365      791.162      563.329        0.569        0.127       93.610       25.385        0.074      335.284        5.815      861.048
01/11/2015  03:04:00      -94.278       36.190      -14.880       34.342       33.317       20.263     1179.393     1110.056      410.572        0.656        0.135      100.986       19.647        0.038      335.355        5.932      861.058
01/11/2015  03:05:00      -62.200       18.800       -8.494       22.985       24.045       17.989      528.329      578.179      323.612        0.286        0.072       64.979       17.136        0.070      335.356        5.934      861.064
01/11/2015  03:06:00      -67.102       28.962      -16.032       29.868       30.626       21.788      892.070      937.975      474.706        0.395        0.115       73.085       19.398        0.070      335.442        6.078      861.066
01/11/2015  03:07:00      -68.399       27.083      -13.968       26.698       34.785       15.345      712.802     1209.963      235.463        0.388        0.108       73.566       11.980        0.027      335.442        6.078      861.055
01/11/2015  03:08:00      -69.062       39.627      -14.488       19.546       23.135       13.031      382.030      535.211      169.815        0.382        0.054       79.624       12.950        0.026      335.571        6.293      861.047
01/11/2015  03:09:00      -45.885       55.259       -3.777       33.132       28.442       20.173     1097.748      808.924      406.958        0.374        0.116       71.826       22.787        0.101      335.635        6.400      861.034
01/11/2015  03:10:00      -10.982       43.684        0.165       23.603       23.452       13.909      557.124      550.013      193.464        0.166        0.065       45.043       10.695        0.056      335.616        6.369      861.031
01/11/2015  03:11:00      -27.342       46.334       -7.508       21.653       32.065       14.789      468.862     1028.186      218.717        0.233        0.086       53.800       11.659        0.047      335.625        6.384      861.040
01/11/2015  03:12:00      -59.615       33.262       -5.197       27.535       31.281       16.728      758.191      978.508      279.833        0.335        0.101       68.267       19.869        0.085      335.610        6.360      861.052
01/11/2015  03:13:00      -85.759       14.665      -14.238       13.310       18.108       12.755      177.154      327.889      162.689        0.422        0.033       87.004       10.085        0.013      335.360        5.941      861.070
01/11/2015  03:14:00      -97.985       51.035      -26.134       20.968       40.062       20.275      439.639     1604.991      411.091        0.767        0.123      110.479        7.443        0.005      335.616        6.367      861.078
01/11/2015  03:15:00      -88.561       29.999      -21.854       19.671       37.853       18.885      386.967     1432.874      356.654        0.570        0.109       93.503       15.067        0.026      335.614        6.365      861.075
01/11/2015  03:16:00      -66.675        8.386      -14.180       20.229       17.163       11.752      409.204      294.577      138.098        0.278        0.042       67.200        6.360        0.009      335.455        6.098      861.068
01/11/2015  03:17:00      -67.014       12.925       -9.575       17.323       26.658       13.455      300.089      710.665      181.045        0.297        0.060       68.249       11.020        0.026      335.590        6.324      861.056
01/11/2015  03:18:00      -59.250       -9.855       -7.131       19.308       28.207       21.587      372.795      795.612      466.012        0.265        0.082       60.064       12.506        0.043      335.541        6.244      861.043
01/11/2015  03:19:00     -102.051       -7.997       -9.525       33.082       22.452       16.889     1094.442      504.081      285.236        0.623        0.094      102.364       13.665        0.018      335.475        6.133      861.039
01/11/2015  03:20:00     -141.106       -5.716      -14.696       28.965       21.419       18.138      838.966      458.791      328.976        1.089        0.081      141.222       13.599        0.009      335.463        6.113      861.038
01/11/2015  03:21:00     -101.187      -16.443      -10.939       21.956       14.899       16.873      482.075      221.975      284.686        0.581        0.049      102.515       12.410        0.015      335.401        6.010      861.034
01/11/2015  03:22:00     -110.227       -0.329       -9.981       35.443       23.796       17.915     1256.240      566.265      320.935        0.720        0.107      110.228       18.064        0.027      335.388        5.987      861.027
01/11/2015  03:23:00     -129.201       13.699      -15.852       28.596       24.221       16.531      817.757      586.670      273.288        0.940        0.084      129.925       13.745        0.011      335.421        6.042      861.026
01/11/2015  03:24:00      -91.928       22.787      -17.284       27.661       22.205       12.632      765.131      493.080      159.579        0.534        0.071       94.710        9.887        0.011      335.555        6.267      861.021
01/11/2015  03:25:00     -112.278       11.398      -14.578       38.950       26.138       16.007     1517.109      683.180      256.232        0.770        0.123      112.855       10.714        0.009      335.504        6.183      861.017
01/11/2015  03:26:00     -135.384        2.076      -15.442       35.903       31.253       21.919     1289.001      976.749      480.429        1.066        0.137      135.400       20.844        0.024      335.389        5.990      861.021
01/11/2015  03:27:00     -117.374       12.532      -18.042       33.928       25.399       16.201     1151.096      645.103      262.481        0.816        0.103      118.041       16.022        0.018      335.400        6.008      861.020
01/11/2015  03:28:00      -96.424        7.854       -8.834       41.996       25.715       15.784     1763.690      661.271      249.127        0.606        0.134       96.743       15.855        0.027      335.408        6.020      861.016
01/11/2015  03:29:00      -66.723       26.068       -7.025       19.480       19.091       15.284      379.470      364.463      233.611        0.308        0.049       71.634        7.125        0.010      335.712        6.528      861.005
01/11/2015  03:30:00      -71.130       25.200      -14.052       16.692       29.074       19.571      278.629      845.318      383.013        0.370        0.075       75.462        8.683        0.013      335.863        6.780      860.996
01/11/2015  03:31:00      -41.145      -26.142       -6.707       23.189       22.194       13.449      537.726      492.558      180.875        0.182        0.061       48.748       11.469        0.055      335.520        6.209      860.993
01/11/2015  03:32:00      -65.307      -13.487       -7.463       22.258       24.650       15.798      495.416      607.613      249.572        0.293        0.068       66.685        7.910        0.014      335.471        6.126      860.986
01/11/2015  03:33:00      -84.579       10.530       -9.838       37.502       20.291       15.674     1406.395      411.711      245.663        0.471        0.103       85.232       17.766        0.043      335.419        6.040      860.975
01/11/2015  03:34:00      -52.588        6.787       -8.132       35.980       25.007       14.580     1294.563      625.365      212.572        0.250        0.107       53.024       15.569        0.086      335.519        6.205      860.956
01/11/2015  03:35:00      -97.275       -4.835       -5.115       30.576       22.467       19.705      934.897      504.766      388.293        0.567        0.091       97.395       19.660        0.041      335.463        6.113      860.950
01/11/2015  03:36:00      -74.676        3.335       -6.332       29.905       33.056       17.597      894.301     1092.701      309.647        0.396        0.115       74.750       16.215        0.047      335.425        6.050      860.945
01/11/2015  03:37:00     -106.190      -26.081       -4.766       35.284       26.444       18.649     1244.959      699.310      347.771        0.714        0.115      109.346       17.708        0.026      335.399        6.007      860.942
01/11/2015  03:38:00      -87.452      -12.127        3.135       44.029       31.368       21.503     1938.520      983.942      462.394        0.559        0.169       88.289       21.782        0.061      335.413        6.031      860.948
01/11/2015  03:39:00     -113.507      -53.645       -4.626       37.129       30.590       20.117     1378.557      935.728      404.698        0.925        0.136      125.545       12.834        0.010      335.414        6.031      860.953
01/11/2015  03:40:00     -109.877      -30.523       -9.746       31.926       22.328       22.567     1019.252      498.526      509.287        0.756        0.101      114.038       21.411        0.035      335.433        6.063      860.954
01/11/2015  03:41:00     -111.117      -60.252      -11.027       38.381       27.366       18.917     1473.075      748.923      357.861        0.934        0.129      126.401       12.392        0.010      335.496        6.167      860.950
01/11/2015  03:42:00     -115.640      -50.843       -8.102       27.709       21.254       19.131      767.768      451.749      365.990        0.880        0.079      126.323       13.016        0.011      335.520        6.209      860.941
01/11/2015  03:43:00     -117.172      -39.338       -4.934       22.224       23.083       14.334      493.926      532.810      205.470        0.827        0.062      123.599       11.456        0.009      335.549        6.256      860.940
01/11/2015  03:44:00     -100.715      -40.930       -5.282       18.722       17.296       11.205      350.517      299.150      125.551        0.631        0.039      108.714        5.809        0.003      335.574        6.300      860.935
01/11/2015  03:45:00      -79.679      -50.313       -1.441       37.324       22.122       17.137     1393.086      489.376      293.664        0.553        0.109       94.235       14.660        0.024      335.574        6.300      860.927
01/11/2015  03:46:00      -97.307      -64.182       -5.774       36.873       26.630       20.479     1359.602      709.151      419.409        0.805        0.124      116.568       19.667        0.028      335.532        6.228      860.922
01/11/2015  03:47:00      -84.581      -68.210       -0.932       46.664       31.979       23.131     2177.502     1022.661      535.056        0.777        0.187      108.658       22.996        0.045      335.528        6.222      860.926
01/11/2015  03:48:00      -70.226      -54.337        5.906       41.552       27.918       24.590     1726.543      779.393      604.650        0.551        0.156       88.793       16.458        0.034      335.520        6.208      860.916
01/11/2015  03:49:00      -76.819      -52.683       -2.843       41.014       26.289       21.075     1682.153      691.112      444.141        0.575        0.141       93.149       16.549        0.032      335.540        6.242      860.904
01/11/2015  03:50:00      -56.373      -46.932        1.624       24.621       26.908       15.638      606.204      724.048      244.540        0.348        0.079       73.352       13.442        0.034      335.549        6.257      860.894
01/11/2015  03:51:00      -77.520      -60.571        1.784       34.440       31.379       23.057     1186.127      984.625      531.641        0.619        0.135       98.378       17.287        0.031      335.571        6.294      860.893
01/11/2015  03:52:00      -80.311     -101.282       -6.870       40.029       29.827       23.637     1602.301      889.627      558.719        0.990        0.153      129.259       24.178        0.035      335.544        6.249      860.893
01/11/2015  03:53:00      -71.480      -63.171        8.377       51.278       28.641       25.641     2629.402      820.301      657.475        0.664        0.205       95.394       27.540        0.083      335.596        6.335      860.900
01/11/2015  03:54:00      -96.653      -83.897        1.690       38.523       37.214       25.115     1483.997     1384.909      630.782        0.994        0.175      127.986       20.533        0.026      335.569        6.290      860.905
01/11/2015  03:55:00     -120.477      -74.082       -4.110       38.187       29.998       23.531     1458.242      899.856      553.708        1.147        0.146      141.432       19.432        0.019      335.541        6.243      860.906
01/11/2015  03:56:00     -146.834      -64.278       -8.561       19.867       25.114       15.844      394.687      630.727      251.021        1.352        0.064      160.287       12.299        0.006      335.474        6.130      860.912
01/11/2015  03:57:00     -135.845      -73.623      -10.827       35.684       27.171       20.005     1273.353      738.263      400.206        1.320        0.121      154.513       19.386        0.016      335.458        6.104      860.920
01/11/2015  03:58:00      -76.888      -43.209        4.116       44.072       24.691       18.250     1942.375      609.628      333.058        0.534        0.144       88.197       20.099        0.052      335.446        6.084      860.915
01/11/2015  03:59:00      -99.711      -53.807       -2.871       36.261       31.616       18.505     1314.892      999.598      342.423        0.775        0.133      113.303       18.296        0.026      335.473        6.129      860.912
01/11/2015  04:00:00      -85.865      -65.364       -6.927       42.984       33.675       23.743     1847.646     1134.031      563.714        0.762        0.177      107.913       17.519        0.026      335.509        6.189      860.919
01/11/2015  04:01:00      -87.715      -76.950       -0.668       51.016       37.405       26.028     2602.678     1399.130      677.433        0.915        0.234      116.685       23.656        0.041      335.469        6.123      860.912
01/11/2015  04:02:00      -78.663      -62.651       -3.234       40.664       38.774       19.646     1653.560     1503.391      385.959        0.683        0.177      100.564       19.973        0.039      335.512        6.195      860.911
01/11/2015  04:03:00      -57.744      -51.049       10.401       42.294       44.768       22.008     1788.748     2004.201      484.354        0.516        0.214       77.074       27.393        0.126      335.544        6.248      860.907
01/11/2015  04:04:00      -86.655      -58.297        1.878       28.427       29.751       19.821      808.105      885.096      392.861        0.650        0.104      104.440       17.413        0.028      335.533        6.230      860.905
01/11/2015  04:05:00     -100.207      -57.611        4.556       49.576       31.027       22.987     2457.783      962.682      528.425        0.866        0.197      115.587       17.432        0.023      335.539        6.241      860.912
01/11/2015  04:06:00     -107.407      -66.460       -0.222       54.461       34.736       24.911     2966.034     1206.617      620.581        1.037        0.240      126.306       24.837        0.039      335.552        6.263      860.907
01/11/2015  04:07:00     -104.336      -59.832       -0.176       35.170       29.414       20.084     1236.933      865.170      403.358        0.849        0.125      120.275       14.774        0.015      335.545        6.251      860.904
01/11/2015  04:08:00     -105.493      -53.337       -4.746       23.938       32.874       16.322      573.045     1080.672      266.423        0.796        0.096      118.210       13.854        0.014      335.488        6.156      860.904
01/11/2015  04:09:00      -90.850      -51.827        0.150       15.535       19.576       12.801      241.333      383.206      163.867        0.586        0.039      104.594        6.870        0.004      335.523        6.214      860.898
01/11/2015  04:10:00      -88.262      -40.379       -4.762       12.920       13.618       12.594      166.930      185.457      158.616        0.498        0.026       97.060        6.899        0.005      335.554        6.264      860.901
01/11/2015  04:11:00      -93.476      -46.941       -0.707       17.442       15.566       18.547      304.234      242.287      343.998        0.592        0.045      104.600       13.834        0.017      335.532        6.229      860.907
01/11/2015  04:12:00      -85.627      -60.824       -6.489       43.169       21.934       19.908     1863.604      481.114      396.315        0.691        0.137      105.031       15.864        0.023      335.540        6.240      860.905
01/11/2015  04:13:00      -87.283      -35.464        3.933       31.322       26.838       19.754      981.039      720.284      390.220        0.549        0.105       94.213       13.410        0.020      335.508        6.187      860.905
01/11/2015  04:14:00      -99.315      -35.706        3.588       37.975       23.142       17.090     1442.093      535.562      292.075        0.671        0.113      105.538       16.555        0.025      335.498        6.172      860.904
01/11/2015  04:15:00      -93.534      -39.850        0.186       26.263       27.726       12.872      689.766      768.710      165.701        0.598        0.081      101.669       10.781        0.011      335.589        6.325      860.893
01/11/2015  04:16:00     -100.169      -53.051       -8.118       17.984       18.902       15.709      323.419      357.268      246.783        0.692        0.046      113.350       11.060        0.010      335.612        6.363      860.887
01/11/2015  04:17:00     -109.138      -48.032       -8.996       15.151       15.166       11.744      229.552      230.019      137.931        0.745        0.030      119.240        6.378        0.003      335.642        6.413      860.883
01/11/2015  04:18:00      -91.466      -31.587        0.597       25.718       20.492       17.439      661.402      419.935      304.111        0.537        0.069       96.767       13.563        0.020      335.575        6.301      860.881
01/11/2015  04:19:00      -82.988      -46.976        1.165       30.928       23.259       13.741      956.547      540.970      188.828        0.539        0.084       95.362       14.330        0.023      335.574        6.299      860.884
01/11/2015  04:20:00      -63.560      -23.888       -1.419       28.695       17.572       13.335      823.405      308.765      177.823        0.296        0.065       67.901        4.683        0.005      335.562        6.279      860.885
01/11/2015  04:21:00      -52.547      -35.230        1.689       24.703       18.690        9.492      610.240      349.325       90.103        0.253        0.052       63.264        7.144        0.013      335.617        6.369      860.885
01/11/2015  04:22:00      -72.932      -43.429       -2.168       29.258       24.618       15.905      856.015      606.041      252.968        0.446        0.086       84.883       15.145        0.032      335.600        6.343      860.888
01/11/2015  04:23:00      -85.117      -36.323       -2.032       24.803       18.513       11.856      615.206      342.727      140.565        0.483        0.055       92.543        9.695        0.011      335.562        6.279      860.898
01/11/2015  04:24:00      -29.309      -21.404        7.292       25.952       17.745       14.217      673.532      314.897      202.124        0.128        0.060       36.292       12.311        0.115      335.556        6.268      860.911
01/11/2015  04:25:00      -67.826      -33.071       -2.602       28.548       20.238       14.245      814.981      409.590      202.932        0.356        0.071       75.459       10.235        0.018      335.508        6.190      860.922
01/11/2015  04:26:00      -94.362      -35.413       -0.289       41.430       22.413       16.995     1716.473      502.354      288.823        0.633        0.125      100.788       18.505        0.034      335.493        6.163      860.935
01/11/2015  04:27:00      -91.399      -42.426       -4.968       18.277       14.674       13.822      334.059      215.332      191.049        0.546        0.037      100.766        8.659        0.007      335.534        6.232      860.940
01/11/2015  04:28:00      -56.025      -38.812       -6.491       17.119       17.897       13.049      293.069      320.319      170.278        0.274        0.039       68.155        8.604        0.016      335.562        6.278      860.934
01/11/2015  04:29:00      -49.117      -32.346        3.260       27.635       22.270       13.091      763.668      495.945      171.369        0.245        0.072       58.810       12.047        0.042      335.532        6.228      860.939
01/11/2015  04:30:00      -46.731      -31.886        8.399       29.154       22.379       17.446      849.984      500.808      304.348        0.246        0.083       56.573       13.126        0.054      335.491        6.160      860.945
01/11/2015  04:31:00      -72.930      -56.470        5.213       37.565       27.441       19.886     1411.117      753.002      395.467        0.555        0.128       92.237       14.281        0.024      335.541        6.243      860.949
01/11/2015  04:32:00      -80.159      -47.111        4.000       34.633       22.489       15.489     1199.463      505.773      239.908        0.530        0.097       92.978       12.459        0.018      335.503        6.180      860.948
01/11/2015  04:33:00      -94.103      -86.962       -1.954       45.850       38.241       21.103     2102.209     1462.363      445.354        1.021        0.200      128.131       23.107        0.033      335.565        6.283      860.955
01/11/2015  04:34:00     -118.351     -115.440      -18.130       31.784       25.211       20.816     1010.237      635.585      433.297        1.487        0.104      165.328       11.809        0.005      335.465        6.116      860.953
01/11/2015  04:35:00      -94.041      -80.504        1.085       46.958       37.557       25.468     2205.098     1410.529      648.603        0.979        0.213      123.792       23.736        0.037      335.493        6.163      860.953
01/11/2015  04:36:00      -59.053      -37.530        7.926       46.671       27.670       22.994     2178.149      765.616      528.734        0.421        0.174       69.970       23.065        0.109      335.441        6.077      860.960
01/11/2015  04:37:00      -70.010      -41.497        6.589       45.631       26.579       21.447     2082.153      706.470      459.991        0.496        0.162       81.384       12.906        0.025      335.413        6.030      860.961
01/11/2015  04:38:00      -87.766      -59.722        0.652       35.264       27.776       18.937     1243.556      771.533      358.616        0.682        0.119      106.158       17.396        0.027      335.383        5.979      860.953
01/11/2015  04:39:00      -57.721      -54.298        7.610       48.349       40.617       22.461     2337.631     1649.720      504.498        0.541        0.225       79.246       24.109        0.093      335.362        5.943      860.954
01/11/2015  04:40:00      -83.730      -87.079        2.301       44.180       41.696       20.083     1951.905     1738.597      403.310        0.935        0.205      120.803       25.271        0.044      335.286        5.819      860.950
01/11/2015  04:41:00      -68.464      -70.868       -2.751       46.080       38.376       19.413     2123.350     1472.707      376.863        0.684        0.199       98.537       23.723        0.058      335.253        5.763      860.939
01/11/2015  04:42:00      -95.994      -50.457       -7.591       26.893       26.819       16.227      723.229      719.253      263.303        0.676        0.085      108.447       13.155        0.015      335.237        5.735      860.930
01/11/2015  04:43:00      -96.444      -31.188       -1.813       34.029       22.439       17.540     1157.951      503.503      307.669        0.612        0.098      101.361       14.265        0.020      335.226        5.718      860.926
01/11/2015  04:44:00      -74.676      -66.164        4.037       34.352       26.166       18.207     1180.091      684.652      331.512        0.608        0.110       99.771       14.933        0.022      335.271        5.793      860.932
01/11/2015  04:45:00      -57.957      -48.313        3.601       30.369       34.532       14.988      922.274     1192.433      224.644        0.402        0.117       75.453       12.617        0.028      335.272        5.794      860.943
01/11/2015  04:46:00      -82.516        0.441        0.464       22.695       23.580       15.832      515.072      556.026      250.637        0.407        0.066       82.517       12.044        0.021      335.263        5.778      860.952
01/11/2015  04:47:00     -100.832       -1.458       -9.988       18.081       15.678       11.850      326.913      245.806      140.429        0.549        0.036      100.843        6.818        0.005      335.250        5.757      860.959
01/11/2015  04:48:00      -64.464      -21.086        1.486       24.870       12.620       12.604      618.520      159.276      158.863        0.277        0.047       67.825       14.180        0.044      335.244        5.747      860.969
01/11/2015  04:49:00      -35.286      -18.797       -0.406       16.321       15.057       11.316      266.367      226.728      128.052        0.111        0.031       39.980        9.445        0.056      335.278        5.804      860.966
01/11/2015  04:50:00       -7.942       -4.245        7.928       10.642       12.023        9.003      113.255      144.553       81.058        0.024        0.017        9.006        7.416        0.678      335.329        5.889      860.958
01/11/2015  04:51:00       -0.101        5.349        9.106        9.743        6.744        8.762       94.933       45.479       76.774        0.016        0.011        5.350        4.434        0.687      335.336        5.901      860.949
01/11/2015  04:52:00        2.226        2.601        4.062        7.339        5.320        8.367       53.856       28.302       70.011        0.009        0.008        3.424        5.728        2.800      335.401        6.010      860.948
01/11/2015  04:53:00       28.225       27.904       15.606       18.728       20.938       12.639      350.753      438.406      159.737        0.138        0.047       39.690       10.191        0.066      335.343        5.912      860.950
01/11/2015  04:54:00       11.143       49.393       39.482       16.073       23.136       11.928      258.343      535.252      142.275        0.253        0.047       50.634        8.892        0.031      335.294        5.831      860.952
01/11/2015  04:55:00        8.509       38.049       55.210       19.973       29.509       11.919      398.940      870.799      142.074        0.299        0.071       38.988       15.826        0.165      335.412        6.028      860.956
01/11/2015  04:56:00       63.633       63.601       50.716       37.421       22.956       23.001     1400.354      526.978      529.046        0.656        0.123       89.968       17.334        0.037      335.364        5.948      860.962
01/11/2015  04:57:00       13.236       60.751       50.707       31.645       26.572       19.436     1001.428      706.052      377.748        0.426        0.104       62.176       15.283        0.060      335.268        5.789      860.968
01/11/2015  04:58:00        7.887       15.004       19.304       16.562       19.067       12.319      274.288      363.560      151.764        0.072        0.039       16.950       10.094        0.355      335.312        5.860      860.976
01/11/2015  04:59:00      -22.012       -2.936        3.118       12.741        8.555        5.971      162.336       73.183       35.659        0.039        0.014       22.207        5.007        0.051      335.389        5.988      860.984
01/11/2015  05:00:00       12.468       15.848        1.268       12.318        6.244        6.091      151.742       38.988       37.103        0.032        0.011       20.164        5.901        0.086      335.273        5.796      860.991
01/11/2015  05:01:00       46.018       30.409        6.801       14.120       11.468       10.968      199.379      131.506      120.303        0.177        0.023       55.157        5.139        0.009      335.228        5.721      860.996
01/11/2015  05:02:00       65.372       44.620       12.874       12.238        7.854       10.618      149.771       61.693      112.742        0.338        0.016       79.148        7.121        0.008      335.243        5.745      861.001
01/11/2015  05:03:00       49.263       40.792       19.479       15.194       13.924       18.946      230.861      193.888      358.944        0.263        0.039       63.960        9.982        0.024      335.277        5.803      861.001
01/11/2015  05:04:00       59.264       39.141       18.794       17.233       12.523       13.382      296.979      156.823      179.074        0.302        0.032       71.023       12.902        0.033      335.246        5.751      861.010
01/11/2015  05:05:00       51.625       23.359        8.015       13.610        8.785       10.205      185.232       77.184      104.132        0.182        0.018       56.664        1.367        0.001      335.290        5.825      861.008
01/11/2015  05:06:00       14.507        3.543        7.289       11.553        9.329       10.460      133.463       87.025      109.412        0.030        0.016       14.933        6.250        0.175      335.374        5.962      861.013
01/11/2015  05:07:00       -1.190      -27.434        0.028       15.350       18.403        9.942      235.632      338.672       98.844        0.071        0.034       27.460        9.394        0.117      335.418        6.038      861.012
01/11/2015  05:08:00       -7.190        0.652       12.565       14.022       14.503       10.064      196.618      210.326      101.277        0.036        0.025        7.219       12.333        2.918      335.482        6.145      861.015
01/11/2015  05:09:00       49.757       30.942       21.554       28.568        7.944       10.960      816.154       63.110      120.111        0.245        0.050       58.594       14.956        0.065      335.400        6.006      860.999
01/11/2015  05:10:00       89.952       32.580       19.301       18.539       22.137       21.117      343.709      490.037      445.941        0.540        0.064       95.671        9.619        0.010      335.367        5.951      860.987
01/11/2015  05:11:00       83.004       46.185       20.975       22.099       16.023       18.329      488.369      256.732      335.947        0.527        0.054       94.988        7.578        0.006      335.356        5.931      860.985
01/11/2015  05:12:00       45.370       28.052       18.362       12.064       16.473       15.377      145.550      271.373      236.453        0.192        0.033       53.342       11.125        0.043      335.341        5.909      860.993
01/11/2015  05:13:00       18.702       16.167       16.778        8.625        7.879        7.968       74.390       62.086       63.486        0.055        0.010       24.722        3.948        0.026      335.360        5.940      861.000
01/11/2015  05:14:00       12.325       16.916       16.049        8.711        8.074        4.920       75.879       65.195       24.206        0.043        0.008       20.930        3.345        0.026      335.390        5.990      861.012
01/11/2015  05:15:00        6.015       17.301       22.913        7.115       10.337        6.280       50.623      106.860       39.436        0.053        0.010       18.317        3.445        0.035      335.476        6.134      861.018
01/11/2015  05:16:00       -5.088       12.252       32.157        8.690       11.169        9.278       75.510      124.750       86.074        0.075        0.014       13.266        8.066        0.370      335.520        6.206      861.026
01/11/2015  05:17:00       -5.435       13.642       28.229        6.816       10.902        7.623       46.463      118.862       58.105        0.062        0.011       14.685        6.976        0.226      335.506        6.185      861.040
01/11/2015  05:18:00       28.141       26.478       26.396       10.631        7.097        8.465      113.012       50.368       71.658        0.121        0.012       38.639        5.927        0.024      335.458        6.105      861.035
01/11/2015  05:19:00       47.676       23.061        2.011        9.883        7.633        8.532       97.666       58.270       72.787        0.152        0.011       52.960        5.525        0.011      335.415        6.033      861.032
01/11/2015  05:20:00       54.817       44.326        1.572       15.888       18.305       13.236      252.444      335.080      175.187        0.287        0.038       70.496       11.826        0.028      335.338        5.903      861.037
01/11/2015  05:21:00       55.020       48.168       -5.147       21.531       28.271       18.807      463.601      799.271      353.719        0.349        0.081       73.126       14.316        0.038      335.252        5.760      861.018
01/11/2015  05:22:00       52.839       56.059        4.285       30.759       22.241       17.643      946.128      494.674      311.277        0.385        0.088       77.036       13.529        0.031      335.210        5.690      861.014
01/11/2015  05:23:00       35.092       29.633        1.341       26.793       28.352       24.418      717.845      803.862      596.216        0.211        0.106       45.930       20.075        0.191      335.178        5.638      861.018
01/11/2015  05:24:00       34.461       23.269       -1.301       22.713       15.909       18.703      515.889      253.096      349.808        0.142        0.056       41.582       10.932        0.069      335.185        5.649      861.027
01/11/2015  05:25:00       49.852       21.003        2.834       28.484       19.122       12.800      811.366      365.666      163.840        0.214        0.067       54.095        7.965        0.022      335.208        5.688      861.042
01/11/2015  05:26:00       64.788       29.182        1.551       17.287       13.653       12.213      298.830      186.403      149.147        0.284        0.032       71.057        6.955        0.010      335.197        5.670      861.050
01/11/2015  05:27:00       49.945       27.792       -4.094       14.189       11.162       11.163      201.317      124.591      124.618        0.187        0.023       57.157        6.565        0.013      335.191        5.658      861.057
01/11/2015  05:28:00       71.806       33.346        5.313       19.565       16.227       20.949      382.772      263.321      438.856        0.369        0.054       79.171       13.727        0.030      335.196        5.669      861.062
01/11/2015  05:29:00       59.036       32.669        4.101       15.517       21.690       15.726      240.782      470.455      247.293        0.276        0.048       67.472        8.870        0.017      335.194        5.664      861.060
01/11/2015  05:30:00       57.671       40.315        3.502       28.659       14.152       13.301      821.323      200.268      176.918        0.308        0.060       70.365       15.023        0.046      335.186        5.651      861.072
01/11/2015  05:31:00       51.609       26.630        0.986       18.102       16.004       14.663      327.675      256.140      215.003        0.209        0.040       58.075       11.376        0.038      335.181        5.641      861.077
01/11/2015  05:32:00       32.361       16.083        1.163       23.847       12.450       11.495      568.659      154.991      132.144        0.108        0.043       36.137       12.597        0.122      335.168        5.623      861.087
01/11/2015  05:33:00       36.356       13.000        5.492       21.565       15.941       11.117      465.061      254.106      123.586        0.118        0.042       38.610        7.422        0.037      335.190        5.659      861.098
01/11/2015  05:34:00       32.835       32.598       14.116       11.939       14.068        9.470      142.546      197.900       89.679        0.138        0.022       46.269        6.433        0.019      335.191        5.661      861.103
01/11/2015  05:35:00       59.814       59.391        8.021       13.567       12.585       16.004      184.077      158.390      256.128        0.388        0.030       84.291        5.409        0.004      335.173        5.631      861.105
01/11/2015  05:36:00       79.785       51.339        4.988       17.240       15.141       11.883      297.215      229.251      141.198        0.485        0.033       94.875        6.548        0.005      335.146        5.587      861.106
01/11/2015  05:37:00       78.763       55.621        6.543       18.600       14.760       15.292      345.966      217.851      233.852        0.507        0.040       96.422        9.115        0.009      335.163        5.616      861.108
01/11/2015  05:38:00       72.186       49.568        8.435       24.636       21.202       20.084      606.921      449.530      403.354        0.460        0.073       87.566       10.972        0.016      335.139        5.576      861.089
01/11/2015  05:39:00       37.738       39.662        6.731       34.999       20.273       13.537     1224.927      411.008      183.246        0.243        0.091       54.747        8.786        0.026      335.143        5.583      861.089
01/11/2015  05:40:00       37.380       30.336       -0.051       26.489       24.014       17.904      701.677      576.692      320.566        0.196        0.080       48.141       13.012        0.073      335.126        5.555      861.101
01/11/2015  05:41:00       54.439       32.422        0.825       15.396       15.500       12.236      237.043      240.254      149.720        0.232        0.031       63.363        4.476        0.005      335.120        5.544      861.114
01/11/2015  05:42:00       49.634       30.829        8.059       14.855       14.964       12.391      220.657      223.913      153.542        0.204        0.030       58.429        8.675        0.022      335.157        5.604      861.134
01/11/2015  05:43:00       32.805       19.203       19.152       17.615       13.630       16.078      310.302      185.773      258.496        0.128        0.038       38.013       10.822        0.081      335.162        5.614      861.156
01/11/2015  05:44:00       29.059       27.054        6.592        8.665        9.574       11.315       75.080       91.664      128.031        0.096        0.015       39.703        3.277        0.007      335.149        5.589      861.165
01/11/2015  05:45:00       11.500       56.097       -3.992       11.018       14.753        5.283      121.405      217.652       27.911        0.183        0.018       57.264        5.097        0.008      335.204        5.681      861.163
01/11/2015  05:46:00       13.222       91.778      -12.652       13.012       15.712        7.041      169.320      246.860       49.581        0.461        0.023       92.726        6.003        0.004      335.258        5.771      861.134
01/11/2015  05:47:00       20.564       84.762      -14.252       17.890       30.408       14.518      320.065      924.666      210.775        0.463        0.073       87.221       16.319        0.035      335.232        5.726      861.094
01/11/2015  05:48:00       14.966       86.715      -19.878       15.107       22.992       10.094      228.228      528.648      101.895        0.450        0.043       87.997        9.748        0.012      335.190        5.657      861.079
01/11/2015  05:49:00        7.708       73.921      -14.166       16.215       15.151       11.730      262.922      229.539      137.584        0.318        0.032       74.322        7.988        0.012      335.195        5.667      861.087
01/11/2015  05:50:00       -4.712       69.271       -8.000       14.253       17.863        8.134      203.135      319.071       66.159        0.274        0.029       69.431        7.905        0.013      335.221        5.710      861.115
01/11/2015  05:51:00       34.397       50.380        0.576       17.137       15.995       13.665      293.684      255.840      186.739        0.223        0.037       61.002        7.360        0.015      335.230        5.721      861.124
01/11/2015  05:52:00       64.586       46.842        2.832       21.673       21.285       15.109      469.719      453.031      228.278        0.376        0.058       79.784       14.276        0.032      335.240        5.741      861.110
01/11/2015  05:53:00       34.207       33.456        5.268       23.645       16.142       12.443      559.077      260.552      154.816        0.165        0.049       47.848        8.694        0.033      335.229        5.721      861.108
01/11/2015  05:54:00       12.289       69.480      -13.007       11.091       15.879        6.333      123.013      252.148       40.103        0.278        0.021       70.558        4.321        0.004      335.243        5.745      861.124
01/11/2015  05:55:00        6.061       90.223      -11.951       11.112        9.907        7.545      123.467       98.150       56.926        0.430        0.014       90.426        6.064        0.004      335.244        5.750      861.123
01/11/2015  05:56:00       14.751       80.514       -1.776       16.021       26.312       17.649      256.666      692.320      311.494        0.398        0.063       81.854       15.401        0.035      335.241        5.742      861.114
01/11/2015  05:57:00       20.488       63.110       -4.128       20.002       22.044       14.733      400.079      485.944      217.057        0.276        0.055       66.352       11.881        0.032      335.242        5.743      861.107
01/11/2015  05:58:00       19.567       60.804       -3.120       23.446       26.449       20.121      549.726      699.541      404.869        0.287        0.083       63.875       17.807        0.078      335.256        5.768      861.114
01/11/2015  05:59:00        9.593       90.823      -17.654       25.747       27.250       15.810      662.900      742.562      249.963        0.515        0.083       91.328       15.115        0.027      335.252        5.760      861.122
01/11/2015  06:00:00      -30.338       96.916      -16.167       12.962       19.372       12.937      168.011      375.264      167.376        0.564        0.036      101.553        9.004        0.008      335.320        5.875      861.143
01/11/2015  06:01:00      -13.432       85.051       -0.712       21.464       22.115       13.250      460.696      489.067      175.555        0.427        0.056       86.105        8.017        0.009      335.373        5.963      861.157
01/11/2015  06:02:00        4.957      101.065      -12.788        9.810       14.782       10.549       96.226      218.499      111.277        0.541        0.021      101.187        7.264        0.005      335.281        5.810      861.139
01/11/2015  06:03:00      -38.813       70.865      -17.951       20.456       34.748        8.285      418.436     1207.446       68.635        0.427        0.085       80.798        8.352        0.011      335.373        5.963      861.170
01/11/2015  06:04:00      -52.888        2.965       -4.732       20.038       14.141       10.016      401.525      199.968      100.329        0.176        0.035       52.971       10.208        0.037      335.382        5.977      861.222
01/11/2015  06:05:00      -30.126        6.444       -0.862       20.205       13.488        9.636      408.260      181.937       92.855        0.082        0.034       30.807        9.020        0.086      335.338        5.906      861.221
01/11/2015  06:06:00      -29.022      -22.868       -4.294       12.456       11.856        7.450      155.163      140.567       55.503        0.087        0.018       36.949        7.020        0.036      335.291        5.825      861.213
01/11/2015  06:07:00        5.991      -10.566       13.500        7.077       21.756        8.319       50.083      473.329       69.212        0.046        0.030       12.146       11.557        0.905      335.375        5.965      861.198
01/11/2015  06:08:00       22.294       16.545        6.554       10.376        7.837        9.473      107.669       61.424       89.744        0.054        0.013       27.762        6.034        0.047      335.387        5.985      861.191
01/11/2015  06:09:00        8.587       15.789       22.534       14.670       16.101       15.215      215.217      259.227      231.488        0.077        0.035       17.974       11.454        0.406      335.448        6.087      861.194
01/11/2015  06:10:00       -5.695       13.518       38.558        8.597       23.422       13.334       73.916      548.606      177.798        0.125        0.040       14.669       15.685        1.143      335.471        6.126      861.191
01/11/2015  06:11:00       12.004      -36.611       -6.736       13.844       19.993       14.207      191.666      399.738      201.832        0.116        0.040       38.529       11.812        0.094      335.489        6.156      861.216
01/11/2015  06:12:00        3.045        0.603       14.993        7.708        8.969        6.533       59.411       80.448       42.685        0.021        0.009        3.105        5.284        2.896      335.514        6.199      861.227
01/11/2015  06:13:00       16.746       33.656        8.701       11.133       16.555       13.306      123.955      274.068      177.042        0.103        0.029       37.592       10.331        0.076      335.447        6.088      861.213
01/11/2015  06:14:00       21.509       33.209       -6.678       12.397       17.955       12.586      153.686      322.383      158.408        0.112        0.032       39.566       10.247        0.067      335.442        6.079      861.213
01/11/2015  06:15:00        9.337       11.077       -2.586       10.297        9.306        8.594      106.033       86.605       73.864        0.024        0.013       14.487        7.208        0.248      335.455        6.098      861.232
01/11/2015  06:16:00        0.499       -0.050        0.980        3.119        3.518        3.910        9.730       12.375       15.286        0.002        0.002        0.501        2.252       20.198      335.490        6.158      861.238
01/11/2015  06:17:00       -1.684        1.610        2.434        4.574        4.263        3.170       20.917       18.173       10.048        0.003        0.002        2.330        2.412        1.072      335.518        6.204      861.242
01/11/2015  06:18:00      -34.315        1.830       -1.550       12.722        7.229        5.289      161.851       52.260       27.974        0.071        0.012       34.364        6.184        0.032      335.423        6.044      861.236
01/11/2015  06:19:00      -29.157       19.716       -2.871        7.652        8.002        6.427       58.548       64.040       41.311        0.071        0.008       35.198        4.559        0.017      335.390        5.989      861.224
01/11/2015  06:20:00      -27.184       35.416       -5.861       11.642       10.026        6.024      135.537      100.526       36.284        0.115        0.014       44.646        5.249        0.014      335.444        6.081      861.203
01/11/2015  06:21:00      -55.353       53.408      -13.171       24.535       14.723        7.859      601.984      216.767       61.766        0.349        0.044       76.918        9.082        0.014      335.453        6.097      861.196
01/11/2015  06:22:00      -71.180       56.651      -13.276       12.901       22.692       11.909      166.425      514.915      141.817        0.464        0.041       90.972       12.035        0.018      335.389        5.990      861.192
01/11/2015  06:23:00      -52.016       49.341       -9.411       13.857       11.499        7.502      192.006      132.231       56.285        0.280        0.019       71.695        4.603        0.004      335.360        5.940      861.177
01/11/2015  06:24:00      -20.669       87.424      -13.015       13.526       17.629       10.287      182.945      310.798      105.826        0.442        0.030       89.834        3.475        0.001      335.426        6.052      861.163
01/11/2015  06:25:00      -44.783       68.999      -11.181       29.348       25.254       11.670      861.312      637.778      136.198        0.426        0.082       82.258       12.849        0.024      335.414        6.032      861.168
01/11/2015  06:26:00      -75.915       57.648      -13.038       17.869       20.951       14.237      319.308      438.936      202.686        0.511        0.048       95.322       12.756        0.018      335.329        5.890      861.173
01/11/2015  06:27:00      -85.542       44.815      -12.386       18.145       22.161       17.786      329.258      491.098      316.358        0.531        0.057       96.570       12.683        0.017      335.311        5.858      861.173
01/11/2015  06:28:00      -56.585       26.644       -7.590       16.393       32.548       18.549      268.729     1059.368      344.078        0.282        0.084       62.544       14.851        0.056      335.264        5.781      861.162
01/11/2015  06:29:00      -52.960       54.687      -12.193       21.389       18.151       11.166      457.500      329.471      124.675        0.343        0.046       76.128        9.668        0.016      335.331        5.892      861.148
01/11/2015  06:30:00      -29.344       20.700       -6.305       16.432       15.399       11.888      270.023      237.144      141.322        0.099        0.032       35.911        9.558        0.071      335.336        5.903      861.149
01/11/2015  06:31:00       15.057       33.647       -2.714       15.281       19.558       10.505      233.524      382.517      110.356        0.105        0.036       36.862        9.379        0.065      335.478        6.138      861.145
01/11/2015  06:32:00       12.062       11.247        6.099       12.724        8.525        7.494      161.909       72.682       56.163        0.030        0.015       16.492        5.562        0.114      335.406        6.016      861.147
01/11/2015  06:33:00      -10.088       40.874       -5.727       15.377       18.036        7.272      236.447      325.298       52.882        0.121        0.031       42.100        3.905        0.009      335.481        6.142      861.146
01/11/2015  06:34:00      -35.679       -3.289       -3.209       12.104       22.538        7.781      146.515      507.949       60.539        0.100        0.036       35.830        5.538        0.024      335.268        5.787      861.162
01/11/2015  06:35:00      -51.563      -36.114       -6.195       13.407       12.331        9.156      179.743      152.049       83.825        0.221        0.021       62.952        2.640        0.002      335.111        5.529      861.196
01/11/2015  06:36:00      -23.925      -12.548       -3.414        5.570        8.510        8.500       31.025       72.418       72.250        0.046        0.009       27.016        6.258        0.054      335.123        5.549      861.199
01/11/2015  06:37:00      -50.561       -2.240       -3.866       18.372        5.881        7.854      337.544       34.581       61.686        0.151        0.022       50.611        8.817        0.030      335.216        5.703      861.207
01/11/2015  06:38:00      -95.159      -24.779      -15.853       19.939       11.104        8.633      397.556      123.304       74.531        0.526        0.030       98.333        3.540        0.001      335.204        5.680      861.237
01/11/2015  06:39:00     -108.938      -20.081      -10.143       19.804       14.349        9.181      392.201      205.906       84.297        0.653        0.034      110.773        8.378        0.006      335.150        5.591      861.256
01/11/2015  06:40:00      -87.642        2.411       -3.140       17.587       17.704       11.481      309.296      313.415      131.803        0.423        0.038       87.675       10.451        0.014      335.078        5.474      861.260
01/11/2015  06:41:00      -30.396       -2.898        0.941       25.543       15.237       12.074      652.451      232.152      145.789        0.098        0.052       30.534       12.245        0.161      335.150        5.592      861.263
01/11/2015  06:42:00      -11.519       -4.241        3.121       19.030       14.469       13.770      362.145      209.338      189.605        0.046        0.038       12.275       10.890        0.787      335.153        5.599      861.290
01/11/2015  06:43:00      -64.092        8.442        0.571       51.296       34.829       20.162     2631.307     1213.054      406.511        0.421        0.213       64.646       18.497        0.082      335.130        5.559      861.311
01/11/2015  06:44:00     -176.925       58.758       -8.405       45.406       31.411       20.441     2061.737      986.673      417.831        1.915        0.173      186.427       16.991        0.008      335.094        5.500      861.328
01/11/2015  06:45:00     -157.945       46.627       -8.762       36.928       32.944       26.524     1363.643     1085.337      703.514        1.517        0.158      164.683       16.410        0.010      335.014        5.367      861.335
01/11/2015  06:46:00     -168.654       26.430      -24.503       39.984       42.957       25.553     1598.681     1845.288      652.970        1.692        0.205      170.713       19.599        0.013      334.937        5.238      861.346
01/11/2015  06:47:00     -112.410        9.912      -14.042       35.469       46.096       20.787     1258.023     2124.828      432.090        0.837        0.191      112.846       13.349        0.014      334.959        5.276      861.362
01/11/2015  06:48:00      -96.665       33.541       -9.831       31.426       32.376       21.480      987.581     1048.177      461.376        0.653        0.125      102.319       13.823        0.018      334.961        5.280      861.369
01/11/2015  06:49:00     -123.169        7.034      -19.686       25.660       23.843       21.095      658.434      568.498      444.998        0.864        0.084      123.370       10.015        0.007      334.944        5.251      861.374
01/11/2015  06:50:00     -115.186       -5.954      -12.892       24.512       23.366       16.327      600.839      545.964      266.579        0.744        0.071      115.340       12.426        0.012      334.923        5.216      861.379
01/11/2015  06:51:00     -109.100      -12.090       -8.253       36.899       29.979       17.683     1361.571      898.730      312.677        0.734        0.129      109.768       17.925        0.027      334.926        5.220      861.387
01/11/2015  06:52:00      -79.095        7.962      -13.275       26.128       30.080       13.989      682.677      904.790      195.691        0.414        0.089       79.495       10.851        0.019      334.984        5.318      861.403
01/11/2015  06:53:00      -50.410       11.915       -7.634       19.946       18.681       13.398      397.830      348.993      179.494        0.183        0.046       51.799        4.629        0.008      335.086        5.486      861.418
01/11/2015  06:54:00      -47.325        4.769       -7.057       27.359       14.108        8.650      748.501      199.038       74.816        0.167        0.051       47.564        5.242        0.012      335.062        5.449      861.428
01/11/2015  06:55:00      -28.704       -6.942       -3.052       17.658       17.420       13.293      311.817      303.469      176.703        0.084        0.040       29.532       12.184        0.170      335.055        5.436      861.438
01/11/2015  06:56:00        7.306       -9.308        5.571       10.770       16.155       14.163      115.987      260.998      200.586        0.037        0.029       11.833       11.155        0.889      335.071        5.461      861.426
01/11/2015  06:57:00        5.454       32.344       21.715       11.175       24.857       14.481      124.874      617.879      209.708        0.125        0.048       32.801        8.677        0.070      335.313        5.865      861.410
01/11/2015  06:58:00       -8.586      -10.778        9.563        7.437       11.483        9.172       55.313      131.870       84.123        0.028        0.014       13.780        3.345        0.059      335.383        5.981      861.418
01/11/2015  06:59:00      -68.232       -8.541       -7.097       24.398        8.223        8.311      595.273       67.622       69.080        0.276        0.037       68.765       10.853        0.025      335.146        5.587      861.435
01/11/2015  07:00:00      -79.284      -36.158       -4.856       22.702       22.648       14.437      515.400      512.953      208.413        0.443        0.062       87.140        7.876        0.008      335.067        5.456      861.462
01/11/2015  07:01:00      -65.653      -33.168       -3.499       24.540       20.460        8.767      602.203      418.604       76.863        0.326        0.055       73.556        7.786        0.011      335.106        5.522      861.470
01/11/2015  07:02:00       -4.365        5.390       -2.634       11.882        6.907        6.123      141.186       47.707       37.490        0.014        0.011        6.936        6.196        0.798      335.141        5.581      861.446
01/11/2015  07:03:00       44.675       15.388        9.089       13.265        9.096        8.529      175.967       82.731       72.750        0.132        0.017       47.251        4.247        0.008      335.485        6.151      861.425
01/11/2015  07:04:00       32.135        4.739        8.102       17.979        8.078        8.991      323.246       65.257       80.831        0.079        0.023       32.483        8.691        0.072      335.416        6.034      861.423
01/11/2015  07:05:00        0.147       27.845       36.098        9.882       12.760        9.823       97.661      162.826       96.495        0.122        0.018       27.845        9.334        0.112      335.410        6.024      861.430
01/11/2015  07:06:00       15.933       17.234       27.515       16.488       13.168       11.482      271.852      173.397      131.841        0.094        0.029       23.470        9.514        0.164      335.472        6.127      861.429
01/11/2015  07:07:00        0.616        7.628       23.588        9.378       14.247       11.432       87.948      202.981      130.693        0.052        0.021        7.653       10.540        1.897      335.465        6.116      861.441
01/11/2015  07:08:00      -45.988      -29.521        0.014       15.161        7.518        8.035      229.868       56.518       64.557        0.167        0.018       54.648        4.771        0.008      335.280        5.807      861.460
01/11/2015  07:09:00      -85.156      -49.984        0.804       34.772       27.956       15.889     1209.102      781.550      252.459        0.600        0.112       98.742       11.113        0.013      335.166        5.620      861.487
01/11/2015  07:10:00     -103.093      -22.623        0.597       35.078       27.496       18.393     1230.457      756.033      338.287        0.673        0.116      105.546       17.721        0.028      335.185        5.650      861.491
01/11/2015  07:11:00      -73.655      -12.496       -0.993       25.544       20.941       18.546      652.482      438.518      343.956        0.351        0.072       74.708       17.274        0.053      335.303        5.846      861.477
01/11/2015  07:12:00      -66.246      -31.443       -7.675       13.086       11.347       10.002      171.247      128.750      100.035        0.292        0.020       73.330        5.456        0.006      335.375        5.966      861.481
01/11/2015  07:13:00      -54.695      -17.214        0.428       16.968       16.906       11.710      287.902      285.798      137.117        0.200        0.036       57.340        7.858        0.019      335.400        6.008      861.470
01/11/2015  07:14:00      -45.266      -13.943       -4.975       18.783       17.114       11.921      352.790      292.893      142.109        0.153        0.039       47.365        7.714        0.027      335.439        6.072      861.457
01/11/2015  07:15:00      -43.623      -22.026       -2.481       19.159       16.693        8.640      367.058      278.642       74.655        0.156        0.036       48.868        9.150        0.035      335.411        6.023      861.448
01/11/2015  07:16:00      -16.350       -4.010        2.148       11.140       10.245        6.403      124.089      104.950       40.997        0.028        0.014       16.835        7.498        0.198      335.388        5.988      861.426
01/11/2015  07:17:00       -5.560       26.603       16.676        5.884       12.036       15.986       34.618      144.862      255.540        0.073        0.022       27.178       10.064        0.137      335.457        6.104      861.408
01/11/2015  07:18:00       -0.394       36.180       10.855       24.721       10.366       18.625      611.132      107.457      346.908        0.125        0.053       36.182       19.661        0.295      335.520        6.209      861.407
01/11/2015  07:19:00      -57.241        8.890       -3.504       19.327       17.118        6.781      373.546      293.042       45.978        0.204        0.036       57.927        5.807        0.010      335.412        6.029      861.422
01/11/2015  07:20:00      -84.455       12.933       -6.810       20.893       12.725       12.141      436.525      161.922      147.408        0.405        0.037       85.439       11.174        0.017      335.170        5.626      861.438
01/11/2015  07:21:00      -20.910       18.359        7.948       21.633       21.371       13.569      467.981      456.741      184.128        0.097        0.055       27.826       10.413        0.140      335.202        5.679      861.442
01/11/2015  07:22:00      -22.445       -5.394        0.247       22.978       17.549       14.025      527.968      307.950      196.705        0.078        0.052       23.084       10.623        0.212      335.240        5.741      861.456
01/11/2015  07:23:00     -102.484      -12.682       -4.224       44.407       27.486       17.133     1971.940      755.455      293.540        0.685        0.151      103.266       15.856        0.024      335.102        5.514      861.488
01/11/2015  07:24:00      -52.802      -20.614        1.718       21.139       19.041       14.879      446.871      362.564      221.375        0.212        0.052       56.683       12.791        0.051      335.080        5.477      861.504
01/11/2015  07:25:00      -63.484      -11.655       -9.439       13.944       11.748        8.501      194.438      138.023       72.259        0.233        0.020       64.545        5.033        0.006      335.061        5.449      861.509
01/11/2015  07:26:00      -54.611        6.071       -9.403       23.684       14.194       11.506      560.945      201.460      132.387        0.200        0.045       54.948        6.538        0.014      335.101        5.512      861.523
01/11/2015  07:27:00      -55.444       24.846      -14.832       18.262       21.710       10.954      333.513      471.337      119.987        0.242        0.046       60.756       10.754        0.031      335.138        5.573      861.526
01/11/2015  07:28:00      -80.263       44.618      -14.382       22.109       23.722       12.487      488.791      562.717      155.930        0.492        0.060       91.831       10.551        0.013      335.068        5.459      861.534
01/11/2015  07:29:00     -108.560       62.058      -24.001       25.639       37.193       20.004      657.352     1383.315      400.148        0.933        0.122      125.046       15.098        0.015      335.005        5.353      861.543
01/11/2015  07:30:00      -73.866       23.472      -12.963       25.138       23.603       15.946      631.921      557.090      254.286        0.381        0.072       77.506       12.464        0.026      335.044        5.416      861.534
01/11/2015  07:31:00      -41.081       -0.266      -16.948       28.402       11.041       20.314      806.652      121.895      412.644        0.166        0.067       41.081       19.539        0.226      335.098        5.508      861.543
01/11/2015  07:32:00        8.055       43.231        3.789       14.506       17.504       14.446      210.417      306.404      208.689        0.134        0.036       43.975       10.952        0.062      335.159        5.606      861.544
01/11/2015  07:33:00      -18.895       18.046        2.015       19.424       13.500        9.450      377.305      182.254       89.303        0.067        0.032       26.128        6.981        0.071      335.136        5.570      861.559
01/11/2015  07:34:00      -66.655        9.728       -6.941       18.981       13.774       10.430      360.268      189.711      108.788        0.262        0.033       67.361        5.540        0.007      335.109        5.525      861.577
01/11/2015  07:35:00      -41.392       11.330       -1.732       36.355       21.273       15.338     1321.672      452.540      235.267        0.193        0.100       42.914       20.178        0.221      335.070        5.461      861.581
01/11/2015  07:36:00       21.810       19.145       -2.249       26.750       18.945        9.660      715.552      358.903       93.307        0.101        0.058       29.021        9.967        0.118      335.206        5.685      861.546
01/11/2015  07:37:00       77.147       65.394       10.135       20.083       10.251       18.797      403.316      105.076      353.313        0.560        0.043      101.134       11.290        0.012      335.283        5.814      861.517
01/11/2015  07:38:00       43.679       23.960       11.263       25.896       23.333       11.296      670.585      544.428      127.598        0.198        0.067       49.819        9.600        0.037      335.277        5.802      861.520
01/11/2015  07:39:00       31.853        8.983        8.937       13.002       11.664       13.600      169.055      136.039      184.947        0.083        0.025       33.096        7.484        0.051      335.294        5.831      861.525
01/11/2015  07:40:00       74.094       36.004       11.539       18.261       11.803       12.624      333.479      139.314      159.373        0.378        0.032       82.379        8.438        0.010      335.273        5.797      861.524
01/11/2015  07:41:00       56.843       44.728       30.664       28.950       21.954       25.050      838.131      481.974      627.478        0.406        0.097       72.330       23.698        0.107      335.231        5.725      861.532
01/11/2015  07:42:00       69.817       33.923       20.258       18.541       16.873       17.199      343.772      284.695      295.804        0.368        0.046       77.621       14.045        0.033      335.229        5.721      861.548
01/11/2015  07:43:00       79.204       39.978        7.951       25.926       17.642       17.186      672.179      311.238      295.356        0.461        0.064       88.722       10.050        0.013      335.256        5.767      861.575
01/11/2015  07:44:00       82.182       34.463       11.058       19.520       13.206       18.859      381.047      174.393      355.674        0.449        0.046       89.115       12.172        0.019      335.223        5.713      861.602
01/11/2015  07:45:00       82.802       38.354       10.809       12.852       13.969       12.903      165.170      195.145      166.500        0.449        0.026       91.254        8.351        0.008      335.241        5.744      861.634
01/11/2015  07:46:00       69.008       32.287       12.030       18.310       14.058       12.146      335.272      197.639      147.522        0.331        0.034       76.188       10.745        0.020      335.249        5.755      861.654
01/11/2015  07:47:00       49.394       34.502       33.476       11.074       15.183       15.778      122.626      230.530      248.943        0.268        0.030       60.251        5.171        0.007      335.231        5.726      861.667
01/11/2015  07:48:00       48.334       26.323       29.938       17.793       18.331       18.647      316.599      336.035      347.710        0.246        0.050       55.037       11.318        0.042      335.290        5.824      861.669
01/11/2015  07:49:00       53.435       28.328       41.889       29.189       19.154       16.849      851.983      366.879      283.881        0.346        0.075       60.480       14.883        0.061      335.309        5.855      861.663
01/11/2015  07:50:00       55.600       22.936       33.230       31.730       24.571       27.198     1006.798      603.757      739.704        0.354        0.118       60.145       17.687        0.086      335.337        5.902      861.657
01/11/2015  07:51:00       47.584       47.606       51.202       25.964       28.466       19.521      674.143      810.294      381.069        0.451        0.093       67.310       17.589        0.068      335.402        6.010      861.645
01/11/2015  07:52:00       42.609       30.272       32.255       39.607       33.328       25.554     1568.682     1110.753      653.032        0.355        0.167       52.268       18.506        0.125      335.411        6.025      861.638
01/11/2015  07:53:00       58.343       44.743       58.964       27.326       26.985       22.630      746.703      728.201      512.125        0.543        0.099       73.525       18.430        0.063      335.413        6.031      861.636
01/11/2015  07:54:00       60.853       47.646       67.005       33.030       29.738       23.517     1090.979      884.362      553.055        0.650        0.126       77.287       17.355        0.050      335.411        6.026      861.638
01/11/2015  07:55:00       43.823       72.411       77.602       26.430       25.194       17.159      698.548      634.752      294.431        0.741        0.081       84.639       11.878        0.020      335.406        6.020      861.653
01/11/2015  07:56:00       29.888       59.919       67.336       38.774       33.782       27.014     1503.431     1141.219      729.770        0.620        0.169       66.960       23.753        0.126      335.447        6.087      861.675
01/11/2015  07:57:00       -5.990       21.768       64.600       17.290       38.172       23.719      298.960     1457.074      562.605        0.350        0.116       22.577       23.527        1.086      335.462        6.112      861.705
01/11/2015  07:58:00        7.986        7.801       42.534       19.600       20.525       15.635      384.159      421.267      244.450        0.149        0.052       11.163       10.560        0.895      335.480        6.142      861.732
01/11/2015  07:59:00       21.922       31.083       38.766       31.865       34.144       22.329     1015.405     1165.823      498.595        0.281        0.134       38.036       22.975        0.365      335.386        5.983      861.745
01/11/2015  08:00:00       44.869       45.821       50.224       42.638       25.581       14.104     1817.961      654.375      198.923        0.465        0.134       64.131        8.846        0.019      335.302        5.844      861.751
01/11/2015  08:01:00       27.387       -9.826       18.992       19.266       24.682       19.472      371.175      609.200      379.169        0.128        0.068       29.096       13.876        0.227      335.403        6.012      861.753
01/11/2015  08:02:00       32.167      -26.116        5.827       32.613       37.924       25.631     1063.636     1438.264      656.952        0.245        0.158       41.434       18.057        0.190      335.378        5.971      861.747
01/11/2015  08:03:00       23.195       11.186       23.299       27.589       24.820       22.761      761.135      616.029      518.054        0.155        0.095       25.752       17.538        0.464      335.365        5.950      861.739
01/11/2015  08:04:00        2.721       20.446       28.579       17.767       34.113       28.258      315.662     1163.675      798.512        0.176        0.114       20.626       19.866        0.928      335.335        5.900      861.733
01/11/2015  08:05:00       40.195       36.844       38.717       37.003       21.803       19.148     1369.187      475.369      366.627        0.334        0.111       54.527       15.411        0.080      335.283        5.814      861.734
01/11/2015  08:06:00       71.692       42.951       18.940       17.898       16.563       13.547      320.326      274.334      183.533        0.406        0.039       83.573       11.116        0.018      335.228        5.719      861.759
01/11/2015  08:07:00       56.253       24.597       -1.036       18.793       15.499       13.544      353.160      240.227      183.442        0.227        0.039       61.396        7.701        0.016      335.197        5.669      861.800
01/11/2015  08:08:00       25.421       27.513        1.351       16.862       13.649       10.238      284.320      186.303      104.826        0.099        0.029       37.459        8.467        0.051      335.211        5.691      861.837
01/11/2015  08:09:00       45.496       28.854        6.330       29.144       21.337       13.797      849.395      455.255      190.370        0.222        0.075       53.874       10.231        0.036      335.221        5.708      861.858
01/11/2015  08:10:00      104.488       44.674        2.990       25.043       20.932       19.991      627.149      438.162      399.657        0.719        0.073      113.637       12.131        0.011      335.157        5.605      861.860
01/11/2015  08:11:00       86.156       45.238        4.407       22.962       21.960       20.834      527.235      482.223      434.069        0.547        0.072       97.311       14.103        0.021      335.112        5.529      861.856
01/11/2015  08:12:00       62.763       34.420       18.693       21.105       19.991       22.063      445.436      399.634      486.770        0.340        0.067       71.582       13.829        0.037      335.129        5.558      861.843
01/11/2015  08:13:00       69.961       33.747       18.155       21.448       19.155       22.534      460.008      366.905      507.803        0.385        0.067       77.675       16.053        0.043      335.152        5.596      861.827
01/11/2015  08:14:00       83.997       48.720       27.961       24.484       20.864       24.121      599.449      435.314      581.835        0.591        0.081       97.104       16.805        0.030      335.129        5.559      861.810
01/11/2015  08:15:00       83.465       65.013       45.347       37.379       24.981       26.419     1397.224      624.068      697.965        0.798        0.136      105.798       22.304        0.044      335.162        5.613      861.789
01/11/2015  08:16:00       79.626       48.924       50.557       46.742       32.944       35.871     2184.773     1085.318     1286.760        0.792        0.228       93.455       27.749        0.088      335.154        5.600      861.773
01/11/2015  08:17:00       63.542       20.196       14.493       53.665       36.557       29.502     2879.983     1336.439      870.397        0.487        0.254       66.675       17.328        0.068      335.119        5.542      861.764
01/11/2015  08:18:00       56.606       34.065       11.568       26.717       25.676       18.475      713.818      659.272      341.310        0.311        0.086       66.065        7.455        0.013      335.143        5.580      861.766
01/11/2015  08:19:00       19.951       30.802        4.996       33.538       20.734       17.981     1124.813      429.917      323.316        0.162        0.094       36.699       15.068        0.169      335.149        5.591      861.791
01/11/2015  08:20:00       23.154       60.227       -3.528       20.250       24.795       17.649      410.081      614.813      311.494        0.276        0.067       64.524       13.837        0.046      335.153        5.598      861.823
01/11/2015  08:21:00       42.187       29.622        2.106       21.740       17.533       14.090      472.644      307.390      198.539        0.182        0.049       51.548        5.241        0.010      335.154        5.599      861.858
01/11/2015  08:22:00       48.720       30.934        4.400       16.946       18.772       17.966      287.159      352.370      322.790        0.216        0.048       57.711        5.757        0.010      335.227        5.720      861.880
01/11/2015  08:23:00       43.892       33.763       11.654       14.236       19.952       15.024      202.655      398.087      225.722        0.201        0.041       55.376        1.959        0.001      335.252        5.759      861.897
01/11/2015  08:24:00        5.208       35.223       -0.036       21.677       22.666       15.533      469.907      513.732      241.285        0.125        0.061       35.606       14.161        0.158      335.263        5.780      861.914
01/11/2015  08:25:00      -12.851       48.582       -9.221       11.630       15.921        9.593      135.268      253.469       92.021        0.155        0.024       50.253        7.595        0.023      335.168        5.622      861.941
01/11/2015  08:26:00      -13.358       11.920        1.937       15.468       13.957       10.573      239.269      194.789      111.784        0.043        0.027       17.903        9.459        0.279      335.213        5.698      861.962
01/11/2015  08:27:00       -6.979       18.273        0.396       17.176       18.268        9.821      295.001      333.728       96.443        0.055        0.036       19.560        4.979        0.065      335.240        5.742      861.967
01/11/2015  08:28:00        9.574       55.090       -9.159        7.550       13.956        7.956       56.999      194.766       63.303        0.176        0.016       55.916        5.693        0.010      335.141        5.577      861.972
01/11/2015  08:29:00       -4.609       28.808       -9.046        7.119        7.001        5.924       50.687       49.017       35.098        0.053        0.007       29.174        5.581        0.037      335.154        5.597      861.991
01/11/2015  08:30:00       -7.015        8.563        3.110        5.982       12.317        8.051       35.784      151.702       64.824        0.019        0.013       11.070        4.787        0.187      335.305        5.849      861.997
01/11/2015  08:31:00      -29.829       11.607        1.133       12.056        5.776        6.974      145.340       33.358       48.643        0.063        0.011       32.008        6.966        0.047      335.206        5.683      862.029
01/11/2015  08:32:00       -6.882        5.013       10.204       15.077        5.968        9.616      227.302       35.621       92.474        0.027        0.018        8.515       10.968        1.659      335.352        5.928      862.038
01/11/2015  08:33:00       45.639       35.827        6.458       18.156       15.660       15.623      329.625      245.250      244.082        0.211        0.041       58.021       11.666        0.040      335.238        5.738      862.052
01/11/2015  08:34:00       63.883       39.670        5.366       25.601       17.785       18.825      655.391      316.312      354.373        0.350        0.066       75.199        8.224        0.012      335.226        5.717      862.059
01/11/2015  08:35:00       21.283       29.383       20.617       18.579       14.738       17.326      345.193      217.218      300.176        0.130        0.043       36.281       11.327        0.097      335.285        5.816      862.075
01/11/2015  08:36:00       15.392       18.833        6.200       12.801       16.717       15.782      163.863      279.447      249.082        0.066        0.035       24.323       13.566        0.311      335.370        5.957      862.102
01/11/2015  08:37:00       31.994       31.227        6.996       15.928       11.787       11.532      253.694      138.932      132.997        0.129        0.026       44.708        5.533        0.015      335.282        5.810      862.117
01/11/2015  08:38:00       46.990       39.437        2.296        9.964        7.724        8.591       99.289       59.655       73.812        0.200        0.012       61.346        6.087        0.010      335.232        5.725      862.141
01/11/2015  08:39:00       15.717       18.449        7.307       15.160        9.565        8.238      229.824       91.481       67.860        0.051        0.019       24.236        7.042        0.084      335.360        5.942      862.154
01/11/2015  08:40:00      -11.252       18.362       -6.187        9.404       14.428        7.363       88.430      208.169       54.213        0.043        0.018       21.535        8.917        0.171      335.349        5.922      862.169
01/11/2015  08:41:00      -51.655        9.982       -6.484       21.853       16.847       10.596      477.573      283.837      112.270        0.184        0.044       52.610        7.875        0.022      335.326        5.885      862.178
01/11/2015  08:42:00     -108.823       22.443      -11.710       30.582       24.188       18.295      935.258      585.038      334.710        0.717        0.093      111.113       18.226        0.027      335.325        5.884      862.185
01/11/2015  08:43:00      -98.288       16.795      -17.424       28.643       20.635       17.207      820.437      425.791      296.072        0.589        0.077       99.712        3.053        0.001      335.371        5.960      862.197
01/11/2015  08:44:00      -90.059      -24.355       -9.887       42.250       42.609       15.856     1785.075     1815.498      251.400        0.633        0.193       93.294       11.963        0.016      335.358        5.937      862.215
01/11/2015  08:45:00      -78.518       16.764       -9.964       36.051       26.831       20.163     1299.698      719.896      406.555        0.449        0.121       80.288       18.924        0.056      335.407        6.018      862.213
01/11/2015  08:46:00      -87.246      -18.643      -14.062       29.557       32.488       18.052      873.637     1055.481      325.873        0.521        0.113       89.216       16.307        0.033      335.446        6.086      862.226
01/11/2015  08:47:00      -74.697      -28.371       -3.379       28.637       30.690       19.644      820.103      941.907      385.882        0.427        0.107       79.903       16.695        0.044      335.480        6.141      862.231
01/11/2015  08:48:00      -89.990      -37.655        0.770       26.224       28.458       23.570      687.695      809.852      555.538        0.578        0.103       97.550       19.967        0.042      335.473        6.130      862.250
01/11/2015  08:49:00      -95.731       -6.988      -12.361       36.713       28.989       18.342     1347.819      840.345      336.421        0.594        0.126       95.986       18.091        0.036      335.546        6.252      862.258
01/11/2015  08:50:00      -49.817       -2.867        5.570       32.093       15.886       15.039     1029.972      252.355      226.162        0.201        0.075       49.899       17.915        0.129      335.673        6.463      862.281
01/11/2015  08:51:00      -19.592      -17.221        5.749       30.481       20.168       13.676      929.120      406.739      187.029        0.112        0.076       26.085       14.316        0.301      335.802        6.679      862.296
01/11/2015  08:52:00     -114.388      -39.113       -4.299       31.204       23.941       18.664      973.658      573.172      348.359        0.826        0.095      120.890       18.369        0.023      335.648        6.422      862.289
01/11/2015  08:53:00     -103.684      -14.556       -5.279       24.189       20.393       19.529      585.124      415.874      381.394        0.619        0.069      104.701       16.860        0.026      335.692        6.495      862.283
01/11/2015  08:54:00      -84.864       15.993       -7.935       17.527       22.569       12.986      307.211      509.357      168.623        0.425        0.049       86.357        9.480        0.012      335.710        6.526      862.266
01/11/2015  08:55:00      -74.173       13.696      -13.211       15.857       20.684        8.124      251.454      427.840       65.994        0.330        0.037       75.427        8.837        0.014      335.788        6.657      862.251
01/11/2015  08:56:00      -65.230        3.519      -12.817       19.648       15.381       10.850      386.063      236.588      117.722        0.259        0.037       65.325        7.172        0.012      335.794        6.666      862.237
01/11/2015  08:57:00      -25.115       -6.289       -3.718       10.623       13.224       10.061      112.857      174.885      101.216        0.054        0.019       25.890        6.753        0.068      335.894        6.832      862.225
01/11/2015  08:58:00      -22.162       -8.307       -4.177       14.438        6.859        9.483      208.467       47.050       89.932        0.046        0.017       23.668        5.059        0.046      335.965        6.950      862.228
01/11/2015  08:59:00      -45.070       10.960      -13.244       18.611       16.962       12.559      346.380      287.707      157.734        0.156        0.040       46.383       12.195        0.069      335.871        6.794      862.241
01/11/2015  09:00:00      -41.088       24.242       -5.892       21.880       32.668       13.749      478.736     1067.212      189.022        0.202        0.087       47.706       16.764        0.123      335.872        6.795      862.271
01/11/2015  09:01:00      -60.808        2.976      -10.889       29.038       35.472       11.758      843.219     1258.281      138.252        0.303        0.112       60.881       11.197        0.034      335.863        6.781      862.296
01/11/2015  09:02:00      -68.393       -8.742        0.115       27.066       32.888       16.774      732.570     1081.639      281.371        0.342        0.105       68.950        7.580        0.012      335.815        6.700      862.331
01/11/2015  09:03:00      -81.790      -25.685      -13.000       20.175       20.222       13.790      407.046      408.918      190.163        0.426        0.050       85.728        9.568        0.012      335.868        6.788      862.356
01/11/2015  09:04:00      -87.600      -24.288      -11.016       18.839       22.084       14.379      354.890      487.710      206.768        0.472        0.052       90.905        9.710        0.011      335.800        6.676      862.367
01/11/2015  09:05:00      -56.814      -19.240       -5.636       24.690       20.939       10.625      609.597      438.424      112.884        0.240        0.058       59.984       13.782        0.053      335.885        6.815      862.375
01/11/2015  09:06:00      -55.600      -32.396       -6.776       21.203       16.961       11.784      449.552      287.669      138.863        0.253        0.044       64.349        8.376        0.017      335.913        6.864      862.372
01/11/2015  09:07:00      -44.456      -20.212       -0.421       25.044       15.411       12.112      627.190      237.507      146.711        0.170        0.051       48.835       12.812        0.069      335.973        6.964      862.371
01/11/2015  09:08:00      -40.221       12.312      -12.341       16.324       26.332        8.289      266.475      693.379       68.705        0.147        0.051       42.063        9.611        0.052      335.959        6.940      862.362
01/11/2015  09:09:00      -56.263       -9.529       -8.808       16.918       13.544       12.268      286.231      183.430      150.514        0.198        0.031       57.064        9.981        0.031      335.972        6.960      862.362
01/11/2015  09:10:00      -45.463      -32.350       -4.146       17.913       13.140        9.647      320.884      172.659       93.061        0.186        0.029       55.799        6.612        0.014      336.003        7.014      862.362
01/11/2015  09:11:00      -37.054      -23.515        6.194       27.499       17.866       17.434      756.219      319.191      303.939        0.167        0.069       43.885       16.517        0.142      336.117        7.201      862.369
01/11/2015  09:12:00      -94.847      -50.004      -10.271       23.886       17.499       13.730      570.544      306.216      188.525        0.633        0.053      107.221       12.673        0.014      336.078        7.138      862.389
01/11/2015  09:13:00     -142.428      -54.889       -7.748       24.028       19.308       17.258      577.348      372.800      297.821        1.230        0.062      152.639       10.876        0.005      336.064        7.114      862.406
01/11/2015  09:14:00      -82.008      -32.374        1.120       28.628       19.738       15.057      819.582      389.607      226.704        0.461        0.072       88.167        7.601        0.007      336.073        7.129      862.421
01/11/2015  09:15:00      -65.978      -56.318        4.533       49.918       39.877       25.052     2491.785     1590.200      627.600        0.613        0.235       86.746       28.405        0.107      336.221        7.376      862.438
01/11/2015  09:16:00      -38.322      -47.658       11.445       50.982       47.628       29.515     2599.137     2268.426      871.145        0.480        0.287       61.154       31.109        0.259      336.264        7.449      862.456
01/11/2015  09:17:00      -98.059      -69.779       -9.048       29.743       32.568       19.869      884.638     1060.696      394.761        0.845        0.117      120.353       12.595        0.011      336.155        7.266      862.469
01/11/2015  09:18:00      -55.751      -75.778        2.862       43.523       34.436       27.697     1894.289     1185.830      767.101        0.635        0.192       94.077       29.195        0.096      336.210        7.358      862.482
01/11/2015  09:19:00      -85.793      -70.679       -2.216       53.565       34.977       24.339     2869.183     1223.375      592.401        0.852        0.234      111.158       33.974        0.093      336.160        7.276      862.480
01/11/2015  09:20:00      -39.654      -51.732       -9.804       15.977       15.411        9.660      255.271      237.500       93.317        0.247        0.029       65.181        9.628        0.022      336.162        7.279      862.481
01/11/2015  09:21:00      -65.140      -51.309        3.055       38.815       19.994       20.280     1506.576      399.747      411.273        0.460        0.116       82.921       19.839        0.057      336.269        7.456      862.488
01/11/2015  09:22:00      -34.791      -27.647       14.342       41.870       22.877       24.006     1753.099      523.337      576.267        0.252        0.143       44.438       19.900        0.201      336.481        7.812      862.497
01/11/2015  09:23:00      -43.694      -67.745       -0.202       49.286       35.258       26.961     2429.077     1243.104      726.898        0.545        0.220       80.613       21.815        0.073      336.339        7.575      862.508
01/11/2015  09:24:00      -39.206      -24.870       12.401       39.095       37.653       23.254     1528.435     1417.762      540.745        0.290        0.174       46.429       21.184        0.208      336.456        7.770      862.508
01/11/2015  09:25:00       13.869       25.542        3.863       29.850       28.057       24.640      891.008      787.180      607.124        0.157        0.114       29.065       14.959        0.265      336.668        8.125      862.511
01/11/2015  09:26:00      -13.953       26.762        5.324       26.933       26.694       23.969      725.406      712.561      574.510        0.148        0.101       30.181       17.508        0.337      336.696        8.172      862.513
01/11/2015  09:27:00      -20.612       21.457       -5.077       13.743       26.127       18.176      188.871      682.636      330.375        0.106        0.060       29.753       10.879        0.134      336.619        8.043      862.506
01/11/2015  09:28:00      -48.233       -4.835        4.821       27.667       32.142       17.534      765.463     1033.127      307.439        0.224        0.105       48.475        9.970        0.042      336.508        7.858      862.511
01/11/2015  09:29:00      -45.651       11.481        8.890       21.757       15.587        8.880      473.346      242.968       78.846        0.154        0.040       47.072        8.954        0.036      336.391        7.660      862.514
01/11/2015  09:30:00        8.362       14.085       28.610       15.423       13.641        8.511      237.878      186.073       72.442        0.079        0.025       16.380        7.516        0.211      337.054        8.771      862.506
01/11/2015  09:31:00        2.587        6.567       25.869        9.617       14.996        6.848       92.488      224.892       46.898        0.054        0.018        7.058        3.108        0.194      337.279        9.145      862.510
01/11/2015  09:32:00       14.436       12.181       20.918       21.204       27.025       22.149      449.609      730.347      490.586        0.123        0.084       18.889       18.248        0.933      337.079        8.811      862.502
01/11/2015  09:33:00       10.902       39.171       45.903       30.843       33.655       30.672      951.316     1132.645      940.791        0.339        0.151       40.660       25.203        0.384      337.039        8.746      862.509
01/11/2015  09:34:00       18.865       61.475        7.135       21.417       35.066       21.738      458.676     1229.592      472.529        0.317        0.108       64.305       17.554        0.075      336.899        8.509      862.515
01/11/2015  09:35:00       19.222       13.124        9.392       16.568       18.558       17.813      274.496      344.411      317.287        0.078        0.047       23.274       13.858        0.355      336.908        8.526      862.529
01/11/2015  09:36:00       40.274       28.757        2.644       32.043       21.435       28.722     1026.760      459.473      824.974        0.238        0.116       49.487       18.488        0.140      336.841        8.412      862.543
01/11/2015  09:37:00       94.084       63.853       10.023       30.183       25.135       29.266      910.997      631.766      856.508        0.771        0.120      113.706       22.826        0.040      336.572        7.964      862.560
01/11/2015  09:38:00      116.465       72.804       12.801       40.326       27.101       32.459     1626.214      734.472     1053.583        1.122        0.171      137.348       25.693        0.035      336.613        8.031      862.576
01/11/2015  09:39:00       76.574       67.247        7.881       26.927       15.990       23.981      725.055      255.687      575.105        0.600        0.078      101.910        7.433        0.005      336.671        8.131      862.587
01/11/2015  09:40:00       28.702       42.754       29.248       36.233       37.162       27.240     1312.817     1381.012      742.025        0.347        0.172       51.495       17.507        0.116      337.138        8.909      862.596
01/11/2015  09:41:00       32.009       72.320       57.903       34.379       35.963       36.140     1181.947     1293.304     1306.112        0.669        0.189       79.087       28.233        0.127      336.923        8.550      862.601
01/11/2015  09:42:00       11.635       68.674       79.846       33.516       27.856       21.006     1123.298      775.952      441.239        0.678        0.117       69.653       20.034        0.083      337.059        8.777      862.605
01/11/2015  09:43:00       13.449       54.328       81.949       40.547       50.384       35.589     1644.027     2538.552     1266.545        0.765        0.272       55.968       24.373        0.190      337.314        9.205      862.618
01/11/2015  09:44:00       41.706       37.832       33.170       58.922       63.076       41.050     3471.795     3978.604     1685.135        0.670        0.457       56.309       37.062        0.433      337.112        8.867      862.634
01/11/2015  09:45:00       33.581       68.524       81.572       42.905       48.421       31.338     1840.841     2344.640      982.077        0.882        0.258       76.310       27.513        0.130      337.216        9.041      862.641
01/11/2015  09:46:00        3.282        6.063       54.811       27.065       49.599       23.957      732.501     2460.039      573.938        0.341        0.188        6.894       25.861       14.071      337.306        9.190      862.649
01/11/2015  09:47:00       28.742       54.402       56.055       51.082       30.278       34.012     2609.376      916.741     1156.788        0.580        0.234       61.528       36.185        0.346      337.103        8.851      862.658
01/11/2015  09:48:00       92.811       62.203       15.895       55.836       37.324       28.606     3117.696     1393.059      818.282        0.903        0.266      111.728       13.366        0.014      336.944        8.586      862.654
01/11/2015  09:49:00      137.150      103.759       21.213       29.663       23.845       23.950      879.866      568.581      573.598        1.602        0.101      171.977       15.807        0.008      336.687        8.157      862.647
01/11/2015  09:50:00       30.429       35.662       10.217       38.339       40.370       30.824     1469.850     1629.755      950.123        0.318        0.202       46.880       23.281        0.247      337.059        8.777      862.640
01/11/2015  09:51:00       66.587       81.464       75.009       59.300       45.763       47.529     3516.482     2094.256     2259.043        1.228        0.393      105.215       45.613        0.188      337.179        8.978      862.636
01/11/2015  09:52:00       31.171       90.033      100.231       44.800       55.095       32.646     2007.010     3035.439     1065.767        1.261        0.305       95.277       27.297        0.082      337.016        8.706      862.627
01/11/2015  09:53:00       60.152       78.965       71.756       49.466       42.933       28.573     2446.840     1843.273      816.392        1.005        0.255       99.266       19.235        0.038      336.963        8.617      862.630
01/11/2015  09:54:00       51.406       20.455       60.437       39.764       89.866       40.705     1581.211     8075.930     1656.909        0.901        0.566       55.327       47.335        0.732      337.051        8.765      862.629
01/11/2015  09:55:00       32.400       51.808       26.115       57.481       32.317       24.855     3304.119     1044.387      617.759        0.469        0.248       61.105       16.775        0.075      336.883        8.484      862.619
01/11/2015  09:56:00       11.586       48.674       77.553       45.317       56.308       42.489     2053.654     3170.617     1805.317        0.777        0.351       50.034       35.047        0.491      337.209        9.029      862.620
01/11/2015  09:57:00       94.385      113.489       73.687       46.398       41.023       43.960     2152.772     1682.859     1932.452        1.649        0.288      147.608       35.364        0.057      336.941        8.581      862.625
01/11/2015  09:58:00       78.616       29.780       21.809       22.439       64.977       21.514      503.530     4221.975      462.860        0.636        0.259       84.067       21.132        0.063      336.839        8.410      862.620
01/11/2015  09:59:00       49.346      -61.671       32.325       44.446       66.099       37.601     1975.464     4369.115     1413.843        0.752        0.388       78.983       35.247        0.199      337.313        9.202      862.619
01/11/2015  10:00:00       30.416      -60.315       32.627       45.437       67.885       46.871     2064.526     4608.423     2196.854        0.725        0.443       67.550       40.382        0.357      337.486        9.491      862.622
01/11/2015  10:01:00       40.302       56.876       78.796       41.836       44.619       28.900     1750.238     1990.834      835.207        0.782        0.229       69.708       26.197        0.141      337.172        8.967      862.632
01/11/2015  10:02:00       32.264       20.277       36.273       32.621       26.695       22.377     1064.135      712.614      500.741        0.252        0.114       38.107       18.269        0.230      337.189        8.995      862.641
01/11/2015  10:03:00       77.541       63.913       38.322       30.680       23.285       32.471      941.234      542.179     1054.347        0.705        0.127      100.486       13.569        0.018      337.168        8.960      862.642
01/11/2015  10:04:00       15.045       30.812       21.023       33.864       22.333       27.057     1146.748      498.748      732.094        0.200        0.119       34.289       18.539        0.292      337.385        9.322      862.639
01/11/2015  10:05:00       35.978       28.563       36.805       49.654       38.747       22.485     2465.540     1501.303      505.577        0.397        0.224       45.937        8.187        0.032      337.532        9.569      862.638
01/11/2015  10:06:00      -11.290        6.751       23.290       19.113       18.621       15.092      365.297      346.729      227.755        0.083        0.047       13.154        9.782        0.553      337.864       10.126      862.643
01/11/2015  10:07:00      -20.845      -12.297        0.290       16.950       13.407       10.544      287.309      179.739      111.175        0.058        0.029       24.202        5.055        0.044      337.398        9.345      862.641
01/11/2015  10:08:00       21.880       30.599       39.796       30.527       30.328       21.195      931.901      919.785      449.236        0.265        0.115       37.617       15.246        0.164      337.929       10.234      862.639
01/11/2015  10:09:00       10.017      -36.631       21.642       31.440       55.541       36.261      988.491     3084.774     1314.864        0.365        0.269       37.976       42.416        1.247      337.670        9.802      862.639
01/11/2015  10:10:00       65.624      -54.603       -3.442       35.705       45.729       34.674     1274.818     2091.176     1202.252        0.593        0.228       85.370       28.362        0.110      337.286        9.157      862.645
01/11/2015  10:11:00       22.466       51.277       68.886       48.897       36.438       45.461     2390.921     1327.717     2066.683        0.683        0.289       55.983       39.035        0.486      337.484        9.489      862.631
01/11/2015  10:12:00       44.359       43.223       47.160       61.732       36.175       26.203     3810.782     1308.597      686.590        0.593        0.290       61.935       26.198        0.179      337.419        9.380      862.623
01/11/2015  10:13:00       79.690       52.152       14.815       34.449       22.978       26.453     1186.739      528.010      699.785        0.585        0.121       95.238       16.321        0.029      337.415        9.374      862.606
01/11/2015  10:14:00       16.044       88.547        9.117       29.659       32.541       35.468      879.656     1058.948     1257.976        0.569        0.160       89.989       23.874        0.070      337.540        9.582      862.596
01/11/2015  10:15:00        0.140      -10.063       40.189       29.090       48.834       32.307      846.212     2384.724     1043.712        0.299        0.214       10.064       34.136       11.505      337.840       10.086      862.592
01/11/2015  10:16:00      -15.829       33.334       59.825       27.042       35.277       28.067      731.251     1244.472      787.768        0.385        0.138       36.901       27.379        0.550      337.857       10.115      862.591
01/11/2015  10:17:00       50.306       51.983       35.843       31.618       24.215       28.133      999.688      586.351      791.438        0.445        0.119       72.339        5.770        0.006      337.399        9.348      862.597
01/11/2015  10:18:00       -8.302       13.815       63.083       20.574       35.271       21.134      423.282     1244.035      446.632        0.318        0.106       16.117       16.253        1.017      338.081       10.490      862.599
01/11/2015  10:19:00      -17.292      -22.413       22.518       24.247       22.878       19.974      587.937      523.417      398.967        0.141        0.076       28.308       13.342        0.222      337.828       10.066      862.593
01/11/2015  10:20:00      -12.734      -48.899       18.096       27.734       37.420       20.096      769.159     1400.245      403.865        0.273        0.129       50.530        9.889        0.038      337.716        9.879      862.602
01/11/2015  10:21:00       -3.848        9.006       43.183       19.098       25.073       24.184      364.716      628.638      584.875        0.177        0.079        9.793       19.287        3.879      338.130       10.573      862.599
01/11/2015  10:22:00       -6.041       -6.114       36.998       29.554       36.675       25.050      873.453     1345.053      627.505        0.214        0.142        8.595       15.986        3.459      337.949       10.269      862.610
01/11/2015  10:23:00        2.643        4.837       32.586       25.174       23.211       22.858      633.717      538.740      522.491        0.139        0.085        5.512       17.973       10.631      338.162       10.627      862.597
01/11/2015  10:24:00      -27.106      -17.804        9.321       27.920       27.680       22.848      779.507      766.197      522.026        0.160        0.103       32.431       19.665        0.368      337.797       10.014      862.592
01/11/2015  10:25:00      -16.516       -5.733       -2.569       28.898       17.986       13.898      835.079      323.499      193.147        0.083        0.068       17.483        6.437        0.136      337.812       10.040      862.567
01/11/2015  10:26:00      -16.653        7.889       19.858       16.843       17.905       21.510      283.673      320.585      462.690        0.090        0.053       18.427       16.847        0.836      337.933       10.241      862.552
01/11/2015  10:27:00      -18.044        8.355       20.270       15.018       16.696       10.496      225.539      278.753      110.169        0.071        0.031       19.884        9.115        0.210      338.084       10.496      862.536
01/11/2015  10:28:00       22.211       12.116       41.277       17.490       14.476       10.667      305.896      209.560      113.777        0.149        0.031       25.301       10.064        0.158      338.244       10.764      862.516
01/11/2015  10:29:00       39.871       45.468       45.019       34.052       21.030       19.999     1159.550      442.265      399.951        0.384        0.100       60.473       10.319        0.029      337.942       10.256      862.493
01/11/2015  10:30:00       67.697       51.275       21.318       16.925       17.311       19.160      286.440      299.656      367.099        0.431        0.048       84.923       10.930        0.017      337.654        9.774      862.468
01/11/2015  10:31:00       57.784       67.106       14.784       23.296       21.594       24.922      542.691      466.293      621.115        0.485        0.082       88.556       12.094        0.019      337.587        9.661      862.446
01/11/2015  10:32:00       29.072       42.933       57.817       38.657       41.845       16.092     1494.340     1750.963      258.940        0.477        0.175       51.850        8.333        0.026      338.091       10.507      862.432
01/11/2015  10:33:00       -2.126       45.044       49.313       18.398       23.613       28.068      338.504      557.573      787.801        0.307        0.084       45.094       13.577        0.091      338.034       10.412      862.408
01/11/2015  10:34:00      -33.179       -1.044       30.599       32.985       49.077       41.228     1088.015     2408.550     1699.726        0.362        0.260       33.195       31.466        0.899      338.065       10.463      862.384
01/11/2015  10:35:00       27.247       42.220       76.994       57.893       57.405       31.659     3351.553     3295.313     1002.306        0.805        0.382       50.248       27.188        0.293      338.249       10.772      862.350
01/11/2015  10:36:00       49.980       73.286       65.714       48.378       42.523       46.258     2340.396     1808.245     2139.774        0.924        0.314       88.706       39.894        0.202      337.931       10.238      862.331
01/11/2015  10:37:00       39.615       91.767      101.693       51.484       46.034       29.136     2650.567     2119.134      848.904        1.297        0.281       99.953       20.325        0.041      337.958       10.284      862.306
01/11/2015  10:38:00       74.639      103.399       88.634       41.976       47.247       43.569     1761.949     2232.263     1898.260        1.500        0.295      127.524       30.299        0.056      337.763        9.958      862.307
01/11/2015  10:39:00       57.613       88.012       81.072       68.337       56.663       46.804     4669.885     3210.715     2190.614        1.385        0.504      105.193       41.023        0.152      337.844       10.092      862.314
01/11/2015  10:40:00       65.000       96.666       78.277       31.787       37.522       32.338     1010.401     1407.915     1045.734        1.158        0.173      116.487       20.109        0.030      337.833       10.074      862.316
01/11/2015  10:41:00       77.792       82.444       75.824       49.389       34.559       35.624     2439.241     1194.333     1269.105        1.175        0.245      113.352       31.268        0.076      337.892       10.173      862.325
01/11/2015  10:42:00       64.942       91.266       85.113       48.110       36.297       34.734     2314.530     1317.468     1206.467        1.231        0.242      112.013       23.502        0.044      337.772        9.971      862.317
01/11/2015  10:43:00       74.101       80.643       62.854       75.054       52.477       52.966     5633.108     2753.800     2805.433        1.357        0.560      109.519       54.091        0.244      337.954       10.277      862.315
01/11/2015  10:44:00       67.732       72.542       51.084       47.866       40.193       32.650     2291.180     1615.438     1066.008        0.872        0.249       99.247       16.416        0.027      338.148       10.602      862.326
01/11/2015  10:45:00      139.652       64.557        4.020       44.537       37.668       41.606     1983.514     1418.892     1731.072        1.441        0.257      153.852       28.815        0.035      337.797       10.013      862.332
01/11/2015  10:46:00       41.176       66.818       -2.385       51.608       44.178       29.089     2663.373     1951.652      846.142        0.581        0.273       78.486       25.304        0.104      337.900       10.188      862.341
01/11/2015  10:47:00       40.411       88.673        0.244       39.641       61.848       38.043     1571.408     3825.125     1447.269        0.817        0.342       97.447       38.063        0.153      337.983       10.325      862.351
01/11/2015  10:48:00       35.230       37.499       16.552       43.361       40.752       34.446     1880.216     1660.746     1186.520        0.382        0.236       51.452       19.654        0.146      338.265       10.798      862.364
01/11/2015  10:49:00       10.880       55.039       10.278       30.598       33.550       30.260      936.218     1125.582      915.655        0.311        0.149       56.104       23.337        0.173      338.163       10.629      862.377
01/11/2015  10:50:00       57.897       94.688       -0.797       37.271       38.484       31.913     1389.100     1480.997     1018.420        0.810        0.194      110.986       26.844        0.059      338.082       10.491      862.372
01/11/2015  10:51:00       63.910       62.988        9.199       33.255       31.105       26.933     1105.865      967.492      725.380        0.547        0.140       89.733       18.353        0.042      338.025       10.395      862.373
01/11/2015  10:52:00       39.643       50.420        1.599       45.608       27.144       24.686     2080.130      736.771      609.408        0.377        0.171       64.139       13.576        0.045      338.150       10.606      862.358
01/11/2015  10:53:00       54.992       46.195        2.384       32.861       26.140       31.999     1079.834      683.302     1023.918        0.397        0.139       71.820       17.932        0.062      337.987       10.333      862.353
01/11/2015  10:54:00       60.274       57.909        3.811       31.056       28.966       36.990      964.460      839.044     1368.279        0.509        0.159       83.585       25.662        0.094      338.068       10.468      862.335
01/11/2015  10:55:00       38.310       68.374       -0.014       27.478       31.955       33.691      755.045     1021.146     1135.105        0.453        0.146       78.375       24.524        0.098      338.075       10.480      862.327
01/11/2015  10:56:00       15.878       55.826      -31.933       36.110       46.269       30.587     1303.967     2140.822      935.573        0.438        0.219       58.040       24.403        0.177      338.216       10.717      862.305
01/11/2015  10:57:00       37.475       37.596       56.766       46.401       23.113       20.028     2153.084      534.205      401.101        0.456        0.154       53.083       12.626        0.057      338.318       10.888      862.287
01/11/2015  10:58:00       37.872       64.417       19.395       23.174       25.582       32.204      537.024      654.439     1037.109        0.409        0.111       74.725       11.521        0.024      338.114       10.546      862.265
01/11/2015  10:59:00       23.050       42.678        6.467       35.737       18.541       30.382     1277.121      343.755      923.050        0.247        0.127       48.505       22.921        0.223      338.319       10.889      862.248
01/11/2015  11:00:00       12.222      105.323      -11.558       22.648       32.884       24.013      512.948     1081.380      576.605        0.677        0.109      106.030       18.437        0.030      338.295       10.849      862.229
01/11/2015  11:01:00      -33.029      130.682       -8.215       38.284       47.106       28.459     1465.668     2218.986      809.929        1.136        0.225      134.792       29.245        0.047      338.260       10.790      862.235
01/11/2015  11:02:00      -87.806       64.198      -25.270       32.726       40.868       17.644     1071.023     1670.192      311.323        0.776        0.153      108.772       15.463        0.020      337.905       10.195      862.237
01/11/2015  11:03:00      -36.359       -6.432      -34.322       35.469       29.329       13.006     1258.046      860.188      169.166        0.241        0.114       36.924       14.472        0.154      337.978       10.316      862.248
01/11/2015  11:04:00       68.623       21.987       16.202       34.059       40.854       24.511     1160.026     1669.045      600.801        0.444        0.171       72.059       18.234        0.064      338.007       10.365      862.233
01/11/2015  11:05:00      146.353       87.709       26.528       31.705       19.012       26.702     1005.217      361.466      712.971        1.595        0.104      170.622       15.194        0.008      337.941       10.256      862.198
01/11/2015  11:06:00       88.736       49.894       39.679       57.803       40.033       32.201     3341.180     1602.642     1036.911        0.896        0.299      101.801       27.085        0.071      338.153       10.610      862.158
01/11/2015  11:07:00       69.884       73.665       45.811       52.575       34.760       51.412     2764.143     1208.245     2643.167        0.951        0.331      101.540       34.519        0.116      338.324       10.897      862.130
01/11/2015  11:08:00        1.328       41.552       45.635       30.973       35.533       32.360      959.355     1262.600     1047.146        0.354        0.163       41.574       21.011        0.255      338.948       11.947      862.113
01/11/2015  11:09:00       18.694       20.403       47.293       31.518       21.581       24.790      993.398      465.721      614.560        0.254        0.104       27.673       17.139        0.384      338.962       11.971      862.097
01/11/2015  11:10:00        8.522      -11.053        1.897       30.094        9.284       17.697      905.646       86.195      313.176        0.075        0.065       13.957        6.443        0.213      338.594       11.352      862.074
01/11/2015  11:11:00      -31.713       84.438       -9.735       20.655       38.251       18.851      426.614     1463.109      355.376        0.524        0.112       90.197       16.363        0.033      338.382       10.995      862.060
01/11/2015  11:12:00      -17.863       50.318       10.144       21.488       45.974       22.952      461.748     2113.640      526.788        0.303        0.155       53.394       22.342        0.175      338.847       11.778      862.044
01/11/2015  11:13:00       -3.066       26.224       -6.141       20.533       32.949       18.187      421.604     1085.610      330.773        0.129        0.092       26.403        5.868        0.049      338.450       11.110      862.028
01/11/2015  11:14:00       -2.230       25.671        9.659       12.723       25.674       15.631      161.876      659.158      244.335        0.091        0.053       25.768       10.998        0.182      338.819       11.728      862.019
01/11/2015  11:15:00       -5.481       31.985       -5.087       19.146       18.087       16.227      366.559      327.154      263.307        0.102        0.048       32.451        8.903        0.075      338.729       11.578      861.999
01/11/2015  11:16:00       -1.110       18.273       11.269       33.936       16.510       20.014     1151.657      272.587      400.540        0.114        0.091       18.307       12.597        0.474      338.986       12.010      861.980
01/11/2015  11:17:00       18.434        2.905       32.447       38.273       53.455       39.749     1464.826     2857.486     1579.984        0.365        0.295       18.662       18.661        1.000      339.133       12.257      861.947
01/11/2015  11:18:00       -3.767       36.167       55.002       28.131       45.948       44.979      791.340     2111.233     2023.078        0.464        0.246       36.363       34.984        0.926      338.984       12.006      861.921
01/11/2015  11:19:00      -13.656       -1.494       43.818       19.125       24.166       23.791      365.762      584.002      565.992        0.181        0.076       13.738        8.892        0.419      339.343       12.611      861.890
01/11/2015  11:20:00        1.262       24.746       70.703       23.167       64.362       36.487      536.706     4142.502     1331.269        0.581        0.301       24.778       40.935        2.729      339.265       12.479      861.870
01/11/2015  11:21:00       25.545       15.783       53.201       48.627       63.987       50.980     2364.579     4094.301     2598.942        0.639        0.453       30.028       54.574        3.303      339.054       12.124      861.840
01/11/2015  11:22:00       27.830       54.858       78.302       32.124       51.035       34.192     1031.925     2604.541     1169.079        0.736        0.240       61.513       37.897        0.380      338.930       11.916      861.816
01/11/2015  11:23:00       34.600       -9.593       28.392       41.303       48.836       40.744     1705.931     2384.909     1660.082        0.392        0.288       35.906       31.123        0.751      339.002       12.036      861.789
01/11/2015  11:24:00       20.061       22.530       52.529       32.076       42.252       29.323     1028.857     1785.205      859.859        0.367        0.184       30.167       32.232        1.142      338.979       11.998      861.774
01/11/2015  11:25:00       17.511       -9.457       22.396       34.445       57.827       34.495     1186.449     3343.994     1189.914        0.331        0.286       19.902       27.878        1.962      339.024       12.076      861.744
01/11/2015  11:26:00       29.934      -18.609       29.931       35.478       34.358       39.600     1258.673     1180.465     1568.151        0.307        0.200       35.247       30.081        0.728      339.155       12.296      861.713
01/11/2015  11:27:00       39.985      -50.830       19.357       40.721       67.378       41.391     1658.190     4539.752     1713.200        0.623        0.396       64.672       30.195        0.218      339.187       12.349      861.687
01/11/2015  11:28:00       15.753      -19.539       41.278       39.666       77.544       38.586     1573.405     6013.008     1488.866        0.570        0.454       25.099       40.483        2.602      339.313       12.560      861.664
01/11/2015  11:29:00       21.002       83.552       93.047       42.051       54.252       38.945     1768.269     2943.313     1516.698        1.115        0.311       86.152       34.993        0.165      339.183       12.343      861.649
01/11/2015  11:30:00       62.004      -45.943       18.772       58.489       95.832       60.189     3420.970     9183.791     3622.765        1.126        0.811       77.170       62.102        0.648      339.090       12.185      861.633
01/11/2015  11:31:00      121.019     -138.727      -23.140       60.526       81.918       43.497     3663.359     6710.619     1891.961        2.334        0.613      184.094       53.170        0.083      338.810       11.712      861.626
01/11/2015  11:32:00       99.643     -123.783      -11.200       63.950       93.976       55.713     4089.618     8831.491     3103.912        2.070        0.801      158.906       59.015        0.138      338.951       11.950      861.618
01/11/2015  11:33:00      134.129     -186.755      -34.653       65.114       76.388       44.777     4239.781     5835.092     2004.949        3.307        0.604      229.930       33.176        0.021      338.761       11.627      861.585
01/11/2015  11:34:00      156.496     -135.461      -34.242       89.996      104.217       62.412     8099.352    10861.143     3895.273        3.343        1.143      206.979       77.043        0.139      338.744       11.599      861.573
01/11/2015  11:35:00      132.920      -83.874      -26.210       66.734       67.170       52.694     4453.422     4511.872     2776.612        1.856        0.587      157.171       54.821        0.122      338.794       11.686      861.569
01/11/2015  11:36:00       97.279     -152.913      -12.316       62.256       55.476       43.690     3875.776     3077.565     1908.825        2.093        0.443      181.234       37.365        0.043      338.888       11.844      861.554
01/11/2015  11:37:00       79.033     -157.432      -32.117       54.683       60.189       33.548     2990.218     3622.702     1125.485        1.990        0.387      176.156       27.868        0.025      338.993       12.019      861.538
01/11/2015  11:38:00       25.484       34.003       72.292       48.302       83.913       48.992     2333.046     7041.411     2400.176        0.940        0.589       42.493       45.675        1.155      339.132       12.256      861.519
01/11/2015  11:39:00       23.267       36.042       67.632       40.284       56.525       36.572     1622.826     3195.022     1337.542        0.628        0.308       42.900       43.010        1.005      339.021       12.070      861.480
01/11/2015  11:40:00       61.636     -103.370       -5.383       60.796       53.578       37.207     3696.178     2870.588     1384.377        1.123        0.398      120.351       31.039        0.067      338.918       11.897      861.460
01/11/2015  11:41:00       62.107       10.874       48.861       51.097       42.789       35.036     2610.878     1830.879     1227.518        0.602        0.283       63.052       30.039        0.227      339.019       12.067      861.431
01/11/2015  11:42:00       44.541       48.419       45.321       62.583       49.030       42.663     3916.613     2403.910     1820.174        0.726        0.407       65.790       32.207        0.240      339.141       12.272      861.403
01/11/2015  11:43:00       95.340       98.634       84.377       69.138       44.363       38.340     4780.104     1968.032     1469.919        1.708        0.411      137.180       43.456        0.100      338.746       11.608      861.403
01/11/2015  11:44:00       66.528       49.087       30.682       57.403       33.965       24.603     3295.066     1153.620      605.309        0.641        0.253       82.677       12.587        0.023      338.806       11.707      861.397
01/11/2015  11:45:00        9.845       20.001        7.391       36.421       34.631       16.015     1326.524     1199.320      256.482        0.167        0.139       22.293       18.214        0.668      339.464       12.815      861.387
01/11/2015  11:46:00       36.251       36.117       -5.400       26.475       21.490       20.431      700.926      461.806      417.417        0.211        0.079       51.172       15.565        0.093      339.183       12.341      861.386
01/11/2015  11:47:00       20.989       -6.291       24.713       50.071       69.843       45.936     2507.068     4878.107     2110.156        0.529        0.475       21.911       46.931        4.588      339.473       12.830      861.370
01/11/2015  11:48:00       30.470        4.305       92.882       42.646       70.665       49.718     1818.660     4993.605     2471.860        0.943        0.464       30.773       38.446        1.561      339.534       12.933      861.349
01/11/2015  11:49:00       14.682      -39.972       45.378       45.178       56.978       51.179     2041.008     3246.441     2619.334        0.589        0.395       42.583       41.390        0.945      339.349       12.623      861.342
01/11/2015  11:50:00       13.893      -30.511       -9.877       39.951       55.398       39.899     1596.049     3068.947     1591.929        0.374        0.313       33.525       25.367        0.573      339.355       12.631      861.337
01/11/2015  11:51:00        7.439      -47.650       27.808       28.821       64.663       31.861      830.664     4181.324     1015.149        0.456        0.301       48.227       34.507        0.512      339.590       13.027      861.323
01/11/2015  11:52:00      -14.698      -80.707       -1.436       43.224       60.836       23.971     1868.273     3700.986      574.591        0.644        0.307       82.035       21.055        0.066      339.311       12.556      861.317
01/11/2015  11:53:00      -13.959       -0.635       -1.887       29.651       34.180       24.672      879.163     1168.291      608.718        0.143        0.133       13.974       11.725        0.704      339.603       13.049      861.334
01/11/2015  11:54:00      -75.744     -118.904        4.799       62.237       60.516       40.922     3873.395     3662.211     1674.642        1.455        0.461      140.980       27.842        0.039      339.334       12.595      861.328
01/11/2015  11:55:00      -42.661     -116.843        9.018       48.534       67.098       38.173     2355.585     4502.138     1457.174        1.193        0.416      124.387       24.222        0.038      339.368       12.653      861.330
01/11/2015  11:56:00      -43.981      -56.843       21.600       40.171       54.999       30.736     1613.695     3024.858      944.704        0.561        0.279       71.871       28.876        0.161      339.521       12.912      861.333
01/11/2015  11:57:00        8.238        7.538       62.703       43.408       68.134       52.893     1884.254     4642.284     2797.690        0.669        0.466       11.166       49.808       19.899      339.801       13.383      861.328
01/11/2015  11:58:00      -16.307       -1.769       44.925       50.030       52.758       45.993     2502.984     2783.374     2115.315        0.484        0.370       16.403       45.007        7.529      339.761       13.317      861.331
01/11/2015  11:59:00       -1.055       30.843       53.208       47.011       64.694       61.359     2210.060     4185.346     3764.965        0.697        0.508       30.861       46.800        2.300      339.524       12.917      861.317
01/11/2015  12:00:00       12.943      -11.237       50.765       26.926       63.691       40.963      725.016     4056.587     1677.997        0.466        0.323       17.140       44.237        6.661      339.646       13.121      861.313
01/11/2015  12:01:00      -30.706      -26.437        3.963       38.497       27.311       21.909     1481.985      745.900      480.007        0.218        0.135       40.518       10.699        0.070      339.506       12.886      861.312
01/11/2015  12:02:00      -62.677      -66.356       17.293       37.101       42.275       35.362     1376.462     1787.177     1250.473        0.652        0.221       91.277       14.823        0.026      339.508       12.890      861.291
01/11/2015  12:03:00       20.875      -65.562        1.665       45.732       97.336       46.127     2091.436     9474.253     2127.690        0.921        0.685       68.805       60.618        0.776      339.696       13.206      861.284
01/11/2015  12:04:00       16.023      -36.234       13.502       57.773       75.823       47.355     3337.754     5749.177     2242.464        0.654        0.566       39.619       44.454        1.259      339.746       13.291      861.278
01/11/2015  12:05:00       19.079       14.544       47.301       41.280       56.531       50.574     1704.002     3195.766     2557.689        0.513        0.373       23.990       49.051        4.181      339.717       13.241      861.258
01/11/2015  12:06:00       52.311       31.788       59.622       50.543       59.271       40.063     2554.571     3513.081     1605.061        0.749        0.384       61.212       34.687        0.321      339.690       13.198      861.245
01/11/2015  12:07:00        8.011      -43.890       26.204       53.718       82.516       53.729     2885.662     6808.936     2886.837        0.763        0.629       44.615       50.548        1.284      339.847       13.462      861.222
01/11/2015  12:08:00      111.841     -130.075      -12.257       98.581      101.888       61.786     9718.197    10381.133     3817.452        2.674        1.196      171.546       75.463        0.194      339.668       13.159      861.207
01/11/2015  12:09:00      133.114     -137.745      -34.655       60.788       69.242       43.283     3695.233     4794.444     1873.394        2.413        0.518      191.554       43.654        0.052      339.364       12.643      861.202
01/11/2015  12:10:00      101.606     -163.825      -36.044       64.379       62.408       30.070     4144.716     3894.807      904.202        2.370        0.447      192.775       29.186        0.023      339.515       12.898      861.191
01/11/2015  12:11:00      111.965     -130.531      -35.259       81.991       88.598       55.041     6722.523     7849.523     3029.461        2.421        0.880      171.973       54.564        0.101      339.502       12.876      861.175
01/11/2015  12:12:00      153.480     -142.294      -28.040       63.855       53.690       39.616     4077.397     2882.571     1569.451        2.656        0.426      209.294       40.636        0.038      339.291       12.519      861.152
01/11/2015  12:13:00       91.922      -92.667       -0.499       82.702      118.310       60.090     6839.698    13997.303     3610.751        2.074        1.222      130.525       63.922        0.240      339.611       13.062      861.127
01/11/2015  12:14:00      120.132      -90.853      -21.366       86.512      102.761       69.836     7484.370    10559.808     4877.065        2.303        1.146      150.618       75.014        0.248      339.541       12.944      861.114
01/11/2015  12:15:00       49.662       10.855       83.646       77.863      106.200       83.851     6062.724    11278.479     7030.978        1.697        1.219       50.834       86.851        2.919      339.752       13.299      861.105
01/11/2015  12:16:00       23.643       39.453       79.963       37.981       86.144       57.157     1442.547     7420.804     3266.928        1.032        0.607       45.995       64.962        1.995      339.710       13.230      861.091
01/11/2015  12:17:00       27.025      -24.332       23.761       47.913       65.712       44.555     2295.643     4318.120     1985.123        0.524        0.430       36.365       38.964        1.148      339.995       13.711      861.087
01/11/2015  12:18:00       27.154     -100.172        1.076       53.553       64.980       58.479     2867.968     4222.447     3419.754        1.064        0.526      103.787       42.886        0.171      339.800       13.380      861.074
01/11/2015  12:19:00       29.119       52.298       60.028       47.129       47.781       28.451     2221.135     2282.983      809.485        0.625        0.266       59.858       20.942        0.122      339.931       13.603      861.065
01/11/2015  12:20:00       96.389       -9.624       43.411       58.465       67.264       41.563     3418.181     4524.443     1727.512        1.047        0.484       96.868       37.962        0.154      339.684       13.185      861.041
01/11/2015  12:21:00      157.669     -112.622       -2.273       99.238      161.522       64.225     9848.202    26089.296     4124.815        3.880        2.003      193.761       95.668        0.244      339.489       12.856      861.026
01/11/2015  12:22:00      168.495     -170.951      -26.860       46.697       44.161       26.070     2180.647     1950.206      679.627        3.157        0.241      240.031       15.860        0.004      339.399       12.701      861.028
01/11/2015  12:23:00       74.446      -68.175       11.649       64.712       54.700       42.681     4187.599     2992.115     1821.691        0.966        0.450      100.946       46.207        0.210      339.754       13.305      861.033
01/11/2015  12:24:00      147.060     -139.425      -17.835       79.075      107.452       61.816     6252.807    11546.031     3821.171        3.150        1.081      202.648       75.807        0.140      339.642       13.112      861.029
01/11/2015  12:25:00       78.941     -117.102       -1.899       61.425       96.678       51.555     3773.072     9346.698     2657.939        1.786        0.789      141.225       49.281        0.122      339.688       13.192      861.036
01/11/2015  12:26:00       85.204     -178.177      -15.121       62.544       56.924       43.690     3911.723     3240.290     1908.844        2.415        0.453      197.501       34.876        0.031      339.850       13.464      861.011
01/11/2015  12:27:00       81.341       -1.301       42.913       96.642       87.771       59.894     9339.752     7703.774     3587.313        1.454        1.032       81.351       54.600        0.450      340.041       13.788      860.996
01/11/2015  12:28:00       14.789        9.372       67.308       73.670       72.396       52.963     5427.342     5241.236     2805.061        0.915        0.674       17.508       31.985        3.337      340.162       13.992      860.963
01/11/2015  12:29:00      166.848     -210.884      -44.695       92.846      115.550       52.479     8620.325    13351.752     2753.998        4.951        1.236      268.906       64.978        0.058      339.647       13.120      860.941
01/11/2015  12:30:00       64.591      -21.909       33.245       77.347       77.668       66.575     5982.527     6032.271     4432.179        1.110        0.822       68.205       57.997        0.723      339.937       13.612      860.928
01/11/2015  12:31:00      104.214      -96.394      -20.343       69.737       63.249       52.841     4863.182     4000.375     2792.125        1.611        0.583      141.958       52.568        0.137      339.659       13.143      860.912
01/11/2015  12:32:00       47.037       -4.559       42.755       60.839       82.850       52.436     3701.421     6864.170     2749.571        0.869        0.666       47.258       62.096        1.727      340.031       13.771      860.885
01/11/2015  12:33:00      131.543     -130.331      -39.703       94.610      115.172       62.995     8951.137    13264.683     3968.421        3.102        1.309      185.175       71.498        0.149      339.768       13.327      860.857
01/11/2015  12:34:00      168.017     -150.885      -33.927       39.906       57.891       30.992     1592.452     3351.359      960.486        2.902        0.295      225.823       28.640        0.016      339.565       12.982      860.862
01/11/2015  12:35:00       82.416      -43.288        2.016       53.836       59.507       35.964     2898.276     3541.096     1293.419        0.820        0.387       93.092       42.196        0.205      339.713       13.235      860.870
01/11/2015  12:36:00       88.267       70.193       45.923       57.978       29.677       31.970     3361.456      880.731     1022.110        1.004        0.263      112.775       13.866        0.015      339.947       13.630      860.849
01/11/2015  12:37:00       44.034       27.979       19.984       51.208       62.174       34.611     2622.231     3865.550     1197.896        0.540        0.384       52.171       30.689        0.346      340.149       13.971      860.844
01/11/2015  12:38:00      106.496      -84.682       17.240       90.575       98.144       59.807     8203.892     9632.247     3576.852        2.011        1.071      136.061       64.621        0.226      340.014       13.740      860.842
01/11/2015  12:39:00       56.712       -0.589       47.099       81.283      106.992       84.453     6606.898    11447.203     7132.390        1.531        1.259       56.715       89.638        2.498      340.092       13.875      860.847
01/11/2015  12:40:00      116.175      -36.878       70.572      110.558      173.483      104.386    12223.118    30096.354    10896.396        3.652        2.661      121.887      132.733        1.186      340.066       13.829      860.825
01/11/2015  12:41:00       56.147      117.902      146.914       76.843      112.615       72.146     5904.821    12682.245     5205.089        3.121        1.190      130.588       83.475        0.409      339.909       13.563      860.832
01/11/2015  12:42:00       51.927      -57.664        2.510       51.979       96.652       41.533     2701.785     9341.541     1725.014        0.990        0.688       77.598       33.542        0.187      340.084       13.860      860.833
01/11/2015  12:43:00        3.399      -34.211       22.519       44.221       62.812       28.785     1955.524     3945.360      828.583        0.421        0.336       34.379       24.653        0.514      340.364       14.334      860.822
01/11/2015  12:44:00       55.608      -67.208        1.847       66.298       72.473       50.402     4395.469     5252.381     2540.312        0.990        0.609       87.231       44.054        0.255      340.188       14.036      860.805
01/11/2015  12:45:00       65.917      -85.678        2.949       75.911      109.198       50.169     5762.518    11924.273     2516.961        1.595        1.010      108.101       49.729        0.212      340.119       13.920      860.795
01/11/2015  12:46:00      -18.429      -33.260       88.759       43.957       96.413       76.396     1932.239     9295.530     5836.396        1.319        0.853       38.025       70.536        3.441      340.273       14.180      860.765
01/11/2015  12:47:00       49.614        7.592       55.819       79.493      111.432       76.543     6319.172    12416.997     5858.855        1.511        1.230       50.191       79.571        2.513      340.309       14.240      860.749
01/11/2015  12:48:00      -12.913       15.446       43.662       41.747       51.095       37.970     1742.822     2610.732     1441.706        0.405        0.290       20.132       34.184        2.883      340.485       14.538      860.739
01/11/2015  12:49:00       -1.866       39.252       71.070       39.146       59.705       37.967     1532.428     3564.702     1441.499        0.657        0.327       39.296       35.351        0.809      340.614       14.755      860.715
01/11/2015  12:50:00       60.196      -31.169       58.737       69.199      135.134       76.008     4788.485    18261.322     5777.261        1.843        1.441       67.787       95.307        1.977      340.455       14.487      860.706
01/11/2015  12:51:00       57.379        6.868       38.190       71.169       67.501       57.895     5065.082     4556.385     3351.821        0.888        0.649       57.789       47.238        0.668      340.130       13.938      860.698
01/11/2015  12:52:00       26.076     -126.271        4.180       66.950       56.983       50.196     4482.360     3247.098     2519.662        1.344        0.512      128.936       43.237        0.112      340.333       14.280      860.680
01/11/2015  12:53:00      -11.774       16.728       42.610       34.675       41.563       37.847     1202.333     1727.520     1432.427        0.330        0.218       20.456       26.449        1.672      340.751       14.988      860.668
01/11/2015  12:54:00       36.904     -118.460       -0.607       55.815       64.881       35.807     3115.305     4209.487     1282.123        1.200        0.430      124.075       31.454        0.064      340.327       14.271      860.662
01/11/2015  12:55:00       68.558      -80.562       27.894       69.683       96.376       68.690     4855.701     9288.403     4718.328        1.541        0.943      105.785       63.667        0.362      340.537       14.625      860.653
01/11/2015  12:56:00       11.349       42.187       92.726       51.484      116.492       57.722     2650.616    13570.350     3331.876        1.503        0.978       43.687       72.296        2.739      340.451       14.480      860.650
01/11/2015  12:57:00       -8.984       10.729       56.075       22.046       43.884       19.655      486.028     1925.794      386.307        0.307        0.140       13.994       20.188        2.081      341.016       15.436      860.633
01/11/2015  12:58:00      103.645      -61.308       16.029       72.210      105.981       44.436     5214.272    11231.926     1974.519        1.659        0.921      120.420       54.877        0.208      340.345       14.300      860.628
01/11/2015  12:59:00       98.690       19.041       41.910       75.910       79.013       46.995     5762.275     6243.094     2208.563        1.303        0.711      100.510       37.900        0.142      340.421       14.428      860.611
01/11/2015  13:00:00       88.248      123.020       99.911       69.974       68.664       63.744     4896.310     4714.808     4063.300        2.329        0.684      151.399       58.049        0.147      340.261       14.157      860.599
01/11/2015  13:01:00        8.500       -0.763       47.271       48.115       68.427       41.002     2315.051     4682.213     1681.183        0.549        0.434        8.534       25.364        8.833      340.658       14.832      860.600
01/11/2015  13:02:00       83.114       75.644       79.990       81.535       67.875       60.147     6648.036     4606.987     3617.688        1.695        0.744      112.383       32.245        0.082      340.571       14.683      860.603
01/11/2015  13:03:00       57.794       86.747       88.801       70.135       46.351       62.684     4918.972     2148.407     3929.254        1.487        0.550      104.236       56.463        0.293      340.601       14.734      860.590
01/11/2015  13:04:00      123.842      -63.810       10.003       96.836      109.397       73.527     9377.188    11967.745     5406.272        2.312        1.338      139.315       65.194        0.219      340.521       14.596      860.599
01/11/2015  13:05:00       87.817       38.116       49.641      101.336       63.298       54.096    10269.004     4006.578     2926.352        1.441        0.860       95.732       33.656        0.124      340.388       14.374      860.619
01/11/2015  13:06:00       77.965        5.382       64.589       60.834       86.899       57.156     3700.798     7551.417     3266.763        1.240        0.726       78.150       56.119        0.516      340.568       14.679      860.619
01/11/2015  13:07:00       55.358       60.418       40.898       55.189       43.302       51.142     3045.789     1875.055     2615.471        0.796        0.377       81.944       34.753        0.180      340.341       14.295      860.621
01/11/2015  13:08:00       51.898       66.618       91.588       60.994       68.990       64.576     3720.288     4759.551     4170.033        1.408        0.632       84.447       55.779        0.436      340.492       14.550      860.620
01/11/2015  13:09:00       -2.423       -3.148       46.567       24.217       53.156       34.662      586.440     2825.546     1201.425        0.340        0.231        3.973       25.858       42.362      340.892       15.226      860.620
01/11/2015  13:10:00       56.422     -101.236      -14.680       48.848       45.867       43.404     2386.112     2103.745     1883.878        1.001        0.319      115.898       27.216        0.055      340.679       14.866      860.616
01/11/2015  13:11:00       13.425     -116.042      -24.452       46.160       43.186       26.153     2130.731     1865.059      684.003        0.946        0.234      116.816       14.162        0.015      340.519       14.596      860.624
01/11/2015  13:12:00        5.289      -59.526       -6.693       33.216       44.296       33.573     1103.307     1962.167     1127.115        0.390        0.210       59.761       16.680        0.078      340.707       14.913      860.634
01/11/2015  13:13:00       57.812       52.310       16.399       70.459       60.269       41.137     4964.445     3632.363     1692.224        0.832        0.514       77.965       16.967        0.047      340.715       14.926      860.638
01/11/2015  13:14:00       -8.497       74.544       -1.053       51.603       69.019       40.548     2662.919     4763.634     1644.174        0.735        0.454       75.027       39.320        0.275      340.909       15.256      860.641
01/11/2015  13:15:00       61.231       52.438        4.313       62.943       53.701       41.788     3961.767     2883.772     1746.271        0.755        0.430       80.616       31.819        0.156      340.795       15.062      860.636
01/11/2015  13:16:00      137.744      107.034        7.428       64.572       59.964       69.364     4169.581     3595.695     4811.373        2.153        0.629      174.441       40.000        0.053      340.422       14.430      860.655
01/11/2015  13:17:00      199.739      143.129       15.543       61.992       50.394       49.251     3843.000     2539.567     2425.655        3.471        0.440      245.727       20.696        0.007      340.139       13.950      860.678
01/11/2015  13:18:00       61.629       61.615       30.051       53.956       38.268       48.896     2911.274     1464.407     2390.845        0.763        0.338       87.147       20.802        0.057      340.572       14.685      860.690
01/11/2015  13:19:00      117.422       96.900       16.335       79.427       51.949       56.843     6308.694     2698.670     3231.180        1.784        0.612      152.242       30.976        0.041      340.250       14.139      860.699
01/11/2015  13:20:00      176.709      130.007        4.925       72.872       58.251       61.610     5310.337     3393.143     3795.738        3.032        0.625      219.381       44.807        0.042      340.264       14.161      860.716
01/11/2015  13:21:00      111.744       86.839       -7.638       51.457       34.702       37.258     2647.864     1204.221     1388.126        1.266        0.262      141.519       22.119        0.024      340.059       13.819      860.727
01/11/2015  13:22:00      -26.061       67.840       -9.285       75.359       42.535       32.980     5678.992     1809.250     1087.650        0.697        0.429       72.674       28.489        0.154      340.205       14.065      860.708
01/11/2015  13:23:00       -8.087       73.732      -19.196       39.282       19.787       24.883     1543.112      391.525      619.147        0.421        0.128       74.174       16.348        0.049      340.259       14.156      860.682
01/11/2015  13:24:00       82.805       58.567       28.245       39.669       34.370       42.834     1573.599     1181.267     1834.744        0.784        0.229      101.423       27.998        0.076      340.336       14.285      860.679
01/11/2015  13:25:00      109.410       92.838       25.819       95.875       62.674       48.825     9191.976     3928.093     2383.869        1.838        0.775      143.490       11.950        0.007      340.525       14.603      860.680
01/11/2015  13:26:00      161.183      111.523       15.795      111.872       74.931       54.584    12515.428     5614.653     2979.359        2.988        1.055      196.003       30.286        0.024      340.488       14.541      860.684
01/11/2015  13:27:00      188.242       78.160       36.470       71.451       63.705       57.714     5105.179     4058.385     3330.918        2.768        0.625      203.823       41.199        0.041      340.335       14.279      860.689
01/11/2015  13:28:00      191.472       70.712       29.018       94.818       70.593       62.561     8990.504     4983.424     3913.856        3.019        0.894      204.112       49.222        0.058      340.360       14.324      860.673
01/11/2015  13:29:00       89.818       49.822       39.481       69.528       66.352       54.713     4834.173     4402.562     2993.529        1.217        0.612      102.711       27.402        0.071      340.380       14.359      860.671
01/11/2015  13:30:00       45.198       58.829        6.032       47.602       75.768       48.253     2265.983     5740.724     2328.377        0.794        0.517       74.187       37.480        0.255      340.421       14.430      860.669
01/11/2015  13:31:00       95.450       78.287       -1.148       82.480       60.057       39.388     6802.978     3606.858     1551.377        1.360        0.598      123.448       24.199        0.038      340.753       14.991      860.678
01/11/2015  13:32:00       35.144      109.661      -11.653       75.887       69.508       48.646     5758.827     4831.298     2366.420        1.317        0.648      115.155       42.160        0.134      340.606       14.743      860.696
01/11/2015  13:33:00       32.662       77.587      -19.800       73.415       56.457       39.552     5389.695     3187.370     1564.365        0.881        0.507       84.181       35.953        0.182      340.716       14.927      860.701
01/11/2015  13:34:00      -19.734      193.002      -30.719       76.017      100.503       45.698     5778.658    10100.860     2088.282        2.827        0.898      194.008       46.780        0.058      340.454       14.485      860.708
01/11/2015  13:35:00       27.473       48.763       28.488       52.436       51.792       38.434     2749.527     2682.381     1477.207        0.543        0.345       55.969       32.022        0.327      340.604       14.739      860.706
01/11/2015  13:36:00      -33.177       96.013        8.377       59.039       82.315       45.898     3485.609     6775.837     2106.636        1.138        0.618      101.583       49.623        0.239      340.591       14.717      860.694
01/11/2015  13:37:00      -24.927      177.599      -32.476       45.957      106.279       40.713     2112.071    11295.232     1657.579        2.414        0.753      179.339       55.606        0.096      340.494       14.552      860.686
01/11/2015  13:38:00        6.881      134.419      -14.153       45.382       99.225       36.282     2059.499     9845.618     1316.366        1.577        0.661      134.595       42.778        0.101      340.628       14.780      860.683
01/11/2015  13:39:00       31.436      188.720      -11.710       98.565      105.586       60.192     9715.073    11148.437     3623.111        3.061        1.224      191.321       58.594        0.094      340.343       14.296      860.678
01/11/2015  13:40:00       53.253      153.283       -9.578       60.652       56.708       39.143     3678.607     3215.847     1532.138        1.742        0.421      162.270       30.966        0.036      340.181       14.023      860.668
01/11/2015  13:41:00       38.828      183.941      -17.395       51.480       76.058       50.339     2650.185     5784.783     2534.037        2.330        0.548      187.995       48.701        0.067      340.201       14.055      860.664
01/11/2015  13:42:00       -7.475      138.502      -19.715       44.602       53.105       37.627     1989.383     2820.178     1415.754        1.293        0.311      138.704       29.328        0.045      340.254       14.148      860.645
01/11/2015  13:43:00      -46.198      170.834      -17.222       38.473       54.784       26.490     1480.185     3001.322      701.745        1.840        0.259      176.970       25.789        0.021      340.231       14.109      860.646
01/11/2015  13:44:00       23.552      213.230      -25.049       45.033      105.669       44.934     2027.947    11165.878     2019.046        3.093        0.761      214.526       54.329        0.064      340.003       13.724      860.652
01/11/2015  13:45:00      -21.784      205.027      -24.091       43.417       74.523       38.679     1885.047     5553.736     1496.096        2.601        0.447      206.181       40.257        0.038      339.974       13.672      860.657
01/11/2015  13:46:00       30.239      102.799        4.501       67.426       55.913       35.499     4546.242     3126.311     1260.181        1.022        0.447      107.154       39.537        0.136      340.210       14.075      860.657
01/11/2015  13:47:00       52.521      122.262       -5.517       42.885       76.812       43.445     1839.097     5900.042     1887.494        1.368        0.481      133.066       41.206        0.096      340.209       14.070      860.642
01/11/2015  13:48:00       30.855      108.342       -5.804       60.464       63.074       51.073     3655.872     3978.338     2608.438        1.148        0.512      112.650       47.932        0.181      340.234       14.114      860.630
01/11/2015  13:49:00       36.442       78.939        3.483       47.118       67.707       45.828     2220.124     4584.220     2100.161        0.824        0.445       86.945       38.500        0.196      340.253       14.145      860.628
01/11/2015  13:50:00      -30.886      122.407       -7.641       51.079       69.047       36.835     2609.106     4767.441     1356.810        1.236        0.437      126.243       38.395        0.092      340.190       14.038      860.630
01/11/2015  13:51:00       73.595       57.309       19.633       76.691       54.589       40.810     5881.542     2980.010     1665.485        0.980        0.526       93.277       19.950        0.046      340.201       14.056      860.626
01/11/2015  13:52:00       44.019       86.556       -5.990       54.764       51.068       31.761     2999.081     2607.990     1008.762        0.804        0.331       97.106       24.444        0.063      340.237       14.120      860.625
01/11/2015  13:53:00       67.711       73.184        6.333       60.046       59.443       45.734     3605.476     3533.464     2091.594        0.960        0.462       99.703       27.098        0.074      340.248       14.136      860.616
01/11/2015  13:54:00      110.938       94.809       17.046       76.285       70.754       48.971     5819.400     5006.125     2398.201        1.740        0.661      145.932       40.164        0.076      340.227       14.101      860.615
01/11/2015  13:55:00      155.953      111.342       12.057       69.661       55.016       57.173     4852.626     3026.771     3268.705        2.400        0.557      191.620       31.983        0.028      340.138       13.950      860.619
01/11/2015  13:56:00       78.351       99.903       15.836       71.578       51.758       43.973     5123.467     2678.905     1933.606        1.305        0.487      126.962       36.313        0.082      340.113       13.909      860.639
01/11/2015  13:57:00       67.334       68.964        5.640       55.648       68.332       50.076     3096.708     4669.287     2507.625        0.980        0.514       96.384       33.852        0.123      340.183       14.027      860.650
01/11/2015  13:58:00       71.441       91.861       -0.568       59.787       53.189       39.305     3574.510     2829.075     1544.898        1.074        0.397      116.371       33.568        0.083      340.170       14.005      860.652
01/11/2015  13:59:00       76.788      144.307      -14.250       91.226       85.093       61.929     8322.179     7240.866     3835.225        2.316        0.970      163.466       56.316        0.119      340.250       14.138      860.647
01/11/2015  14:00:00      199.708      169.725        5.123       73.474       64.758       65.790     5398.436     4193.594     4328.363        4.132        0.696      262.088       47.110        0.032      340.114       13.906      860.666
01/11/2015  14:01:00      112.071       75.449       13.016       87.576       56.109       43.944     7669.473     3148.226     1931.039        1.558        0.637      135.101       32.835        0.059      340.258       14.153      860.678
01/11/2015  14:02:00       34.773       83.681       -4.371       46.790       69.154       49.236     2189.295     4782.344     2424.160        0.881        0.470       90.618       40.056        0.195      340.228       14.103      860.697
01/11/2015  14:03:00       23.669      206.003      -23.993       57.791       79.407       44.085     3339.757     6305.472     1943.474        2.758        0.579      207.358       41.726        0.040      340.140       13.951      860.692
01/11/2015  14:04:00       36.787      137.558      -18.476       52.624       71.540       39.196     2769.290     5117.915     1536.357        1.502        0.471      142.392       31.914        0.050      340.207       14.067      860.694
01/11/2015  14:05:00        5.818       53.564       -3.554       54.804       47.708       33.747     3003.513     2276.070     1138.889        0.467        0.321       53.879       28.601        0.282      340.337       14.287      860.699
01/11/2015  14:06:00       65.462      123.669       -1.174       63.264       77.256       47.746     4002.315     5968.504     2279.675        1.591        0.613      139.926       48.775        0.122      340.191       14.039      860.701
01/11/2015  14:07:00       41.156       85.813      -13.586       69.562       67.443       49.071     4838.923     4548.550     2407.972        1.052        0.590       95.172       43.792        0.212      340.164       13.995      860.708
01/11/2015  14:08:00       10.477      109.831      -15.550       42.980       47.778       24.540     1847.256     2282.702      602.209        0.857        0.237      110.330       27.125        0.060      340.152       13.976      860.712
01/11/2015  14:09:00        8.814      138.053        3.630       48.403       83.345       48.005     2342.891     6946.328     2304.463        1.537        0.580      138.334       50.658        0.134      340.155       13.979      860.716
01/11/2015  14:10:00       42.930      140.309      -11.294       47.889       84.627       40.679     2293.316     7161.755     1654.748        1.638        0.555      146.730       49.747        0.115      340.214       14.079      860.712
01/11/2015  14:11:00       15.632      124.884      -12.817       32.218       67.697       32.915     1038.023     4582.841     1083.403        1.135        0.335      125.858       41.075        0.107      340.108       13.900      860.720
01/11/2015  14:12:00        4.028      117.389      -18.136       24.397       19.094       14.345      595.207      364.573      205.771        0.765        0.058      117.458       11.028        0.009      340.047       13.798      860.728
01/11/2015  14:13:00       56.772      108.564       -8.738       44.859       61.956       39.995     2012.324     3838.504     1599.638        1.127        0.373      122.512       39.796        0.106      340.175       14.014      860.726
01/11/2015  14:14:00       80.760      116.224        1.568       76.271       66.927       48.091     5817.326     4479.240     2312.765        1.632        0.630      141.528       38.573        0.074      340.175       14.012      860.729
01/11/2015  14:15:00        1.656       46.026        7.766       39.981       51.495       38.843     1598.490     2651.714     1508.786        0.397        0.288       46.056       25.072        0.296      340.237       14.118      860.733
01/11/2015  14:16:00       30.140      102.438       -1.364       43.386       60.518       38.429     1882.367     3662.410     1476.772        0.921        0.351      106.780       34.193        0.103      340.205       14.066      860.737
01/11/2015  14:17:00       76.888       93.375        7.631       58.816       51.359       39.791     3459.289     2637.745     1583.309        1.118        0.384      120.958       34.686        0.082      340.308       14.238      860.751
01/11/2015  14:18:00       38.561       80.332        5.598       50.486       55.358       43.666     2548.880     3064.502     1906.734        0.774        0.376       89.108       40.543        0.207      340.389       14.375      860.758
01/11/2015  14:19:00       31.386       55.783       10.845       58.789       51.826       28.965     3456.144     2685.916      838.968        0.560        0.349       64.006       23.816        0.138      340.424       14.435      860.766
01/11/2015  14:20:00       37.506       65.309        8.883       52.213       43.891       35.660     2726.168     1926.420     1271.613        0.584        0.296       75.312       29.397        0.152      340.397       14.389      860.759
01/11/2015  14:21:00       51.840       66.140       19.216       41.098       41.439       45.569     1689.057     1717.157     2076.503        0.646        0.274       84.035       34.661        0.170      340.392       14.380      860.759
01/11/2015  14:22:00       40.227      111.867       -0.357       44.017       45.340       40.048     1937.518     2055.694     1603.849        0.986        0.280      118.881       32.880        0.076      340.413       14.416      860.757
01/11/2015  14:23:00       36.605       62.625       -1.108       49.838       60.756       45.080     2483.835     3691.302     2032.201        0.673        0.410       72.538       31.107        0.184      340.600       14.732      860.751
01/11/2015  14:24:00       59.800      107.640      -14.824       58.500       54.632       34.654     3422.203     2984.656     1200.875        1.149        0.380      123.135       31.809        0.067      340.459       14.494      860.759
01/11/2015  14:25:00       27.871      151.749      -17.585       39.586       59.304       38.611     1567.061     3517.024     1490.799        1.534        0.329      154.287       37.074        0.058      340.380       14.360      860.770
01/11/2015  14:26:00       19.565       87.239        4.149       39.313       56.916       43.077     1545.473     3239.476     1855.600        0.732        0.332       89.406       40.221        0.202      340.603       14.738      860.763
01/11/2015  14:27:00       50.504       59.813       12.280       81.980       48.694       33.011     6720.724     2371.081     1089.730        0.823        0.509       78.283       26.336        0.113      340.810       15.088      860.750
01/11/2015  14:28:00      113.294      102.766       16.840       68.555       45.865       40.535     4699.857     2103.629     1643.078        1.606        0.422      152.958       25.730        0.028      340.490       14.545      860.752
01/11/2015  14:29:00        6.765      172.595      -12.294       67.732       90.154       41.854     4587.599     8127.812     1751.756        2.222        0.723      172.728       49.297        0.081      340.455       14.485      860.745
01/11/2015  14:30:00        6.310      149.940      -13.521       53.590       89.796       42.244     2871.887     8063.332     1784.533        1.771        0.636      150.072       46.352        0.095      340.557       14.659      860.738
01/11/2015  14:31:00       66.643      114.110       -1.281       66.677       82.999       56.178     4445.768     6888.812     3155.919        1.597        0.725      132.146       51.727        0.153      340.543       14.635      860.727
01/11/2015  14:32:00      120.485       97.112       10.198       91.402       60.970       53.266     8354.271     3717.288     2837.232        1.948        0.745      154.750       37.138        0.058      340.360       14.325      860.721
01/11/2015  14:33:00       19.808      123.493       -7.606       54.359       73.962       42.882     2954.943     5470.379     1838.869        1.298        0.513      125.071       44.897        0.129      340.523       14.602      860.715
01/11/2015  14:34:00       19.823      167.794      -19.496       56.547      100.648       47.477     3197.593    10130.078     2254.043        2.225        0.779      168.961       56.985        0.114      340.448       14.472      860.710
01/11/2015  14:35:00       25.714      158.911        5.391       78.053       95.748       43.939     6092.332     9167.589     1930.605        2.156        0.860      160.978       56.064        0.121      340.494       14.551      860.703
01/11/2015  14:36:00      113.405       81.582       13.958       89.447       54.953       49.929     8000.809     3019.829     2492.913        1.661        0.676      139.701       25.289        0.033      340.628       14.780      860.700
01/11/2015  14:37:00       17.317       95.462       -0.882       40.368       46.358       31.449     1629.563     2149.089      989.049        0.709        0.238       97.020       27.072        0.078      340.520       14.597      860.703
01/11/2015  14:38:00       -5.615       80.279        4.990       64.567       44.393       34.963     4168.958     1970.702     1222.382        0.693        0.368       80.475       27.066        0.113      340.532       14.618      860.704
01/11/2015  14:39:00      144.159       96.575       27.786       57.408       42.688       43.484     3295.728     1822.267     1890.884        1.894        0.350      173.518       21.798        0.016      340.381       14.361      860.704
01/11/2015  14:40:00      129.791      104.151       14.003       58.058       53.126       44.998     3370.756     2822.364     2024.833        1.805        0.411      166.413       21.972        0.017      340.280       14.189      860.712
01/11/2015  14:41:00      179.159      125.445       23.194       90.474       60.057       53.625     8185.504     3606.795     2875.621        3.152        0.733      218.710       27.621        0.016      340.316       14.249      860.715
01/11/2015  14:42:00       51.397      103.362       -7.488       58.053       74.025       50.947     3370.170     5479.765     2595.555        1.241        0.572      115.435       47.234        0.167      340.387       14.373      860.732
01/11/2015  14:43:00       -7.182       57.555       -4.080       59.469       31.505       27.166     3536.574      992.590      737.973        0.432        0.263       58.002       17.094        0.087      340.634       14.790      860.739
01/11/2015  14:44:00       49.396      121.620       -3.794       48.522       76.006       39.709     2354.366     5776.901     1576.837        1.347        0.485      131.269       41.755        0.101      340.405       14.402      860.741
01/11/2015  14:45:00       40.827       76.082       -6.301       49.820       44.044       36.762     2482.080     1939.850     1351.437        0.663        0.289       86.344       30.897        0.128      340.459       14.495      860.727
01/11/2015  14:46:00       46.080      104.088      -17.602       30.437       37.117       24.392      926.441     1377.680      594.959        0.808        0.145      113.832       24.138        0.045      340.285       14.199      860.723
01/11/2015  14:47:00       57.913       51.548        5.683       44.127       32.625       25.578     1947.228     1064.395      654.211        0.485        0.183       77.531       18.972        0.060      340.471       14.513      860.723
01/11/2015  14:48:00       71.365       48.593       13.425       40.618       25.366       31.097     1649.858      643.410      967.007        0.545        0.163       86.338       12.044        0.019      340.387       14.372      860.713
01/11/2015  14:49:00      -23.609      132.362      -22.727       32.303       55.379       25.394     1043.475     3066.857      644.843        1.167        0.238      134.451       25.144        0.035      340.306       14.235      860.718
01/11/2015  14:50:00        0.841      112.890       -7.583       47.973       60.263       38.097     2301.421     3631.626     1451.415        1.009        0.369      112.893       37.780        0.112      340.445       14.470      860.704
01/11/2015  14:51:00       80.733      120.857      -21.314       40.214       65.716       38.485     1617.148     4318.531     1481.065        1.450        0.371      145.341       35.919        0.061      340.278       14.189      860.707
01/11/2015  14:52:00       49.237      113.477      -12.839       45.962       50.433       32.843     2112.519     2543.489     1078.634        1.060        0.287      123.698       30.320        0.060      340.309       14.240      860.703
01/11/2015  14:53:00       26.890       97.945       -8.116       51.872       56.770       33.201     2690.653     3222.860     1102.276        0.870        0.351      101.569       32.906        0.105      340.309       14.242      860.713
01/11/2015  14:54:00      -10.475       82.424       -4.867       24.859       34.885       23.956      617.961     1216.992      573.899        0.467        0.120       83.087       23.407        0.079      340.438       14.458      860.724
01/11/2015  14:55:00      -38.875       54.954       -2.312       28.468       28.989       24.156      810.445      840.358      583.506        0.338        0.112       67.314       18.973        0.079      340.648       14.813      860.735
01/11/2015  14:56:00        0.129       60.062       -1.318       18.456       58.538       17.964      340.639     3426.684      322.718        0.385        0.205       60.062       18.356        0.093      340.625       14.774      860.740
01/11/2015  14:57:00      -14.540      110.725       -9.445       21.910       38.480       21.914      480.042     1480.694      480.235        0.750        0.122      111.676       16.470        0.022      340.520       14.597      860.732
01/11/2015  14:58:00       -8.872       57.274       -1.700       39.909       41.583       29.661     1592.723     1729.183      879.767        0.378        0.210       57.957       30.708        0.281      340.581       14.701      860.721
01/11/2015  14:59:00       36.830       33.034       16.479       79.074       26.390       26.159     6252.671      696.416      684.317        0.517        0.382       49.474       28.427        0.330      340.503       14.569      860.701
01/11/2015  15:00:00      118.202       85.058       18.417       52.543       33.045       36.159     2760.782     1091.955     1307.504        1.335        0.258      145.625       28.667        0.039      340.459       14.494      860.690
01/11/2015  15:01:00       89.246       69.161       13.966       80.644       43.784       40.167     6503.419     1917.080     1613.421        1.149        0.502      112.907       40.076        0.126      340.622       14.771      860.676
01/11/2015  15:02:00      132.951       73.724       27.669       76.029       46.615       50.773     5780.413     2172.992     2577.923        1.720        0.527      152.024       28.780        0.036      340.473       14.516      860.690
01/11/2015  15:03:00       55.614       52.010       44.132       49.965       38.098       33.841     2496.504     1451.453     1145.204        0.642        0.255       76.145       18.274        0.058      340.653       14.822      860.704
01/11/2015  15:04:00      120.496       99.006       -7.787       47.084       34.024       26.670     2216.894     1157.650      711.281        1.423        0.204      155.954       18.059        0.013      340.303       14.230      860.715
01/11/2015  15:05:00      -12.144        6.391      -12.646       27.244       42.234       21.263      742.224     1783.707      452.102        0.166        0.149       13.723       18.783        1.873      340.400       14.394      860.720
01/11/2015  15:06:00      -28.578       82.305      -12.022       20.436       37.678       23.956      417.616     1419.628      573.893        0.507        0.121       87.125       23.424        0.072      340.625       14.774      860.728
01/11/2015  15:07:00       -4.698       52.588       -0.675       19.369       33.658       21.732      375.158     1132.868      472.297        0.238        0.099       52.797       22.508        0.182      340.799       15.070      860.733
01/11/2015  15:08:00       82.033       40.400        9.985       70.148       42.917       26.620     4920.801     1841.828      708.602        0.796        0.374       91.441       23.528        0.066      340.591       14.717      860.744
01/11/2015  15:09:00       77.481       70.576       -0.645       47.397       40.825       38.703     2246.464     1666.708     1497.897        0.820        0.271      104.806       30.462        0.084      340.400       14.394      860.766
01/11/2015  15:10:00       33.165       28.752       15.926       40.637       37.836       24.814     1651.335     1431.580      615.713        0.294        0.185       43.893       16.269        0.137      340.535       14.622      860.767
01/11/2015  15:11:00       22.069      118.255      -22.518       22.542       44.211       21.710      508.161     1954.619      471.311        0.896        0.147      120.296       17.970        0.022      340.342       14.298      860.768
01/11/2015  15:12:00       23.145      103.283       -8.748       35.052       30.542       25.900     1228.628      932.819      670.821        0.706        0.142      105.844       18.174        0.029      340.334       14.283      860.770
01/11/2015  15:13:00       14.212       75.782       -3.627       26.677       40.307       27.757      711.641     1624.687      770.436        0.453        0.155       77.103       22.193        0.083      340.406       14.403      860.764
01/11/2015  15:14:00       17.862       86.642      -10.513       33.223       29.031       20.439     1103.772      842.791      417.735        0.515        0.118       88.464       18.351        0.043      340.404       14.400      860.753
01/11/2015  15:15:00       55.586       39.850       19.994       27.649       15.252       21.717      764.479      232.622      471.638        0.327        0.073       68.395        3.600        0.003      340.421       14.430      860.723
01/11/2015  15:16:00      140.360       94.365       15.951       80.227       62.443       46.683     6436.368     3899.104     2179.280        2.068        0.626      169.132       37.230        0.048      340.523       14.600      860.706
01/11/2015  15:17:00      139.102       87.949       17.079       73.697       51.004       39.290     5431.188     2601.382     1543.742        1.847        0.479      164.574       18.447        0.013      340.464       14.502      860.717
01/11/2015  15:18:00       94.470      104.997       48.536       54.473       46.988       51.665     2967.341     2207.889     2669.284        1.507        0.392      141.241       31.803        0.051      340.544       14.639      860.731
01/11/2015  15:19:00      115.556      120.281       59.467       55.908       38.956       51.829     3125.693     1517.548     2686.261        1.934        0.366      166.796       40.281        0.058      340.479       14.527      860.739
01/11/2015  15:20:00       48.254       55.243       57.207       43.163       35.812       33.942     1863.084     1282.499     1152.032        0.647        0.215       73.351       31.211        0.181      340.565       14.672      860.752
01/11/2015  15:21:00       69.726      -95.384       14.665       46.752       62.424       44.668     2185.752     3896.708     1995.237        1.112        0.404      118.152       39.784        0.113      340.584       14.705      860.737
01/11/2015  15:22:00       65.099       -2.234       64.865       58.253       56.628       44.982     3393.466     3206.746     2023.357        0.854        0.431       65.137       35.073        0.290      340.685       14.876      860.741
01/11/2015  15:23:00       60.662       38.151       64.638       48.093       44.636       31.130     2312.931     1992.370      969.080        0.729        0.264       71.662       30.688        0.183      340.560       14.664      860.756
01/11/2015  15:24:00       61.918        1.878       24.627       36.403       21.747       24.663     1325.175      472.933      608.274        0.342        0.120       61.946       20.013        0.104      340.470       14.513      860.766
01/11/2015  15:25:00       14.129       24.114       11.087       21.263       14.259       15.470      452.113      203.327      239.309        0.090        0.045       27.948       11.822        0.179      340.486       14.540      860.768
01/11/2015  15:26:00       20.215       37.891       -5.344       15.996       10.693       10.853      255.879      114.331      117.778        0.118        0.024       42.947        9.186        0.046      340.359       14.322      860.773
01/11/2015  15:27:00      -42.236       -0.457       -3.295       30.212       18.499       13.002      912.739      342.210      169.048        0.161        0.071       42.238       11.335        0.072      340.597       14.728      860.789
01/11/2015  15:28:00      -51.304      -70.783        8.834       63.780       52.534       35.350     4067.929     2759.838     1249.589        0.790        0.404       87.420       30.759        0.124      340.671       14.853      860.802
01/11/2015  15:29:00      -19.732      -39.644       14.106       50.136       83.583       37.273     2513.622     6986.087     1389.244        0.652        0.544       44.283       41.019        0.858      340.611       14.751      860.788
01/11/2015  15:30:00     -156.181       55.153       -4.835       72.046       40.999       29.852     5190.555     1680.887      891.117        1.761        0.388      165.633       25.563        0.024      340.596       14.723      860.752
01/11/2015  15:31:00     -129.496      -70.199       -6.845       91.112       69.301       46.449     8301.386     4802.604     2157.533        1.850        0.763      147.299       36.565        0.062      340.681       14.869      860.748
01/11/2015  15:32:00      -31.968      -24.536        3.587       62.661       63.154       35.408     3926.343     3988.377     1253.761        0.540        0.458       40.298       34.925        0.751      340.850       15.156      860.747
01/11/2015  15:33:00      -77.485      -75.218        8.750       80.733       76.086       37.983     6517.752     5789.047     1442.693        1.274        0.687      107.989       36.259        0.113      340.828       15.116      860.757
01/11/2015  15:34:00      -82.667      -77.514        0.934       88.528       57.227       46.669     7837.135     3274.886     2178.015        1.306        0.665      113.324       33.023        0.085      340.727       14.948      860.766
01/11/2015  15:35:00     -145.873      -65.167        6.027       81.305       58.180       40.166     6610.466     3384.885     1613.309        1.858        0.580      159.768       37.033        0.054      340.711       14.918      860.773
01/11/2015  15:36:00      -50.364     -125.078       10.618       63.162       85.389       39.408     3989.385     7291.329     1552.955        1.556        0.642      134.837       39.626        0.086      340.656       14.827      860.786
01/11/2015  15:37:00     -197.711      -68.931      -14.757       71.239       60.294       37.579     5074.936     3635.349     1412.149        2.709        0.506      209.383       28.545        0.019      340.659       14.830      860.789
01/11/2015  15:38:00      -33.923      -10.551        8.353       55.823       34.339       29.676     3116.257     1179.162      880.685        0.325        0.259       35.526       28.473        0.642      340.861       15.174      860.787
01/11/2015  15:39:00      -12.513      -14.346       14.668       39.009       44.224       22.829     1521.724     1955.755      521.168        0.229        0.200       19.036       20.071        1.112      340.916       15.267      860.794
01/11/2015  15:40:00     -143.098      -50.708       12.311       96.035       85.109       48.585     9222.667     7243.475     2360.507        2.101        0.941      151.816       49.948        0.108      340.904       15.244      860.810
01/11/2015  15:41:00     -202.765     -197.920       -3.285      130.475      116.357       64.298    17023.819    13539.065     4134.252        5.749        1.735      283.348       73.120        0.067      340.540       14.628      860.807
01/11/2015  15:42:00     -189.082      -94.385        1.567       72.766       75.034       48.094     5294.833     5630.170     2313.078        2.895        0.662      211.331       31.907        0.023      340.567       14.673      860.813
01/11/2015  15:43:00     -180.206      -64.257       13.151      108.012       82.038       52.203    11666.627     6730.309     2725.128        2.894        1.056      191.320       57.867        0.091      340.611       14.749      860.814
01/11/2015  15:44:00     -127.004      -98.275       13.791      120.861       88.714       61.725    14607.494     7870.197     3810.034        2.613        1.314      160.586       69.130        0.185      340.603       14.735      860.820
01/11/2015  15:45:00     -134.939     -116.163        6.396      116.425      107.335       47.602    13554.823    11520.879     2265.974        2.954        1.367      178.051       58.596        0.108      340.613       14.753      860.831
01/11/2015  15:46:00     -255.339     -190.163       -7.126      119.289      140.523       67.939    14229.905    19746.719     4615.666        6.999        1.930      318.371       54.614        0.029      340.466       14.502      860.826
01/11/2015  15:47:00     -230.116     -179.834        6.885      166.779      107.954       72.558    27815.378    11653.984     5264.675        6.503        2.237      292.051       83.946        0.083      340.436       14.451      860.841
01/11/2015  15:48:00     -206.587     -146.419        6.928      138.565      135.165       72.932    19200.144    18269.452     5319.051        5.347        2.139      253.212       84.490        0.111      340.432       14.445      860.862
01/11/2015  15:49:00     -163.858      -67.762       -4.351      108.815       68.407       47.263    11840.688     4679.465     2233.750        2.510        0.938      177.316       55.167        0.097      340.433       14.447      860.892
01/11/2015  15:50:00     -221.584     -174.058       -6.136      118.434      103.782       68.340    14026.669    10770.784     4670.411        5.444        1.473      281.772       58.505        0.043      340.399       14.389      860.894
01/11/2015  15:51:00     -273.022     -188.488       -4.346      200.797      135.484       77.799    40319.444    18355.848     6052.643        8.739        3.236      331.766       95.359        0.083      340.356       14.317      860.904
01/11/2015  15:52:00     -251.913     -202.734        2.324      111.601       97.910       63.231    12454.895     9586.465     3998.217        6.530        1.302      323.360       57.468        0.032      340.304       14.228      860.930
01/11/2015  15:53:00     -214.462     -145.795        7.397      158.329       88.137       69.300    25068.091     7768.132     4802.435        5.246        1.882      259.326       75.396        0.085      340.329       14.271      860.927
01/11/2015  15:54:00     -302.722     -165.925       -4.855      129.897      105.862       63.398    16873.318    11206.706     4019.290        7.564        1.605      345.213       59.273        0.029      340.297       14.216      860.932
01/11/2015  15:55:00     -298.671     -159.562       -6.079      160.352      122.354       65.461    25712.658    14970.449     4285.205        7.983        2.248      338.621       73.298        0.047      340.270       14.171      860.938
01/11/2015  15:56:00     -262.383     -139.873      -17.653      112.582       89.263       51.292    12674.648     7967.971     2630.855        5.599        1.164      297.337       53.431        0.032      340.289       14.203      860.940
01/11/2015  15:57:00     -213.669      -72.711       19.352      151.388      120.771       72.755    22918.467    14585.733     5293.337        4.705        2.140      225.702       85.725        0.144      340.278       14.185      860.950
01/11/2015  15:58:00     -378.622     -213.584      -16.488      138.624      135.016       74.543    19216.532    18229.297     5556.656       11.612        2.150      434.710       75.059        0.030      340.210       14.069      860.946
01/11/2015  15:59:00     -235.264     -168.653       -7.712      158.128      109.631       74.630    25004.471    12018.973     5569.563        6.321        2.130      289.470       70.386        0.059      340.218       14.083      860.953
01/11/2015  16:00:00     -451.449     -266.998      -30.811      157.778      165.393       85.219    24894.050    27354.730     7262.320       16.777        2.976      524.494       80.134        0.023      340.152       13.971      860.969
01/11/2015  16:01:00     -281.249     -120.882       -2.975      147.263       94.356       53.990    21686.426     8903.118     2914.908        6.361        1.675      306.127       69.897        0.052      340.173       14.007      860.978
01/11/2015  16:02:00     -333.031      -86.563      -27.605      131.840      118.697       60.622    17381.734    14089.021     3674.974        7.715        1.757      344.097       66.910        0.038      340.158       13.982      860.988
01/11/2015  16:03:00     -321.935     -136.503      -12.536      155.083      106.861       60.761    24050.891    11419.304     3691.876        8.079        1.958      349.679       68.133        0.038      340.135       13.942      860.996
01/11/2015  16:04:00     -253.992     -105.970       -7.566      132.167       92.018       61.628    17468.101     8467.298     3798.060        5.276        1.487      275.212       72.425        0.069      340.149       13.968      861.012
01/11/2015  16:05:00     -268.299     -149.759      -17.182      106.790       73.003       52.245    11404.176     5329.459     2729.539        5.708        0.973      307.266       47.101        0.023      340.136       13.945      861.024
01/11/2015  16:06:00     -200.026     -125.435       -8.010      128.688       96.734       46.972    16560.643     9357.522     2206.358        4.196        1.406      236.102       54.148        0.053      340.131       13.938      861.030
01/11/2015  16:07:00     -253.141     -107.425      -18.423      138.191      102.728       54.840    19096.750    10553.002     3007.453        5.430        1.633      274.992       63.676        0.054      340.105       13.893      861.047
01/11/2015  16:08:00     -220.476     -164.386        1.982      140.967      132.375       63.239    19871.612    17523.199     3999.168        5.851        2.070      275.014       75.512        0.075      340.078       13.849      861.053
01/11/2015  16:09:00     -265.995     -146.561       16.956      169.024      132.000       74.540    28569.175    17423.963     5556.164        7.202        2.577      303.700       90.867        0.090      340.051       13.802      861.052
01/11/2015  16:10:00     -283.674     -165.015       -6.176      135.797       91.521       68.936    18440.902     8376.068     4752.197        6.965        1.578      328.178       72.127        0.048      340.031       13.768      861.078
01/11/2015  16:11:00     -231.042     -132.995      -10.333      125.138       84.506       61.908    15659.515     7141.348     3832.625        4.890        1.332      266.586       63.824        0.057      340.028       13.762      861.088
01/11/2015  16:12:00     -283.109      -91.158      -11.186      145.984       98.809       65.312    21311.274     9763.262     4265.670        6.196        1.767      297.423       79.917        0.072      340.022       13.754      861.087
01/11/2015  16:13:00     -251.857     -123.682       -0.276      124.499      126.028       68.960    15499.899    15883.070     4755.520        5.743        1.807      280.588       64.405        0.053      339.995       13.708      861.093
01/11/2015  16:14:00     -266.513      -64.430       -2.849      101.011      101.696       60.326    10203.268    10341.985     3639.193        4.968        1.209      274.191       59.130        0.047      339.985       13.689      861.114
01/11/2015  16:15:00     -258.247      -61.250       -2.575      170.262      105.598       64.649    28989.199    11150.946     4179.442        5.738        2.216      265.411       72.976        0.076      339.976       13.675      861.123
01/11/2015  16:16:00     -214.631     -124.248        0.788      170.408      136.300       75.741    29038.873    18577.800     5736.705        5.742        2.668      248.000       96.594        0.152      339.946       13.627      861.103
01/11/2015  16:17:00     -283.700     -250.655       -3.404      171.351      154.703       83.437    29361.298    23933.159     6961.794       10.178        3.013      378.568       89.748        0.056      339.915       13.572      861.102
01/11/2015  16:18:00     -167.643      -87.702        4.484      119.265       92.844       57.504    14224.254     8620.033     3306.705        3.098        1.308      189.198       67.558        0.128      339.914       13.572      861.110
01/11/2015  16:19:00     -187.041     -183.659        3.373      160.192      103.616       64.962    25661.608    10736.186     4220.006        5.466        2.031      262.135       66.332        0.064      339.902       13.551      861.128
01/11/2015  16:20:00     -296.510     -130.045      -14.760      110.717       89.822       56.574    12258.171     8068.031     3200.646        6.428        1.176      323.774       43.882        0.018      339.892       13.532      861.126
01/11/2015  16:21:00     -319.029     -107.142      -19.338      111.027      143.504       60.337    12327.046    20593.476     3640.534        7.509        1.828      336.540       46.513        0.019      339.869       13.492      861.133
01/11/2015  16:22:00     -321.700     -117.462      -25.702      174.351      101.586       67.968    30398.240    10319.655     4619.625        8.163        2.267      342.474       83.321        0.059      339.857       13.474      861.142
01/11/2015  16:23:00     -362.962     -121.945      -20.657      150.561      112.075       63.737    22668.615    12560.885     4062.349        9.316        1.965      382.899       57.642        0.023      339.836       13.439      861.142
01/11/2015  16:24:00     -283.163     -107.901        0.181      148.100      156.028       73.614    21933.481    24344.787     5419.083        7.175        2.585      303.025       68.855        0.052      339.820       13.411      861.145
01/11/2015  16:25:00     -233.483     -176.435       -3.893      114.478      104.839       66.807    13105.180    10991.309     4463.198        5.710        1.428      292.649       69.462        0.056      339.802       13.381      861.146
01/11/2015  16:26:00     -280.572     -124.297      -10.340      138.615       92.710       51.590    19214.254     8595.115     2661.492        6.237        1.524      306.872       66.314        0.047      339.784       13.353      861.155
01/11/2015  16:27:00     -236.243      -34.986       10.052      134.530      123.943       61.728    18098.189    15361.765     3810.360        4.720        1.864      238.820       67.640        0.080      339.773       13.334      861.167
01/11/2015  16:28:00     -272.561     -133.837       -7.090      170.814      127.176       75.501    29177.490    16173.613     5700.416        7.164        2.553      303.647       90.497        0.089      339.765       13.321      861.168
01/11/2015  16:29:00     -380.199     -140.770      -26.896      102.718      104.097       64.991    10550.993    10836.207     4223.796        9.535        1.281      405.423       49.040        0.015      339.743       13.282      861.183
01/11/2015  16:30:00     -194.746     -105.936       -2.645      111.554       93.686       56.911    12444.271     8777.139     3238.885        3.680        1.223      221.695       62.884        0.080      339.734       13.268      861.182
01/11/2015  16:31:00     -219.131     -151.637        2.738      139.252      133.969       72.231    19391.179    17947.743     5217.357        5.678        2.128      266.481       79.281        0.089      339.728       13.259      861.177
01/11/2015  16:32:00     -258.885      -84.127        4.256      136.074      114.702       60.043    18516.030    13156.519     3605.136        5.469        1.764      272.211       67.472        0.061      339.718       13.242      861.177
01/11/2015  16:33:00     -162.803      -29.315       -5.194      127.633       67.647       41.971    16290.131     4576.057     1761.534        2.500        1.131      165.421       57.407        0.120      339.709       13.227      861.186
01/11/2015  16:34:00     -216.506     -120.396      -22.033       99.596       83.283       44.551     9919.372     6936.115     1984.815        4.034        0.942      247.730       46.832        0.036      339.693       13.198      861.187
01/11/2015  16:35:00     -195.112      -45.310       -0.563      118.381      100.898       65.599    14013.957    10180.453     4303.223        3.430        1.425      200.304       64.278        0.103      339.661       13.144      861.198
01/11/2015  16:36:00     -273.175     -169.978       -0.009      183.689      157.135       83.183    33741.655    24691.266     6919.416        8.442        3.268      321.740       89.695        0.078      339.663       13.146      861.187
01/11/2015  16:37:00     -238.508     -161.184      -19.507      137.513      138.225       75.178    18909.862    19106.107     5651.768        6.345        2.183      287.865       59.561        0.043      339.646       13.119      861.188
01/11/2015  16:38:00     -213.846      -95.630       -0.580      127.573       97.419       59.500    16274.797     9490.428     3540.225        4.208        1.465      234.255       58.407        0.062      339.647       13.121      861.192
01/11/2015  16:39:00     -166.649     -125.082      -15.684      105.678      100.772       55.709    11167.830    10154.933     3103.525        3.404        1.221      208.368       61.245        0.086      339.627       13.088      861.204
01/11/2015  16:40:00     -103.836     -105.438        6.462      133.805      133.989       49.982    17903.883    17953.141     2498.217        3.014        1.918      147.984       66.770        0.204      339.612       13.063      861.218
01/11/2015  16:41:00     -238.407      -91.447       -4.548      135.261      103.725       59.165    18295.519    10758.834     3500.445        4.888        1.628      255.344       63.485        0.062      339.580       13.009      861.210
01/11/2015  16:42:00     -275.488      -38.887       -5.705      120.985       97.160       61.436    14637.330     9439.994     3774.344        5.264        1.393      278.219       56.024        0.041      339.567       12.986      861.222
01/11/2015  16:43:00     -221.462       11.797       -0.132      119.242       89.417       51.504    14218.600     7995.487     2652.639        3.702        1.243      221.776       54.260        0.060      339.551       12.960      861.226
01/11/2015  16:44:00     -212.752     -159.319       -6.923      136.959      116.855       61.836    18757.703    13655.134     3823.692        5.346        1.812      265.793       69.114        0.068      339.527       12.918      861.233
01/11/2015  16:45:00     -205.516     -128.107       10.326      123.737       90.722       62.099    15310.754     8230.490     3856.281        4.307        1.370      242.174       65.845        0.074      339.515       12.898      861.240
01/11/2015  16:46:00     -168.200      -70.745       -7.538      120.796      109.052       55.634    14591.736    11892.280     3095.163        3.146        1.479      182.472       67.184        0.136      339.504       12.879      861.235
01/11/2015  16:47:00     -150.695      -59.529        7.333      102.215       86.664       51.373    10447.982     7510.565     2639.160        2.345        1.030      162.027       54.536        0.113      339.481       12.841      861.244
01/11/2015  16:48:00     -276.000     -178.441       -6.975      125.404      115.223       65.610    15726.104    13276.426     4304.619        7.068        1.665      328.659       65.900        0.040      339.481       12.840      861.246
01/11/2015  16:49:00     -213.383     -106.499        0.144      105.002       84.933       62.547    11025.348     7213.622     3912.172        3.951        1.108      238.483       55.141        0.053      339.455       12.796      861.252
01/11/2015  16:50:00     -137.708      -85.760       14.552      132.356       91.895       74.687    17518.232     8444.718     5578.209        2.903        1.577      162.229       78.487        0.234      339.450       12.789      861.251
01/11/2015  16:51:00     -292.344     -136.174       -7.730      122.466      136.563       68.671    14997.913    18649.515     4715.770        7.121        1.918      322.503       56.934        0.031      339.454       12.795      861.258
01/11/2015  16:52:00     -327.291     -182.952      -24.880      167.498      145.864       78.631    28055.419    21276.247     6182.827        9.835        2.776      374.954       81.862        0.048      339.452       12.791      861.261
01/11/2015  16:53:00     -379.931     -181.745      -21.352      134.657      144.706       82.641    18132.450    20939.790     6829.476       11.186        2.295      421.164       77.058        0.033      339.435       12.764      861.254
01/11/2015  16:54:00     -330.045     -160.414      -22.598      134.549      115.403       64.364    18103.389    13317.878     4142.778        8.536        1.778      366.964       64.794        0.031      339.399       12.702      861.265
01/11/2015  16:55:00     -276.201      -69.042       -8.801      137.067      146.158       67.092    18787.298    21362.074     4501.322        6.288        2.233      284.700       77.199        0.074      339.372       12.657      861.297
01/11/2015  16:56:00     -290.951      -88.866      -20.056      110.823      118.521       68.913    12281.713    14047.179     4749.066        6.201        1.554      304.220       64.863        0.045      339.384       12.677      861.316
01/11/2015  16:57:00     -122.683      -55.655        5.935      116.343       87.092       61.889    13535.688     7585.000     3830.187        2.156        1.248      134.717       56.702        0.177      339.359       12.638      861.326
01/11/2015  16:58:00     -273.056     -106.163      -10.562      187.913      121.756       77.846    35311.135    14824.562     6059.937        7.106        2.810      292.967       93.337        0.101      339.350       12.621      861.336
01/11/2015  16:59:00     -249.448      -94.287       -6.223      129.751      105.450       56.983    16835.328    11119.744     3247.054        5.117        1.560      266.673       54.154        0.041      339.343       12.607      861.338
01/11/2015  17:00:00     -226.677      -84.303      -12.762      108.154       96.084       57.236    11697.367     9232.153     3275.936        4.142        1.210      241.846       60.515        0.063      339.327       12.582      861.347
01/11/2015  17:01:00     -244.597     -191.798       -3.260      161.437      120.232       65.565    26061.796    14455.789     4298.787        7.071        2.241      310.828       86.577        0.078      339.325       12.577      861.345
01/11/2015  17:02:00     -246.186      -50.285      -17.121      151.431       86.428       57.003    22931.301     7469.822     3249.342        4.853        1.683      251.269       70.879        0.080      339.297       12.529      861.341
01/11/2015  17:03:00     -134.653      -80.509        4.475       87.005      105.286       40.512     7569.795    11085.197     1641.242        2.246        1.015      156.886       35.064        0.050      339.300       12.537      861.334
01/11/2015  17:04:00     -225.512     -132.907       -7.636      116.846       99.737       63.781    13653.073     9947.489     4068.028        4.812        1.383      261.763       54.789        0.044      339.257       12.463      861.314
01/11/2015  17:05:00     -318.988     -105.444        0.632      145.566      143.218       80.667    21189.579    20511.322     6507.227        8.053        2.410      335.964       76.201        0.051      339.243       12.439      861.295
01/11/2015  17:06:00     -318.670       -0.879      -14.062       96.040       86.473       51.297     9223.588     7477.538     2631.386        6.054        0.967      318.671       44.288        0.019      339.234       12.424      861.314
01/11/2015  17:07:00     -149.652      -71.621      -17.946      124.166      114.643       53.832    15417.203    13143.099     2897.839        2.965        1.573      165.908       51.475        0.096      339.197       12.363      861.320
01/11/2015  17:08:00     -291.489     -119.290      -16.859      112.573      101.662       53.662    12672.585    10335.091     2879.613        6.268        1.294      314.954       57.128        0.033      339.198       12.364      861.323
01/11/2015  17:09:00     -253.369      -22.109      -10.264      114.536       87.349       45.525    13118.563     7629.917     2072.496        4.380        1.141      254.332       44.314        0.030      339.151       12.285      861.336
01/11/2015  17:10:00     -296.506      -77.324      -20.241      121.908       89.344       54.767    14861.454     7982.355     2999.437        6.007        1.292      306.422       62.612        0.042      339.117       12.228      861.331
01/11/2015  17:11:00     -192.372      -84.848       -1.903       87.358       92.078       51.860     7631.464     8478.273     2689.457        3.150        0.940      210.252       50.617        0.058      339.086       12.177      861.353
01/11/2015  17:12:00     -253.068      -22.400       -9.659      131.298      110.879       53.958    17239.224    12294.222     2911.475        4.854        1.622      254.058       59.505        0.055      339.055       12.123      861.370
01/11/2015  17:13:00     -299.988      -11.407      -14.756      101.322      111.245       56.410    10266.242    12375.490     3182.113        5.808        1.291      300.205       53.241        0.031      339.045       12.106      861.389
01/11/2015  17:14:00     -290.217       21.288      -23.354      151.074       94.764       55.813    22823.216     8980.174     3115.105        6.006        1.746      290.997       65.997        0.051      339.045       12.108      861.408
01/11/2015  17:15:00     -189.755      -58.386       -7.052       96.307       87.151       51.307     9275.057     7595.254     2632.414        2.948        0.975      198.535       51.266        0.067      339.011       12.049      861.412
01/11/2015  17:16:00     -223.217      -75.854       -8.862       95.386       95.747       53.429     9098.474     9167.495     2854.642        3.839        1.056      235.754       48.192        0.042      339.004       12.038      861.413
01/11/2015  17:17:00     -210.174       11.721       -9.095      132.959       80.630       57.574    17678.209     6501.237     3314.732        3.594        1.375      210.501       62.015        0.087      338.988       12.012      861.400
01/11/2015  17:18:00     -312.808      -97.457       -9.080      187.025      107.614       68.532    34978.232    11580.820     4696.571        7.933        2.563      327.638       84.631        0.067      338.991       12.016      861.412
01/11/2015  17:19:00     -246.926      -29.829       -7.846      122.980       74.541       46.936    15124.114     5556.425     2203.013        4.240        1.144      248.721       51.727        0.043      338.964       11.970      861.415
01/11/2015  17:20:00     -347.358     -108.211      -13.547      121.841       93.389       58.154    14845.341     8721.430     3381.918        7.974        1.347      363.823       59.672        0.027      338.967       11.975      861.424
01/11/2015  17:21:00     -394.456      -94.471      -16.696      152.095      103.316       63.083    23132.993    10674.238     3979.525       10.129        1.889      405.611       66.602        0.027      338.959       11.961      861.421
01/11/2015  17:22:00     -343.223      -61.723      -18.564      132.705      124.663       67.196    17610.628    15540.775     4515.308        7.980        1.883      348.728       63.491        0.033      338.931       11.912      861.434
01/11/2015  17:23:00     -333.468      -18.984       -0.742      197.677      116.529       79.019    39076.134    13578.966     6243.990        8.522        2.945      334.008       94.357        0.080      338.951       11.949      861.450
01/11/2015  17:24:00     -370.125     -130.304       -9.595      186.592      126.697       69.258    34816.448    16052.247     4796.706       10.485        2.783      392.392       86.461        0.049      338.987       12.009      861.472
01/11/2015  17:25:00     -401.180      -78.625      -11.174      188.249      118.812       70.167    35437.827    14116.404     4923.401       11.085        2.724      408.812       71.169        0.030      339.000       12.031      861.494
01/11/2015  17:26:00     -291.729      -50.971      -11.096      132.173       99.865       63.949    17469.760     9972.955     4089.426        5.967        1.577      296.149       71.212        0.058      338.934       11.919      861.522
01/11/2015  17:27:00     -434.970     -108.220      -30.591      187.779      123.199       69.487    35261.028    15177.889     4828.427       12.855        2.763      448.230       86.820        0.038      338.980       11.997      861.514
01/11/2015  17:28:00     -419.101      -82.899      -18.726      170.358      117.468       66.608    29021.833    13798.639     4436.658       11.505        2.363      427.221       71.773        0.028      338.941       11.933      861.517
01/11/2015  17:29:00     -317.161       -9.093      -12.461      143.719       98.558       63.748    20655.145     9713.731     4063.810        6.762        1.722      317.292       68.875        0.047      338.913       11.885      861.518
01/11/2015  17:30:00     -313.634      -25.083      -14.585      109.730      106.302       59.325    12040.593    11300.170     3519.420        6.303        1.343      314.635       61.259        0.038      338.900       11.864      861.537
01/11/2015  17:31:00     -466.541      -81.021      -11.221      177.949      138.853       81.382    31665.934    19280.287     6623.087       14.095        2.878      473.524       80.364        0.029      338.913       11.884      861.515
01/11/2015  17:32:00     -406.712      -65.515      -13.596      169.571      107.163       78.200    28754.424    11483.941     6115.236       10.811        2.318      411.955       88.383        0.046      338.914       11.888      861.538
01/11/2015  17:33:00     -377.462      -97.390      -15.672      140.837       94.279       68.267    19835.036     8888.615     4660.374        9.279        1.669      389.823       69.446        0.032      338.908       11.877      861.551
01/11/2015  17:34:00     -500.145     -118.304      -23.645      177.376      137.213       71.030    31462.351    18827.418     5045.285       16.001        2.767      513.947       77.660        0.023      338.923       11.901      861.575
01/11/2015  17:35:00     -440.763      -78.888      -10.467      207.324      147.265       91.935    42983.390    21686.999     8452.057       13.685        3.656      447.767      103.121        0.053      338.913       11.884      861.613
01/11/2015  17:36:00     -395.855      -52.512       -3.634      187.787      134.369       81.982    35264.093    18055.150     6721.002       10.974        3.002      399.323       89.401        0.050      338.893       11.850      861.635
01/11/2015  17:37:00     -513.255     -102.510      -31.170      153.717      157.001       66.772    23628.931    24649.183     4458.446       16.381        2.637      523.392       70.531        0.018      338.914       11.886      861.664
01/11/2015  17:38:00     -419.343      -95.303      -21.806      143.153      143.726       74.974    20492.862    20657.226     5621.046       11.608        2.339      430.036       78.867        0.034      338.895       11.854      861.690
01/11/2015  17:39:00     -373.142      -77.900      -17.098      172.776      169.164       76.104    29851.700    28616.397     5791.811       10.492        3.213      381.186       79.014        0.043      338.875       11.820      861.713
01/11/2015  17:40:00     -399.150      -89.127      -10.779      182.200      131.617       82.420    33196.733    17322.915     6793.131       11.233        2.866      408.979       91.706        0.050      338.893       11.851      861.734
01/11/2015  17:41:00     -311.906       11.117      -17.027      176.712      117.355       65.739    31227.278    13772.124     4321.591        7.350        2.466      312.104       67.005        0.046      338.855       11.787      861.756
01/11/2015  17:42:00     -466.508     -100.541      -23.651      134.420      130.264       62.387    18068.757    16968.652     3892.197       13.361        1.946      477.219       60.636        0.016      338.875       11.822      861.770
01/11/2015  17:43:00     -296.896      -20.695        0.810      206.458      111.289       76.255    42625.110    12385.273     5814.865        7.469        3.041      297.617       91.701        0.095      338.855       11.788      861.770
01/11/2015  17:44:00     -368.293      -34.042      -11.393      144.476      154.841       67.490    20873.291    23975.858     4554.874        9.316        2.470      369.863       69.407        0.035      338.853       11.784      861.783
01/11/2015  17:45:00     -330.143      -50.237      -16.006      165.249      107.942       64.934    27307.146    11651.422     4216.462        7.747        2.159      333.943       74.133        0.049      338.854       11.783      861.788
01/11/2015  17:46:00     -386.247       14.622      -39.694      127.142      151.417       51.618    16165.040    22927.004     2664.459        9.636        2.088      386.524       50.392        0.017      338.849       11.777      861.795
01/11/2015  17:47:00     -310.238      -73.104      -11.010      134.331      121.475       60.475    18044.748    14756.195     3657.261        6.908        1.823      318.735       67.270        0.045      338.821       11.730      861.798
01/11/2015  17:48:00     -302.971      -44.877       -0.102      168.119      113.002       61.556    28263.989    12769.355     3789.112        6.930        2.241      306.276       70.300        0.053      338.815       11.721      861.804
01/11/2015  17:49:00     -276.559      -79.542       -9.140      121.564       86.090       58.027    14777.880     7411.493     3367.103        5.422        1.278      287.770       53.941        0.035      338.794       11.684      861.812
01/11/2015  17:50:00     -393.954      -15.845      -21.021      129.893      111.765       63.084    16872.081    12491.385     3979.592        9.461        1.667      394.273       64.877        0.027      338.784       11.666      861.832
01/11/2015  17:51:00     -281.137      -52.649       -2.011      164.592      117.180       69.960    27090.514    13731.162     4894.430        6.376        2.286      286.024       70.565        0.061      338.780       11.662      861.815
01/11/2015  17:52:00     -295.276       14.486       -8.436      125.997       98.554       60.990    15875.182     9712.896     3719.829        5.838        1.465      295.631       50.341        0.029      338.776       11.655      861.855
01/11/2015  17:53:00     -264.587     -115.258       -0.986      196.577      145.628       79.532    38642.472    21207.479     6325.416        7.472        3.309      288.601       79.716        0.076      338.799       11.694      861.857
01/11/2015  17:54:00     -327.169     -195.335        1.836      225.811      153.990      104.358    50990.436    23712.769    10890.653       11.538        4.280      381.044      115.018        0.091      338.877       11.824      861.854
01/11/2015  17:55:00     -292.036     -130.161      -40.879      138.541      134.608       69.296    19193.640    18119.392     4801.932        7.300        2.106      319.729       68.204        0.046      338.872       11.815      861.867
01/11/2015  17:56:00     -319.260      -81.816        2.709      209.667      169.599       79.177    43960.079    28763.895     6269.017        9.379        3.950      329.577       95.429        0.084      338.848       11.775      861.889
01/11/2015  17:57:00     -466.942      -34.254      -40.222      188.062      121.602       76.716    35367.444    14787.014     5885.319       13.842        2.802      468.197       86.049        0.034      338.844       11.767      861.911
01/11/2015  17:58:00     -390.962      -59.608      -10.204      164.430      101.073       71.832    27037.216    10215.697     5159.798        9.945        2.121      395.480       70.724        0.032      338.811       11.713      861.931
01/11/2015  17:59:00     -261.695      -48.409      -21.035       96.121       88.177       56.947     9239.252     7775.224     3242.925        4.576        1.013      266.134       44.636        0.028      338.791       11.680      861.963
01/11/2015  18:00:00     -412.586      -20.517      -33.083      153.586      125.661       69.550    23588.741    15790.637     4837.208       10.797        2.211      413.096       61.710        0.022      338.785       11.671      861.983
01/11/2015  18:01:00     -322.304      -53.966      -21.738      134.916      129.730       57.950    18202.395    16829.826     3358.210        7.282        1.920      326.790       60.267        0.034      338.721       11.563      862.016
01/11/2015  18:02:00     -173.600      -69.593        5.859      117.048       99.215       59.153    13700.167     9843.676     3499.041        3.102        1.352      187.030       61.696        0.109      338.672       11.479      862.042
01/11/2015  18:03:00     -292.135      -41.208       -7.010      113.541      111.244       67.216    12891.548    12375.291     4518.022        5.843        1.489      295.027       67.108        0.052      338.664       11.465      862.055
01/11/2015  18:04:00     -313.641      -56.709      -28.792      162.208      123.113       55.854    26311.352    15156.794     3119.631        7.349        2.229      318.726       64.767        0.041      338.667       11.470      862.075
01/11/2015  18:05:00     -167.056     -102.960        4.520      121.679      149.200       61.002    14805.732    22260.628     3721.297        3.965        2.039      196.236       68.076        0.120      338.671       11.480      862.079
01/11/2015  18:06:00     -199.433       41.734        8.509      167.744       79.403       63.705    28138.168     6304.765     4058.335        4.004        1.925      203.753       78.706        0.149      338.611       11.379      862.097
01/11/2015  18:07:00     -305.138      -22.142      -17.501      200.072      111.740       70.487    40028.854    12485.879     4968.483        7.568        2.874      305.940       67.996        0.049      338.652       11.448      862.100
01/11/2015  18:08:00     -223.477       -5.233        1.712      103.021      115.959       62.511    10613.338    13446.381     3907.576        3.896        1.398      223.538       55.889        0.063      338.622       11.396      862.124
01/11/2015  18:09:00     -196.500      -10.887       -4.060      115.484       85.102       53.925    13336.573     7242.425     2907.944        3.111        1.174      196.802       53.447        0.074      338.606       11.371      862.126
01/11/2015  18:10:00     -225.515      -41.286       -4.092      125.187      104.976       58.215    15671.904    11020.026     3388.985        4.132        1.504      229.263       59.447        0.067      338.591       11.345      862.136
01/11/2015  18:11:00     -292.734       17.147       -7.871      132.121      100.227       59.063    17455.828    10045.368     3488.468        5.851        1.549      293.236       54.207        0.034      338.592       11.346      862.144
01/11/2015  18:12:00     -246.342      -16.763       -2.567      137.423      102.329       62.965    18885.212    10471.277     3964.630        4.714        1.666      246.912       72.139        0.085      338.566       11.302      862.167
01/11/2015  18:13:00     -237.062     -139.966      -14.789      152.089      103.789       65.073    23131.027    10772.233     4234.511        5.707        1.907      275.298       74.607        0.073      338.572       11.311      862.179
01/11/2015  18:14:00     -171.429      -32.195        7.799      149.612      101.047       61.873    22383.771    10210.547     3828.323        3.345        1.821      174.426       62.568        0.129      338.548       11.272      862.179
01/11/2015  18:15:00     -274.526      -52.341      -25.886      141.482       96.059       56.750    20017.258     9227.377     3220.592        5.561        1.623      279.471       66.282        0.056      338.576       11.319      862.200
01/11/2015  18:16:00     -330.037      -64.400      -13.676      136.838       94.747       52.386    18724.572     8976.922     2744.268        7.185        1.522      336.261       38.991        0.013      338.571       11.311      862.216
01/11/2015  18:17:00     -344.443      -18.295      -26.735      143.705      106.936       71.876    20651.103    11435.230     5166.201        7.846        1.863      344.928       75.751        0.048      338.568       11.306      862.224
01/11/2015  18:18:00     -417.020     -108.927      -13.889      192.400      123.923       76.740    37017.820    15357.021     5889.002       12.210        2.913      431.011       93.195        0.047      338.596       11.353      862.221
01/11/2015  18:19:00     -334.129      -62.391      -17.677      141.595       94.431       57.816    20049.017     8917.215     3342.703        7.407        1.615      339.905       54.668        0.026      338.571       11.311      862.229
01/11/2015  18:20:00     -272.718      -28.277       -8.606      144.677      114.585       60.356    20931.537    13129.818     3642.885        5.647        1.885      274.180       70.445        0.066      338.555       11.284      862.240
01/11/2015  18:21:00     -369.275      -78.232      -24.363      146.617      120.036       75.399    21496.679    14408.612     5685.045        9.233        2.080      377.471       83.968        0.049      338.556       11.285      862.239
01/11/2015  18:22:00     -299.441      -77.471      -16.026      127.809      105.776       68.099    16335.237    11188.530     4637.522        6.404        1.608      309.300       72.624        0.055      338.570       11.309      862.247
01/11/2015  18:23:00     -353.809      -74.593      -14.462      138.672      114.032       75.043    19229.952    13003.274     5631.444        8.440        1.893      361.587       67.659        0.035      338.584       11.332      862.263
01/11/2015  18:24:00     -403.397      -44.216      -27.526      157.819      125.253       80.637    24906.788    15688.247     6502.313       10.626        2.355      405.813       73.661        0.033      338.598       11.355      862.297
01/11/2015  18:25:00     -364.711      -70.331      -15.174      154.628      130.097       62.779    23909.908    16925.269     3941.257        9.147        2.239      371.430       78.501        0.045      338.596       11.352      862.325
01/11/2015  18:26:00     -407.125      -31.139      -19.760      121.175       94.703       61.340    14683.401     8968.716     3762.582        9.726        1.371      408.314       64.699        0.025      338.602       11.362      862.334
01/11/2015  18:27:00     -392.959      -80.046      -17.375      150.138      130.860       68.421    22541.481    17124.289     4681.434       10.273        2.217      401.029       78.297        0.038      338.618       11.390      862.352
01/11/2015  18:28:00     -398.861      -84.290      -22.556      146.167      108.900       66.779    21364.686    11859.143     4459.368       10.219        1.884      407.670       72.331        0.031      338.610       11.376      862.370
01/11/2015  18:29:00     -289.809      -21.532       -9.439      129.518      116.830       67.597    16774.950    13649.286     4569.348        5.976        1.750      290.608       63.738        0.048      338.582       11.329      862.374
01/11/2015  18:30:00     -357.818      -75.379      -15.139      114.563       96.923       51.544    13124.653     9394.007     2656.813        7.956        1.259      365.672       48.777        0.018      338.566       11.302      862.381
01/11/2015  18:31:00     -363.007     -116.383       -5.013      185.689      121.032       78.082    34480.297    14648.720     6096.836       10.027        2.761      381.207       89.654        0.055      338.578       11.321      862.389
01/11/2015  18:32:00     -328.536      -31.496       -2.237      134.693      131.300       60.786    18142.209    17239.608     3694.991        7.400        1.954      330.043       64.658        0.038      338.565       11.302      862.415
01/11/2015  18:33:00     -342.517     -127.508       -5.519      153.953      131.333       75.257    23701.547    17248.427     5663.644        9.010        2.331      365.480       86.428        0.056      338.591       11.343      862.423
01/11/2015  18:34:00     -286.761      -57.198       -8.852      145.222      116.434       68.697    21089.361    13556.847     4719.265        6.247        1.968      292.410       72.119        0.061      338.594       11.348      862.431
01/11/2015  18:35:00     -300.961      -90.122       -7.666      142.902      125.529       69.673    20420.868    15757.591     4854.314        6.989        2.052      314.165       73.829        0.055      338.583       11.331      862.466
01/11/2015  18:36:00     -350.082      -70.987      -18.104      150.009       99.197       64.204    22502.577     9840.135     4122.187        8.219        1.823      357.207       72.950        0.042      338.578       11.321      862.485
01/11/2015  18:37:00     -371.170      -76.994      -11.454      138.230      114.005       65.941    19107.449    12997.099     4348.255        9.013        1.823      379.071       71.914        0.036      338.579       11.323      862.486
01/11/2015  18:38:00     -241.417      -90.001      -20.274      102.330       99.697       55.126    10471.417     9939.414     3038.839        4.512        1.172      257.648       52.959        0.042      338.555       11.284      862.494
01/11/2015  18:39:00     -258.065      -69.532       -2.297      116.514      125.130       60.146    13575.518    15657.541     3617.521        5.214        1.643      267.268       57.726        0.047      338.555       11.283      862.494
01/11/2015  18:40:00     -252.470       -1.145        6.379      133.558       94.709       62.563    17837.662     8969.880     3914.138        4.725        1.536      252.472       66.475        0.069      338.546       11.268      862.511
01/11/2015  18:41:00     -328.852       19.928      -21.376      114.991      109.285       52.188    13222.984    11943.259     2723.547        6.844        1.394      329.455       52.038        0.025      338.577       11.319      862.519
01/11/2015  18:42:00     -268.089       13.503      -27.519      119.913       96.188       51.430    14379.089     9252.214     2645.062        4.954        1.314      268.429       50.745        0.036      338.557       11.286      862.521
01/11/2015  18:43:00     -156.437      -77.925      -11.259      100.407      102.468       52.740    10081.466    10499.776     2781.528        2.701        1.168      174.771       60.190        0.119      338.543       11.263      862.523
01/11/2015  18:44:00     -187.084       -2.936       -4.106      117.787       77.801       43.732    13873.798     6052.932     1912.497        2.843        1.092      187.107       56.847        0.092      338.524       11.233      862.546
01/11/2015  18:45:00     -271.985      -60.528      -17.444      114.443       77.162       57.854    13097.274     5954.038     3347.076        5.017        1.120      278.638       54.719        0.039      338.550       11.274      862.551
01/11/2015  18:46:00     -283.721      -53.986      -20.112      102.780       98.507       53.045    10563.816     9703.726     2813.806        5.344        1.154      288.811       50.332        0.030      338.547       11.270      862.551
01/11/2015  18:47:00     -267.806      -85.747      -17.804       88.969       95.162       50.708     7915.567     9055.777     2571.314        4.946        0.977      281.198       48.596        0.030      338.547       11.271      862.558
01/11/2015  18:48:00     -287.481      -77.056      -18.809      113.003      113.384       56.114    12769.785    12856.034     3148.752        5.885        1.439      297.629       54.266        0.033      338.554       11.281      862.550
01/11/2015  18:49:00     -286.630      -65.993      -27.371       77.042       78.423       44.051     5935.493     6150.217     1940.519        5.064        0.701      294.129       33.352        0.013      338.536       11.251      862.565
01/11/2015  18:50:00     -228.175      -96.290      -27.027       85.887       83.156       43.478     7376.598     6914.930     1890.358        3.912        0.809      247.660       32.978        0.018      338.524       11.232      862.580
01/11/2015  18:51:00     -237.272      -79.030       -7.629       86.423       73.646       44.743     7468.925     5423.797     2001.912        3.875        0.745      250.087       39.053        0.024      338.525       11.232      862.601
01/11/2015  18:52:00     -232.818     -111.132       -2.957       79.521       73.735       40.288     6323.550     5436.844     1623.093        3.997        0.669      257.981       33.238        0.017      338.498       11.188      862.613
01/11/2015  18:53:00     -264.017     -124.042      -13.349      106.801       73.798       53.988    11406.486     5446.072     2914.668        5.251        0.988      291.705       54.763        0.035      338.515       11.215      862.623
01/11/2015  18:54:00     -270.128      -46.855      -22.150       84.230       89.371       50.718     7094.701     7987.233     2572.319        4.665        0.883      274.161       38.186        0.019      338.533       11.244      862.623
01/11/2015  18:55:00     -221.017      -65.070      -13.551       93.003       66.481       54.523     8649.623     4419.695     2972.810        3.465        0.802      230.397       44.917        0.038      338.530       11.241      862.626
01/11/2015  18:56:00     -313.184     -119.616      -17.648      106.828      107.297       53.353    11412.172    11512.642     2846.558        6.923        1.289      335.249       45.093        0.018      338.512       11.209      862.632
01/11/2015  18:57:00     -300.571      -72.217       -8.868       93.424       73.294       45.962     8727.978     5372.075     2112.485        5.592        0.811      309.125       41.854        0.018      338.491       11.173      862.650
01/11/2015  18:58:00     -294.673      -43.764      -15.763      130.550      102.057       53.278    17043.207    10415.613     2838.499        5.964        1.515      297.905       63.282        0.045      338.478       11.153      862.660
01/11/2015  18:59:00     -278.395      -65.046      -13.579      136.483       91.792       55.812    18627.627     8425.818     3114.943        5.604        1.508      285.893       64.961        0.052      338.483       11.162      862.668
01/11/2015  19:00:00     -244.104      -70.033        2.032      134.700       93.919       66.835    18144.011     8820.800     4466.981        4.796        1.572      253.952       57.737        0.052      338.504       11.197      862.666
01/11/2015  19:01:00     -288.865       -6.738      -22.831      104.936       93.022       58.109    11011.640     8653.144     3376.615        5.352        1.152      288.944       50.081        0.030      338.496       11.183      862.693
01/11/2015  19:02:00     -277.959      -71.924       -1.559      123.737       93.023       59.313    15310.809     8653.209     3518.009        5.495        1.374      287.113       59.727        0.043      338.491       11.175      862.702
01/11/2015  19:03:00     -254.563      -32.932       -8.311      102.506       85.013       48.064    10507.424     7227.153     2310.189        4.300        1.002      256.685       46.820        0.033      338.515       11.216      862.715
01/11/2015  19:04:00     -317.345       -9.492      -17.922      113.731      118.088       51.970    12934.698    13944.801     2700.894        6.534        1.479      317.487       56.044        0.031      338.562       11.295      862.725
01/11/2015  19:05:00     -285.294      -44.100      -18.395       98.401      111.641       61.291     9682.772    12463.660     3756.530        5.478        1.295      288.682       58.669        0.041      338.563       11.297      862.736
01/11/2015  19:06:00     -266.236     -109.503      -11.676       82.609       81.652       48.220     6824.258     6666.973     2325.201        4.941        0.791      287.876       37.687        0.017      338.563       11.296      862.735
01/11/2015  19:07:00     -292.736      -45.002      -16.182      117.697       84.035       58.323    13852.656     7061.843     3401.588        5.614        1.216      296.175       67.932        0.053      338.598       11.356      862.743
01/11/2015  19:08:00     -258.938       -4.854      -32.424       91.124       56.003       46.189     8303.596     3136.329     2133.461        4.085        0.679      258.984       49.313        0.036      338.593       11.347      862.742
01/11/2015  19:09:00     -157.063      -81.594      -12.208      137.112       91.548       59.006    18799.704     8380.963     3481.701        3.106        1.533      176.992       69.067        0.152      338.564       11.299      862.735
01/11/2015  19:10:00     -252.132      -50.876      -30.122       71.724       58.607       44.974     5144.307     3434.832     2022.639        3.883        0.530      257.214       25.926        0.010      338.548       11.270      862.750
01/11/2015  19:11:00     -140.246      -59.828       -9.507       97.905       52.799       43.703     9585.298     2787.784     1909.914        1.881        0.714      152.474       25.398        0.028      338.539       11.257      862.752
01/11/2015  19:12:00     -212.943      -45.878      -23.023       59.967       53.796       38.128     3596.072     2893.974     1453.780        2.796        0.397      217.829       32.133        0.022      338.539       11.255      862.754
01/11/2015  19:13:00     -261.854       -7.794      -13.943       76.834       58.650       46.466     5903.435     3439.862     2159.081        4.016        0.575      261.970       35.947        0.019      338.547       11.269      862.763
01/11/2015  19:14:00     -217.324       -1.555      -23.354       66.680       50.233       29.820     4446.195     2523.318      889.239        2.782        0.393      217.330       13.921        0.004      338.526       11.236      862.777
01/11/2015  19:15:00     -262.065       -5.716      -33.270       72.498       77.719       37.001     5255.962     6040.208     1369.099        4.124        0.633      262.127       34.875        0.018      338.531       11.242      862.793
01/11/2015  19:16:00     -156.710      -22.067      -24.730       61.822       61.506       26.826     3821.988     3782.972      719.614        1.699        0.416      158.256       19.768        0.016      338.496       11.188      862.799
01/11/2015  19:17:00     -155.281      -27.134      -21.520       37.887       56.869       23.071     1435.432     3234.059      532.273        1.526        0.260      157.634       20.429        0.017      338.462       11.130      862.809
01/11/2015  19:18:00     -170.175       -6.278      -20.837       50.511       54.555       25.547     2551.313     2976.290      652.649        1.781        0.309      170.291       25.130        0.022      338.445       11.101      862.811
01/11/2015  19:19:00     -235.549      -20.841      -29.142       67.048       63.447       42.015     4495.418     4025.522     1765.226        3.352        0.514      236.470       36.151        0.023      338.438       11.085      862.819
01/11/2015  19:20:00     -113.134       -3.797       -8.761       62.858       49.183       35.118     3951.156     2418.978     1233.292        1.025        0.380      113.198       16.867        0.022      338.474       11.150      862.821
01/11/2015  19:21:00     -136.827        8.959      -18.003       44.406       43.729       28.985     1971.913     1912.220      840.131        1.192        0.236      137.120       27.094        0.039      338.405       11.033      862.841
01/11/2015  19:22:00     -153.147      -21.055      -22.928       61.366       29.712       23.200     3765.756      882.825      538.258        1.480        0.259      154.587       27.661        0.032      338.383       10.996      862.867
01/11/2015  19:23:00      -90.118      -15.536      -19.063       41.262       39.715       17.642     1702.546     1577.317      311.227        0.616        0.180       91.447       15.870        0.030      338.364       10.964      862.874
01/11/2015  19:24:00     -100.699      -12.740      -13.942       51.734       50.605       33.139     2676.404     2560.845     1098.188        0.841        0.317      101.502       21.118        0.043      338.404       11.032      862.879
01/11/2015  19:25:00      -89.977        7.920       -1.042       71.256       65.048       35.901     5077.446     4231.291     1288.886        0.938        0.530       90.325       43.779        0.235      338.418       11.055      862.870
01/11/2015  19:26:00     -147.259       61.693      -20.048       60.292       73.044       36.125     3635.105     5335.470     1305.024        1.808        0.514      159.660       26.151        0.027      338.360       10.958      862.867
01/11/2015  19:27:00      -99.309       23.157      -10.780       50.261       50.106       26.756     2526.121     2510.587      715.904        0.813        0.288      101.973       28.539        0.078      338.429       11.073      862.872
01/11/2015  19:28:00      -72.515      -20.682       -6.755       65.814       45.733       23.733     4331.505     2091.486      563.246        0.636        0.349       75.407        8.982        0.014      338.410       11.041      862.867
01/11/2015  19:29:00      -94.502       -6.673       -7.505       92.117       51.153       26.059     8485.523     2616.628      679.076        1.040        0.589       94.737       32.880        0.120      338.395       11.016      862.866
01/11/2015  19:30:00     -225.157      -33.041      -18.650       36.334       53.345       26.790     1320.194     2845.742      717.680        2.851        0.244      227.569       20.381        0.008      338.397       11.017      862.876
01/11/2015  19:31:00     -169.630      -78.261       -7.293       46.262       54.914       33.510     2140.127     3015.528     1122.920        2.061        0.314      186.813       30.381        0.026      338.371       10.977      862.874
01/11/2015  19:32:00     -120.626      -25.173      -12.024       37.219       52.785       23.893     1385.262     2786.246      570.853        1.003        0.237      123.225       11.598        0.009      338.368       10.973      862.888
01/11/2015  19:33:00      -96.726      -21.771       11.760       52.644       53.373       35.229     2771.404     2848.714     1241.061        0.841        0.343       99.146       33.827        0.116      338.349       10.940      862.900
01/11/2015  19:34:00      -96.000       -7.301       -8.298       42.576       36.780       20.036     1812.736     1352.805      401.452        0.645        0.178       96.277       18.177        0.036      338.385       10.999      862.913
01/11/2015  19:35:00      -69.333       43.590      -14.607       55.978       36.070       27.157     3133.587     1301.072      737.509        0.605        0.259       81.897       24.396        0.089      338.354       10.948      862.923
01/11/2015  19:36:00     -102.113      -12.632      -19.948       48.968       53.536       27.092     2397.828     2866.115      734.003        0.849        0.300      102.891       32.284        0.098      338.355       10.952      862.929
01/11/2015  19:37:00     -123.359      -11.345       -8.795       83.612       70.193       49.004     6990.927     4927.055     2401.404        1.487        0.716      123.879       45.887        0.137      338.351       10.942      862.931
01/11/2015  19:38:00     -133.076      -22.765      -17.956       47.468       64.322       32.834     2253.229     4137.362     1078.093        1.301        0.373      135.009       23.443        0.030      338.335       10.916      862.938
01/11/2015  19:39:00      -79.910       13.218       -3.789       48.277       49.952       28.308     2330.628     2495.190      801.344        0.610        0.281       80.996       21.677        0.072      338.341       10.928      862.942
01/11/2015  19:40:00     -119.090       23.393      -22.303       49.964       45.678       35.319     2496.428     2086.464     1247.457        1.053        0.292      121.366       21.883        0.033      338.350       10.941      862.934
01/11/2015  19:41:00      -62.027       -8.590       -4.090       40.396       35.331       23.995     1631.855     1248.262      575.754        0.370        0.173       62.619       26.375        0.177      338.347       10.937      862.915
01/11/2015  19:42:00      -75.751      -29.282        2.935       73.302       35.871       24.648     5373.177     1286.721      607.518        0.693        0.363       81.214       30.858        0.144      338.339       10.924      862.910
01/11/2015  19:43:00     -150.341       27.575      -19.018       61.222       59.605       33.829     3748.146     3552.814     1144.427        1.608        0.422      152.848       31.845        0.043      338.357       10.952      862.913
01/11/2015  19:44:00      -99.206      -14.598       -6.829       42.755       30.337       32.701     1827.976      920.317     1069.341        0.696        0.191      100.274       30.086        0.090      338.322       10.895      862.910
01/11/2015  19:45:00      -62.093      -14.204        0.809       32.992       31.436       18.690     1088.461      988.234      349.305        0.324        0.121       63.697        6.206        0.009      338.341       10.925      862.902
01/11/2015  19:46:00      -31.238       -2.803        7.637       41.080       30.484       18.677     1687.566      929.264      348.829        0.200        0.148       31.364       23.508        0.562      338.307       10.869      862.902
01/11/2015  19:47:00     -136.699       -2.326      -23.567       53.890       29.902       18.479     2904.165      894.147      341.471        1.169        0.207      136.719       17.748        0.017      338.303       10.864      862.908
01/11/2015  19:48:00     -131.102      -16.806       -9.203       40.647       53.527       36.709     1652.208     2865.188     1347.578        1.171        0.293      132.175       22.459        0.029      338.352       10.945      862.917
01/11/2015  19:49:00     -128.416      -28.883       -9.110       48.796       42.987       26.334     2381.048     1847.874      693.490        1.116        0.246      131.624       23.355        0.031      338.286       10.835      862.921
01/11/2015  19:50:00     -109.532      -37.815       -9.967       32.502       25.352       21.135     1056.361      642.722      446.684        0.784        0.107      115.876       16.987        0.021      338.253       10.778      862.925
01/11/2015  19:51:00     -127.958        3.956       -9.379       33.494       28.550       19.022     1121.826      815.107      361.829        0.939        0.115      128.019       16.503        0.017      338.261       10.791      862.937
01/11/2015  19:52:00     -109.527        3.330      -24.802       32.914       35.458       19.342     1083.335     1257.271      374.096        0.767        0.136      109.578       13.584        0.015      338.257       10.786      862.952
01/11/2015  19:53:00      -98.895       32.020      -20.449       33.082       39.245       25.505     1094.387     1540.139      650.501        0.725        0.164      103.950       16.167        0.024      338.236       10.752      862.963
01/11/2015  19:54:00      -42.237       -6.631        3.065       28.659       25.858       29.260      821.351      668.645      856.134        0.209        0.117       42.755       20.069        0.220      338.232       10.743      862.964
01/11/2015  19:55:00      -55.035       19.239       -9.209       29.326       37.592       20.015      860.005     1413.138      400.587        0.308        0.134       58.301       14.059        0.058      338.229       10.739      862.965
01/11/2015  19:56:00      -90.675        1.672       -9.073       34.045       27.055       21.068     1159.069      731.995      443.850        0.532        0.117       90.690       13.807        0.023      338.210       10.707      862.984
01/11/2015  19:57:00      -51.193       41.758      -17.017       28.411       53.089       24.112      807.193     2818.397      581.410        0.443        0.210       66.064       15.968        0.058      338.305       10.866      862.988
01/11/2015  19:58:00      -67.053      -19.088       -2.621       55.521       43.682       22.394     3082.622     1908.156      501.485        0.518        0.275       69.718       21.814        0.098      338.235       10.749      862.996
01/11/2015  19:59:00      -70.470        5.826      -19.405       46.639       32.649       24.322     2175.229     1065.962      591.581        0.460        0.192       70.711       15.502        0.048      338.182       10.661      862.997
01/11/2015  20:00:00      -71.101       -8.344        0.855       67.242       42.946       31.522     4521.491     1844.357      993.655        0.624        0.368       71.589       31.455        0.193      338.200       10.690      862.998
01/11/2015  20:01:00     -142.052      -13.255        2.214       69.660       63.290       40.420     4852.449     4005.636     1633.763        1.542        0.525      142.669       38.495        0.073      338.189       10.671      863.003
01/11/2015  20:02:00     -197.295      -33.671      -23.357       53.761       52.826       31.804     2890.241     2790.588     1011.504        2.365        0.335      200.148       22.770        0.013      338.198       10.683      863.000
01/11/2015  20:03:00     -193.856      -89.011       -5.738       87.859       57.281       37.405     7719.158     3281.135     1399.161        2.897        0.620      213.314       33.791        0.025      338.296       10.849      863.000
01/11/2015  20:04:00     -224.935      -38.775       -5.124       78.843       61.834       46.331     6216.241     3823.414     2146.582        3.215        0.609      228.253       50.441        0.049      338.278       10.817      862.995
01/11/2015  20:05:00     -127.172      -62.325       -8.328       64.311       66.256       40.495     4135.916     4389.821     1639.822        1.514        0.508      141.624       34.448        0.059      338.340       10.923      862.979
01/11/2015  20:06:00     -157.307      -86.025       -1.013       54.231       47.258       23.798     2940.992     2233.290      566.338        1.894        0.287      179.292       21.724        0.015      338.309       10.872      862.960
01/11/2015  20:07:00     -140.258      -19.729       -1.922       67.894       45.770       30.622     4609.604     2094.868      937.720        1.385        0.382      141.639       31.714        0.050      338.309       10.871      862.946
01/11/2015  20:08:00     -144.987      -71.108       -7.243       64.489       50.471       31.889     4158.886     2547.341     1016.914        1.693        0.386      161.486       31.798        0.039      338.309       10.873      862.941
01/11/2015  20:09:00     -190.836       -5.958        0.214      101.692       62.747       46.838    10341.263     3937.191     2193.764        2.646        0.824      190.929       52.256        0.075      338.334       10.913      862.943
01/11/2015  20:10:00     -183.568      -90.186       -2.348       90.929       83.217       43.157     8268.124     6925.066     1862.552        2.944        0.853      204.526       40.453        0.039      338.333       10.910      862.946
01/11/2015  20:11:00     -303.033      -29.754      -25.036       72.486       75.874       46.410     5254.212     5756.792     2153.874        5.325        0.658      304.490       43.495        0.020      338.340       10.920      862.950
01/11/2015  20:12:00     -251.232     -125.501      -24.179       84.745       71.266       41.685     7181.785     5078.867     1737.627        4.672        0.700      280.834       30.280        0.012      338.347       10.933      862.939
01/11/2015  20:13:00     -292.392      -53.433      -19.749       84.157       81.246       49.482     7082.469     6600.881     2448.487        5.243        0.807      297.234       47.566        0.026      338.345       10.930      862.933
01/11/2015  20:14:00     -274.745      -27.006      -26.807       78.935       64.305       38.743     6230.702     4135.102     1500.998        4.440        0.593      276.069       35.910        0.017      338.329       10.904      862.933
01/11/2015  20:15:00     -192.472      -59.754       -1.799       68.755       52.011       38.968     4727.207     2705.099     1518.495        2.478        0.448      201.535       36.488        0.033      338.322       10.893      862.927
01/11/2015  20:16:00     -235.305      -92.321      -21.097       64.489       58.965       34.554     4158.818     3476.855     1193.987        3.658        0.441      252.768       29.061        0.013      338.309       10.869      862.923
01/11/2015  20:17:00     -250.410      -23.033      -18.084       84.023       73.830       37.818     7059.800     5450.842     1430.188        3.875        0.697      251.468       39.892        0.025      338.296       10.849      862.923
01/11/2015  20:18:00     -222.044      -61.337      -12.039       92.884       70.013       43.176     8627.351     4901.794     1864.188        3.430        0.770      230.360       36.240        0.025      338.308       10.868      862.922
01/11/2015  20:19:00     -265.426      -60.505      -22.185       98.683       88.878       45.464     9738.244     7899.214     2066.994        4.715        0.985      272.235       45.568        0.028      338.329       10.903      862.936
01/11/2015  20:20:00     -337.033      -15.081      -41.747       84.835       85.536       37.409     7197.013     7316.333     1399.412        6.573        0.796      337.370       37.430        0.012      338.343       10.926      862.939
01/11/2015  20:21:00     -235.499      -95.238      -18.604       83.642       84.015       52.265     6995.995     7058.471     2731.602        4.083        0.839      254.027       39.005        0.024      338.326       10.898      862.948
01/11/2015  20:22:00     -296.574      -77.891      -18.826       90.832       95.339       45.238     8250.443     9089.492     2046.451        5.688        0.969      306.632       44.919        0.021      338.353       10.943      862.960
01/11/2015  20:23:00     -250.645      -81.737      -21.979      108.797       84.022       54.345    11836.857     7059.642     2953.422        4.591        1.092      263.635       44.445        0.028      338.362       10.959      862.960
01/11/2015  20:24:00     -245.946      -44.568      -19.148       56.335       66.461       35.315     3173.604     4417.098     1247.131        3.584        0.442      249.951       24.093        0.009      338.323       10.892      862.960
01/11/2015  20:25:00     -259.008      -35.629      -26.024       85.707       68.328       36.311     7345.650     4668.689     1318.459        4.118        0.667      261.447       40.087        0.024      338.313       10.876      862.956
01/11/2015  20:26:00     -188.522      -75.663      -24.942       64.204       66.192       46.807     4122.142     4381.426     2190.887        2.629        0.535      203.139       37.980        0.035      338.310       10.872      862.937
01/11/2015  20:27:00     -211.400      -63.183       -9.124      136.663       89.690       52.114    18676.839     8044.232     2715.849        3.910        1.472      220.640       59.269        0.072      338.348       10.936      862.926
01/11/2015  20:28:00     -272.340      -14.577      -32.617      102.108       73.880       42.244    10426.145     5458.275     1784.568        4.655        0.883      272.730       36.571        0.018      338.361       10.957      862.928
01/11/2015  20:29:00     -207.408      -59.326      -13.974       64.613       50.963       41.514     4174.792     2597.235     1723.385        2.761        0.425      215.726       27.795        0.017      338.327       10.899      862.943
01/11/2015  20:30:00     -210.576      -65.275      -33.981       57.529       57.453       32.631     3309.592     3300.829     1064.779        2.871        0.384      220.461       12.169        0.003      338.312       10.876      862.946
01/11/2015  20:31:00      -98.945      -43.882       -0.414       82.863       55.066       31.766     6866.357     3032.308     1009.070        1.131        0.545      108.239       23.790        0.048      338.306       10.868      862.953
01/11/2015  20:32:00     -206.309      -73.375      -22.658       92.257       65.292       45.967     8511.373     4263.080     2113.007        3.167        0.744      218.969       35.767        0.027      338.279       10.819      862.963
01/11/2015  20:33:00     -138.305      -59.867      -17.322       88.796       65.994       35.589     7884.794     4355.180     1266.607        1.826        0.675      150.706       24.436        0.026      338.276       10.816      862.970
01/11/2015  20:34:00     -127.593      -56.478        4.576       93.196       88.204       38.113     8685.440     7779.903     1452.590        1.870        0.896      139.534       38.288        0.075      338.232       10.741      862.979
01/11/2015  20:35:00     -172.641      -67.094       -3.534       85.848       70.778       39.783     7369.876     5009.568     1582.686        2.414        0.698      185.221       33.704        0.033      338.244       10.761      862.973
01/11/2015  20:36:00     -168.614      -17.172      -13.651       56.091       53.488       41.508     3146.216     2861.013     1722.887        1.832        0.387      169.486       35.963        0.045      338.237       10.750      862.979
01/11/2015  20:37:00     -231.839      -31.460      -17.202       65.995       58.423       49.103     4355.378     3413.209     2411.125        3.261        0.509      233.964       28.232        0.015      338.183       10.656      862.985
01/11/2015  20:38:00     -106.348       13.253      -17.410       81.760       70.382       46.882     6684.769     4953.686     2197.907        1.281        0.692      107.171       35.090        0.107      338.154       10.614      863.001
01/11/2015  20:39:00     -202.402      -43.896      -22.198       68.999       63.592       42.250     4760.838     4043.886     1785.054        2.699        0.529      207.107       35.804        0.030      338.138       10.582      863.018
01/11/2015  20:40:00     -229.377      -73.084       -6.322       83.436       82.015       50.216     6961.543     6726.522     2521.601        3.710        0.810      240.739       45.186        0.035      338.111       10.536      863.033
01/11/2015  20:41:00     -197.358      -92.767       -9.232       94.947       70.712       55.621     9015.027     5000.162     3093.743        3.237        0.855      218.073       42.710        0.038      338.133       10.573      863.036
01/11/2015  20:42:00     -228.458        2.128      -13.763      109.375       75.317       49.244    11962.938     5672.641     2424.971        3.622        1.003      228.468       49.612        0.047      338.178       10.649      863.041
01/11/2015  20:43:00     -289.083      -54.990      -43.879       84.108       67.593       41.272     7074.208     4568.812     1703.394        5.093        0.667      294.267       26.517        0.008      338.253       10.775      863.060
01/11/2015  20:44:00     -225.621      -30.259      -11.703       91.241       73.164       50.269     8324.998     5352.953     2526.961        3.408        0.810      227.641       50.044        0.048      338.200       10.685      863.076
01/11/2015  20:45:00     -242.729     -107.403        0.375      100.666       91.412       59.507    10133.622     8356.089     3541.041        4.624        1.102      265.430       64.032        0.058      338.229       10.735      863.080
01/11/2015  20:46:00     -341.811      -64.807      -35.335       79.979       83.239       51.428     6396.676     6928.709     2644.825        6.912        0.799      347.901       29.830        0.007      338.223       10.724      863.086
01/11/2015  20:47:00     -277.896      -62.419      -39.017       67.039       75.529       44.589     4494.241     5704.579     1988.155        4.741        0.609      284.820       25.014        0.008      338.247       10.765      863.088
01/11/2015  20:48:00     -303.212      -90.652      -23.180      130.569      110.905       64.381    17048.394    12299.994     4144.973        6.709        1.675      316.473       63.233        0.040      338.271       10.806      863.084
01/11/2015  20:49:00     -281.342      -79.405      -11.702      122.834       99.329       68.358    15088.284     9866.299     4672.826        5.761        1.481      292.333       65.043        0.050      338.308       10.868      863.083
01/11/2015  20:50:00     -343.043      -88.054      -29.504      112.247      114.971       50.686    12599.358    13218.404     2569.088        7.734        1.419      354.164       41.309        0.014      338.323       10.894      863.113
01/11/2015  20:51:00     -263.759     -122.782        4.222      109.985      112.582       63.832    12096.736    12674.787     4074.465        5.675        1.442      290.937       64.106        0.049      338.329       10.904      863.135
01/11/2015  20:52:00     -231.384      -81.576       -1.381       98.707      117.986       63.063     9743.004    13920.598     3976.888        4.391        1.382      245.343       51.419        0.044      338.350       10.939      863.153
01/11/2015  20:53:00     -296.262      -92.205      -13.648      107.416       92.506       55.966    11538.299     8557.304     3132.216        5.984        1.161      310.279       50.985        0.027      338.382       10.991      863.160
01/11/2015  20:54:00     -355.128      -53.122      -41.670      104.021       97.335       60.701    10820.451     9474.148     3684.556        7.732        1.199      359.080       55.846        0.024      338.345       10.931      863.162
01/11/2015  20:55:00     -371.781     -105.843      -30.848      137.129       97.848       66.327    18804.429     9574.194     4399.288        9.157        1.639      386.553       66.570        0.030      338.355       10.947      863.152
01/11/2015  20:56:00     -342.461      -84.387      -16.628      141.840      108.934       55.898    20118.599    11866.700     3124.579        7.989        1.755      352.705       63.107        0.032      338.393       11.010      863.136
01/11/2015  20:57:00     -273.471      -64.184      -11.318      112.804       77.364       48.388    12724.838     5985.131     2341.391        5.004        1.053      280.902       48.766        0.030      338.378       10.987      863.131
01/11/2015  20:58:00     -277.266     -110.509      -14.347       89.856       79.004       48.679     8074.181     6241.661     2369.643        5.299        0.834      298.477       37.229        0.016      338.370       10.972      863.114
01/11/2015  20:59:00     -307.678      -18.313      -34.863       81.469       75.014       47.493     6637.213     5627.127     2255.625        5.537        0.726      308.223       45.011        0.021      338.366       10.965      863.101
01/11/2015  21:00:00     -316.967      -78.754      -30.665      131.026       97.525       59.371    17167.878     9511.094     3524.899        6.890        1.510      326.604       65.841        0.041      338.388       11.002      863.098
01/11/2015  21:01:00     -234.793     -101.266      -20.652       58.171       62.538       33.470     3383.893     3910.956     1120.268        3.711        0.421      255.700       23.935        0.009      338.349       10.935      863.103
01/11/2015  21:02:00     -236.339      -40.238      -14.906       91.038       89.804       48.563     8287.943     8064.821     2358.407        3.820        0.936      239.740       45.813        0.037      338.315       10.880      863.113
01/11/2015  21:03:00     -306.068      -46.254      -15.325      138.231      108.474       50.085    19107.829    11766.596     2508.515        6.471        1.669      309.544       53.747        0.030      338.348       10.935      863.110
01/11/2015  21:04:00     -158.991      -57.121       -2.552       84.400       96.669       44.502     7123.300     9344.950     1980.457        2.349        0.922      168.940       41.363        0.060      338.377       10.986      863.110
01/11/2015  21:05:00     -311.287        6.591      -33.104      100.949       90.731       39.625    10190.674     8232.088     1570.125        5.901        1.000      311.357       38.247        0.015      338.335       10.913      863.124
01/11/2015  21:06:00     -207.741      -45.099      -17.146      116.282       87.720       44.621    13521.604     7694.854     1991.055        3.434        1.160      212.580       49.497        0.054      338.336       10.916      863.121
01/11/2015  21:07:00     -241.914      -24.839      -21.261       54.144       77.798       36.223     2931.615     6052.530     1312.097        3.494        0.515      243.186       31.720        0.017      338.324       10.895      863.129
01/11/2015  21:08:00     -167.744      -49.383      -25.336       86.597       68.367       38.564     7499.056     4674.083     1487.183        2.244        0.683      174.862       32.021        0.034      338.297       10.850      863.126
01/11/2015  21:09:00     -247.470      -14.344      -30.045       95.159      111.529       47.296     9055.275    12438.791     2236.921        4.304        1.187      247.886       45.242        0.033      338.274       10.811      863.123
01/11/2015  21:10:00     -239.625      -31.699      -15.308       80.371       69.543       37.476     6459.469     4836.213     1404.420        3.568        0.635      241.712       33.258        0.019      338.311       10.874      863.112
01/11/2015  21:11:00     -294.052       -8.005      -21.865      114.285       82.838       45.704    13060.985     6862.191     2088.901        5.451        1.101      294.161       51.557        0.031      338.325       10.897      863.104
01/11/2015  21:12:00     -252.067      -57.090      -28.552      127.544       84.339       48.671    16267.396     7113.039     2368.912        4.668        1.287      258.451       58.966        0.052      338.328       10.903      863.094
01/11/2015  21:13:00     -232.897      -21.720      -24.073       94.646       53.412       37.843     8957.790     2852.873     1432.080        3.426        0.662      233.907       43.621        0.035      338.288       10.836      863.093
01/11/2015  21:14:00     -199.268      -58.318      -22.975       98.610       59.700       41.550     9723.906     3564.083     1726.421        2.932        0.751      207.627       47.363        0.052      338.286       10.830      863.080
01/11/2015  21:15:00     -186.460      -62.242       -7.428       54.175       64.492       37.960     2934.944     4159.189     1440.974        2.361        0.427      196.574       31.819        0.026      338.254       10.779      863.094
01/11/2015  21:16:00     -202.485      -57.860       -7.314       73.820       56.529       34.640     5449.458     3195.532     1199.953        2.712        0.492      210.590       35.188        0.028      338.224       10.727      863.112
01/11/2015  21:17:00     -176.434      -56.925       -9.552       64.035       59.093       36.458     4100.472     3491.999     1329.153        2.169        0.446      185.390       34.727        0.035      338.192       10.674      863.113
01/11/2015  21:18:00     -186.261       20.785      -20.014       96.739       71.035       42.430     9358.511     5045.926     1800.320        2.586        0.810      187.417       45.732        0.060      338.180       10.653      863.117
01/11/2015  21:19:00     -195.673      -13.360      -19.946      110.079       63.565       47.562    12117.384     4040.556     2262.106        2.864        0.921      196.129       41.383        0.045      338.175       10.645      863.123
01/11/2015  21:20:00     -272.297      -84.648      -17.625       75.256       97.975       39.271     5663.493     9599.004     1542.191        4.921        0.840      285.151       33.347        0.014      338.170       10.634      863.124
01/11/2015  21:21:00     -271.810      -10.170      -21.434       98.411       72.888       49.206     9684.747     5312.683     2421.269        4.593        0.871      272.001       44.957        0.027      338.186       10.661      863.123
01/11/2015  21:22:00     -292.436      -74.713      -15.620       76.047       61.207       48.500     5783.094     3746.303     2352.217        5.161        0.594      301.830       35.147        0.014      338.176       10.645      863.133
01/11/2015  21:23:00     -332.219      -59.221      -28.233       99.059       69.475       49.435     9812.637     4826.773     2443.856        6.588        0.854      337.456       49.263        0.021      338.212       10.706      863.131
01/11/2015  21:24:00     -372.770      -86.508      -20.467       80.436       73.139       47.802     6469.904     5349.318     2284.988        8.048        0.705      382.677       38.779        0.010      338.208       10.700      863.126
01/11/2015  21:25:00     -165.393      -64.084       14.294      134.993       94.237       56.961    18223.144     8880.595     3244.515        3.100        1.517      177.374       67.149        0.143      338.232       10.742      863.119
01/11/2015  21:26:00     -262.467      -54.397       -5.792      136.567      112.602       47.978    18650.630    12679.176     2301.888        5.275        1.682      268.045       59.770        0.050      338.273       10.811      863.117
01/11/2015  21:27:00     -266.091      -15.381      -32.187       90.510       75.459       42.361     8192.024     5693.987     1794.412        4.388        0.784      266.535       39.655        0.022      338.285       10.830      863.116
01/11/2015  21:28:00     -229.943      -35.059      -10.873       63.201      102.660       49.615     3994.378    10539.146     2461.670        3.560        0.850      232.600       48.962        0.044      338.276       10.813      863.117
01/11/2015  21:29:00     -309.712      -20.986      -30.545       83.212       99.089       48.100     6924.313     9818.650     2313.581        5.817        0.953      310.423       42.242        0.019      338.268       10.800      863.125
01/11/2015  21:30:00     -296.316      -18.045      -35.766       99.518       53.253       42.829     9903.765     2835.884     1834.301        5.199        0.729      296.865       40.489        0.019      338.309       10.870      863.126
01/11/2015  21:31:00     -258.195      -77.515      -17.867      124.113       96.399       54.299    15403.986     9292.815     2948.331        5.031        1.382      269.579       56.182        0.043      338.301       10.857      863.134
01/11/2015  21:32:00     -255.198      -84.401       -3.775       99.266       81.542       47.588     9853.822     6649.116     2264.612        4.551        0.938      268.792       44.769        0.028      338.312       10.874      863.133
01/11/2015  21:33:00     -234.975      -62.836       -8.735       84.109       81.758       43.814     7074.349     6684.346     1919.639        3.745        0.784      243.231       44.381        0.033      338.328       10.902      863.142
01/11/2015  21:34:00     -303.616      -90.526      -20.136      101.179       94.335       52.136    10237.235     8899.026     2718.207        6.131        1.093      316.824       48.890        0.024      338.311       10.874      863.145
01/11/2015  21:35:00     -244.870      -77.121       -4.524      123.841      105.991       60.769    15336.555    11234.133     3692.897        4.809        1.513      256.727       70.421        0.075      338.308       10.869      863.145
01/11/2015  21:36:00     -324.221     -102.401      -12.531      117.184       95.638       48.917    13732.062     9146.575     2392.849        7.051        1.264      340.008       52.863        0.024      338.366       10.966      863.147
01/11/2015  21:37:00     -209.013      -60.624      -12.240       72.197       78.494       48.474     5212.370     6161.341     2349.722        3.061        0.686      217.627       33.070        0.023      338.313       10.877      863.149
01/11/2015  21:38:00     -232.654      -81.694      -21.148      103.521       69.637       51.271    10716.500     4849.344     2628.752        3.972        0.910      246.580       55.881        0.051      338.260       10.788      863.147
01/11/2015  21:39:00     -299.439       15.644      -21.555       81.817       53.671       45.016     6693.945     2880.613     2026.457        5.098        0.580      299.847       38.229        0.016      338.240       10.752      863.145
01/11/2015  21:40:00     -336.295      -28.212      -28.399       95.730       82.047       50.703     9164.288     6731.637     2570.835        6.658        0.923      337.476       47.838        0.020      338.255       10.780      863.142
01/11/2015  21:41:00     -284.436        4.187      -15.944      105.191      111.863       57.995    11065.235    12513.398     3363.430        5.405        1.347      284.467       60.164        0.045      338.299       10.854      863.139
01/11/2015  21:42:00     -273.462      -87.061      -20.487      131.892      103.159       53.613    17395.441    10641.726     2874.312        5.684        1.546      286.987       61.837        0.046      338.311       10.876      863.140
01/11/2015  21:43:00     -191.432     -105.028        2.533      122.783       71.380       56.243    15075.640     5095.054     3163.251        3.550        1.167      218.351       60.251        0.076      338.290       10.839      863.152
01/11/2015  21:44:00     -269.954       21.542      -17.064       79.153       78.993       41.137     6265.242     6239.913     1692.214        4.391        0.710      270.812       43.802        0.026      338.290       10.838      863.163
01/11/2015  21:45:00     -249.939      -58.208      -20.777       66.804       56.530       34.619     4462.754     3195.629     1198.480        3.757        0.443      256.628       28.425        0.012      338.292       10.841      863.176
01/11/2015  21:46:00     -232.437      -80.425      -25.096       42.655       57.163       39.690     1819.425     3267.570     1575.257        3.389        0.333      245.957       24.425        0.010      338.266       10.797      863.188
01/11/2015  21:47:00     -238.472      -35.055      -22.651       74.731       63.366       40.901     5584.769     4015.274     1672.900        3.494        0.564      241.035       36.488        0.023      338.200       10.686      863.215
01/11/2015  21:48:00     -244.587      -45.057      -17.331       65.093       48.232       38.774     4237.055     2326.308     1503.410        3.511        0.403      248.703       31.546        0.016      338.186       10.663      863.229
01/11/2015  21:49:00     -175.396      -85.862      -14.641       62.329       44.547       40.314     3884.934     1984.422     1625.242        2.292        0.375      195.285       28.450        0.021      338.187       10.666      863.228
01/11/2015  21:50:00     -123.475      -58.110        6.731       72.787       53.999       36.533     5297.915     2915.943     1334.677        1.411        0.477      136.466       33.922        0.062      338.184       10.662      863.224
01/11/2015  21:51:00     -232.856      -53.248       -4.544      124.182       84.432       44.804    15421.112     7128.792     2007.417        4.081        1.228      238.866       58.464        0.060      338.196       10.681      863.219
01/11/2015  21:52:00     -200.234      -26.565       -8.348       67.210       77.764       41.951     4517.130     6047.216     1759.901        2.659        0.616      201.988       32.674        0.026      338.210       10.704      863.219
01/11/2015  21:53:00     -165.064      -51.320       -7.274       97.795       57.801       43.663     9563.767     3340.971     1906.434        2.237        0.741      172.858       30.219        0.031      338.196       10.680      863.212
01/11/2015  21:54:00     -171.525      -49.506        2.132       95.957       81.429       40.586     9207.774     6630.615     1647.251        2.468        0.874      178.526       45.142        0.064      338.212       10.707      863.221
01/11/2015  21:55:00     -200.616      -76.186      -18.049       69.128       47.979       30.664     4778.710     2301.971      940.311        2.720        0.401      214.596       25.889        0.015      338.223       10.725      863.218
01/11/2015  21:56:00     -132.651      -47.654       13.935      109.458       62.329       38.356    11981.065     3884.947     1471.206        1.870        0.867      140.950       52.099        0.137      338.214       10.711      863.228
01/11/2015  21:57:00     -167.808      -70.153       -6.848       64.623       46.788       32.991     4176.179     2189.113     1088.388        2.029        0.373      181.882       23.426        0.017      338.207       10.699      863.245
01/11/2015  21:58:00     -117.039      -73.482       10.096       77.343       71.413       37.436     5981.909     5099.749     1401.437        1.584        0.624      138.195       38.262        0.077      338.218       10.718      863.257
01/11/2015  21:59:00     -129.996      -74.115      -10.566       62.121       42.570       25.714     3859.030     1812.173      661.225        1.442        0.317      149.640       23.092        0.024      338.180       10.654      863.261
01/11/2015  22:00:00      -88.206      -63.962       -2.354       58.517       51.980       29.411     3424.242     2701.892      864.980        0.943        0.350      108.956       28.093        0.066      338.175       10.646      863.266
01/11/2015  22:01:00     -119.013      -85.006        1.175       39.737       30.720       22.800     1579.023      943.691      519.826        1.222        0.152      146.254       23.802        0.026      338.183       10.662      863.272
01/11/2015  22:02:00      -81.470      -63.462       -0.281       44.496       34.792       25.925     1979.864     1210.461      672.126        0.726        0.193      103.271       16.162        0.024      338.198       10.687      863.275
01/11/2015  22:03:00      -89.905      -67.841        7.249       60.810       39.139       25.326     3697.893     1531.844      641.387        0.930        0.294      112.629       28.051        0.062      338.200       10.689      863.271
01/11/2015  22:04:00      -67.749      -69.725       -6.501       43.351       30.291       18.710     1879.280      917.571      350.081        0.632        0.157       97.219       10.968        0.013      338.233       10.744      863.276
01/11/2015  22:05:00      -68.149      -95.123        3.974       48.563       32.958       26.119     2358.323     1086.219      682.212        0.892        0.206      117.015       23.640        0.041      338.236       10.749      863.295
01/11/2015  22:06:00      -65.306     -142.634        1.802       35.936       50.779       32.604     1291.362     2578.536     1063.000        1.477        0.247      156.873       28.121        0.032      338.281       10.825      863.314
01/11/2015  22:07:00      -85.806      -65.572        4.044       41.006       34.181       27.192     1681.502     1168.351      739.423        0.763        0.179      107.993       21.821        0.041      338.263       10.797      863.333
01/11/2015  22:08:00      -35.593      -19.958       11.685       49.379       33.538       24.974     2438.278     1124.818      623.695        0.299        0.209       40.806       26.750        0.430      338.262       10.793      863.343
01/11/2015  22:09:00      -83.642      -34.782        1.757       43.581       32.477       21.099     1899.260     1054.735      445.179        0.580        0.170       90.586       21.332        0.055      338.233       10.744      863.340
01/11/2015  22:10:00      -16.326        0.185        5.601       16.871       20.331       17.205      284.631      413.364      295.996        0.065        0.050       16.327       15.288        0.877      338.216       10.718      863.329
01/11/2015  22:11:00      -25.535        6.481       14.469       29.263       17.467       20.982      856.339      305.108      440.245        0.125        0.080       26.345        9.254        0.123      338.191       10.673      863.320
01/11/2015  22:12:00       31.768       -6.660       42.374       44.786       66.833       43.275     2005.788     4466.623     1872.704        0.560        0.417       32.459       49.363        2.313      338.180       10.656      863.309
01/11/2015  22:13:00      -29.000     -136.769        1.552       45.395       59.150       30.597     2060.731     3498.738      936.200        1.302        0.325      139.809       16.120        0.013      338.312       10.877      863.318
01/11/2015  22:14:00      -52.045      -86.166       -4.349       79.985       55.017       38.733     6397.586     3026.850     1500.263        1.054        0.546      100.664       26.496        0.069      338.329       10.907      863.335
01/11/2015  22:15:00       22.506      -67.925       12.958       51.274       44.519       31.832     2629.056     1981.943     1013.285        0.546        0.281       71.557       31.228        0.190      338.476       11.155      863.350
01/11/2015  22:16:00       32.448      -51.716       20.538       62.365       40.980       34.618     3889.377     1679.380     1198.439        0.546        0.338       61.053       29.352        0.231      338.527       11.239      863.367
01/11/2015  22:17:00       18.247       44.792       60.679       26.603       32.035       18.920      707.704     1026.265      357.970        0.406        0.105       48.366       14.724        0.093      338.460       11.127      863.386
01/11/2015  22:18:00       19.729       34.302       44.495       27.061       21.767       20.535      732.303      473.805      421.666        0.259        0.081       39.571        9.461        0.057      338.430       11.076      863.398
01/11/2015  22:19:00       -4.564       36.119       56.103       22.461       26.693       18.789      504.511      712.500      353.020        0.302        0.079       36.406       16.216        0.198      338.377       10.988      863.411
01/11/2015  22:20:00        0.960       -8.022       17.251       20.549       26.974       26.224      422.252      727.579      687.714        0.110        0.092        8.080       19.893        6.062      338.371       10.978      863.422
01/11/2015  22:21:00       13.366      -63.067      -13.988       28.969       30.619       14.823      839.185      937.512      219.722        0.317        0.100       64.468       14.125        0.048      338.414       11.049      863.432
01/11/2015  22:22:00      -26.953       -4.225      -10.333       19.056       36.364       15.401      363.132     1322.370      237.193        0.139        0.096       27.282       16.471        0.364      338.346       10.934      863.448
01/11/2015  22:23:00      -12.251       53.590        2.833       32.973       23.790       17.732     1087.233      565.963      314.424        0.250        0.098       54.973       18.783        0.117      338.292       10.847      863.468
01/11/2015  22:24:00       16.220       22.776        7.220       10.865       13.092       10.838      118.052      171.407      117.470        0.062        0.020       27.961        6.308        0.051      338.294       10.848      863.487
01/11/2015  22:25:00        3.048       -1.736       20.117       12.386       16.609       11.530      153.425      275.850      132.933        0.049        0.028        3.508        9.649        7.567      338.325       10.900      863.505
01/11/2015  22:26:00        4.731        6.868       16.218       23.781       13.764       10.800      565.527      189.447      116.645        0.060        0.044        8.340       13.113        2.472      338.285       10.833      863.519
01/11/2015  22:27:00      -25.974       13.937        4.548        5.199        6.285        6.978       27.034       39.500       48.699        0.050        0.006       29.477        4.009        0.019      338.284       10.832      863.531
01/11/2015  22:28:00      -36.178        4.869        2.041       24.681       11.680       13.340      609.134      136.414      177.944        0.113        0.046       36.505       10.566        0.084      338.333       10.915      863.533
01/11/2015  22:29:00       -0.217       -1.603        1.556        4.491        7.611        8.718       20.171       57.926       76.007        0.008        0.008        1.618        3.938        5.924      338.291       10.843      863.535
01/11/2015  22:30:00       42.438       37.653       13.198       48.704       27.360       20.527     2372.099      748.597      421.367        0.347        0.177       56.734       13.056        0.053      338.228       10.738      863.539
01/11/2015  22:31:00       80.020       98.234       77.952       94.703       46.541       50.020     8968.615     2166.094     2501.988        1.788        0.682      126.701       58.673        0.214      338.044       10.428      863.537
01/11/2015  22:32:00      173.990      102.275       19.923       46.658       34.024       34.072     2176.964     1157.658     1160.917        2.281        0.225      201.823       22.743        0.013      337.823       10.056      863.540
01/11/2015  22:33:00       97.146       62.582       47.309       67.952       39.533       35.560     4617.515     1562.832     1264.502        1.152        0.372      115.559       29.463        0.065      337.791       10.003      863.542
01/11/2015  22:34:00      147.497       64.085       11.393       34.946       34.229       28.144     1221.236     1171.597      792.066        1.459        0.159      160.818       17.724        0.012      337.703        9.855      863.540
01/11/2015  22:35:00       47.265       54.487       48.863       33.406       32.944       32.043     1115.967     1085.284     1026.780        0.541        0.161       72.131       23.006        0.102      337.704        9.858      863.526
01/11/2015  22:36:00       89.086       77.505       50.824       49.722       33.210       39.574     2472.276     1102.914     1566.124        1.083        0.257      118.082       33.632        0.081      337.699        9.850      863.510
01/11/2015  22:37:00       53.712       69.956       66.104       38.680       29.645       31.015     1496.165      878.815      961.961        0.774        0.167       88.198       24.752        0.079      337.759        9.950      863.502
01/11/2015  22:38:00       30.205       74.372       71.589       47.007       28.708       27.058     2209.674      824.161      732.116        0.767        0.188       80.272       26.862        0.112      337.760        9.952      863.489
01/11/2015  22:39:00       57.701       54.246       62.738       36.848       35.824       35.727     1357.794     1283.389     1276.395        0.706        0.196       79.196       21.746        0.075      337.651        9.770      863.485
01/11/2015  22:40:00       67.611       38.153       53.083       41.453       41.424       38.267     1718.315     1715.926     1464.335        0.687        0.245       77.633       34.745        0.200      337.654        9.774      863.475
01/11/2015  22:41:00       74.055       55.676       33.474       33.413       20.383       23.818     1116.413      415.474      567.309        0.590        0.105       92.649       16.932        0.033      337.650        9.768      863.476
01/11/2015  22:42:00       72.315       56.990       43.414       44.628       24.300       31.991     1991.644      590.500     1023.437        0.698        0.180       92.072       28.613        0.097      337.650        9.768      863.476
01/11/2015  22:43:00       63.339       81.127       61.362       34.417       27.522       31.204     1184.560      757.469      973.665        0.864        0.146      102.924       26.000        0.064      337.666        9.794      863.466
01/11/2015  22:44:00       29.229       66.697       69.532       32.572       26.663       21.925     1060.909      710.920      480.722        0.619        0.113       72.821       18.074        0.062      337.665        9.794      863.454
01/11/2015  22:45:00       20.522       46.699       53.623       30.556       30.514       22.193      933.677      931.079      492.524        0.392        0.118       51.009       17.496        0.118      337.654        9.773      863.430
01/11/2015  22:46:00       43.442       46.789       52.313       37.909       36.727       33.172     1437.061     1348.860     1100.398        0.535        0.194       63.847       31.957        0.251      337.682        9.821      863.425
01/11/2015  22:47:00       43.078       19.516       42.454       47.994       33.652       24.784     2303.456     1132.461      614.223        0.404        0.203       47.292       26.309        0.309      337.699        9.851      863.423
01/11/2015  22:48:00       23.693       54.999       56.350       40.148       33.596       22.911     1611.848     1128.695      524.900        0.501        0.163       59.885       14.074        0.055      337.711        9.870      863.418
01/11/2015  22:49:00       -0.134       27.873       51.000       16.112       25.822       15.904      259.583      666.765      252.952        0.228        0.059       27.873       11.817        0.180      337.741        9.921      863.424
01/11/2015  22:50:00       19.324       -1.201       23.040       24.570       22.674       17.960      603.701      514.115      322.544        0.117        0.072       19.361       20.173        1.086      337.770        9.968      863.437
01/11/2015  22:51:00       39.198       19.184       14.431       23.845       13.064       14.895      568.575      170.678      221.858        0.154        0.048       43.641       13.966        0.102      337.747        9.929      863.435
01/11/2015  22:52:00       80.982       54.043       15.422       22.799       19.447       17.450      519.791      378.176      304.492        0.546        0.060       97.358        6.433        0.004      337.708        9.863      863.418
01/11/2015  22:53:00       59.976       77.909       47.027       30.930       28.238       26.967      956.638      797.394      727.216        0.718        0.124       98.321       17.280        0.031      337.717        9.882      863.387
01/11/2015  22:54:00       -5.107       39.547       61.992       19.952       48.697       31.705      398.079     2371.382     1005.192        0.460        0.189       39.876       34.261        0.738      337.767        9.964      863.391
01/11/2015  22:55:00       -6.416      -25.443        6.393       14.504       15.995       12.758      210.371      255.841      162.779        0.068        0.031       26.239        8.097        0.095      337.794       10.008      863.427
01/11/2015  22:56:00      -22.401        5.193        7.333       14.365       13.701       14.537      206.356      187.707      211.328        0.059        0.030       22.995       10.315        0.201      337.803       10.023      863.447
01/11/2015  22:57:00      -22.147        0.935       24.721       16.515       10.164       10.642      272.737      103.306      113.244        0.080        0.024       22.167        8.887        0.161      337.767        9.964      863.456
01/11/2015  22:58:00      -21.011       -7.857       12.143       16.942       25.532       14.739      287.042      651.891      217.245        0.090        0.058       22.432       13.469        0.361      337.842       10.089      863.461
01/11/2015  22:59:00       15.295       16.819       23.781       20.724       16.220       11.889      429.478      263.078      141.337        0.096        0.042       22.734       10.817        0.226      337.791       10.006      863.460
01/11/2015  23:00:00       32.467       31.201        3.935       11.865       15.708       10.953      140.773      246.728      119.968        0.128        0.025       45.029        6.110        0.018      337.695        9.840      863.438
01/11/2015  23:01:00       54.924       34.044       18.516       31.821       26.498       26.257     1012.569      702.161      689.412        0.346        0.120       64.619       21.959        0.115      337.714        9.875      863.411
01/11/2015  23:02:00       -4.830       72.205       87.016       13.438       31.040       16.543      180.576      963.500      273.675        0.711        0.071       72.366       17.699        0.060      337.657        9.779      863.384
01/11/2015  23:03:00       28.065       92.444       90.626       27.114       34.270       21.648      735.162     1174.419      468.634        0.996        0.119       96.610       18.264        0.036      337.655        9.775      863.356
01/11/2015  23:04:00       52.200       63.852       69.343       50.539       40.283       29.419     2554.166     1622.754      865.494        0.833        0.252       82.474       21.231        0.066      337.655        9.775      863.323
01/11/2015  23:05:00       40.113       89.312       72.053       43.410       26.360       26.958     1884.436      694.833      726.711        0.904        0.165       97.906       25.943        0.070      337.618        9.715      863.305
01/11/2015  23:06:00       -0.136       41.764       52.651       18.651       25.544       15.511      347.848      652.485      240.604        0.288        0.062       41.764       12.302        0.087      337.650        9.765      863.304
01/11/2015  23:07:00      -17.741        3.176       18.757       15.265       15.317       13.174      233.009      234.600      173.554        0.066        0.032       18.023       11.761        0.426      337.644        9.757      863.317
01/11/2015  23:08:00        5.784       30.721       30.758       19.240       13.848       12.113      370.189      191.767      146.723        0.132        0.035       31.260       10.587        0.115      337.602        9.689      863.323
01/11/2015  23:09:00        3.863       22.259       -4.184       35.717       27.376       13.086     1275.740      749.433      171.237        0.136        0.110       22.591        8.457        0.140      337.554        9.607      863.327
01/11/2015  23:10:00       -4.035       59.636       -7.471       12.375       16.140       12.822      153.150      260.514      164.411        0.210        0.029       59.773        4.938        0.007      337.566        9.625      863.330
01/11/2015  23:11:00        8.141       41.715        9.794       17.190       25.682       17.711      295.502      659.588      313.675        0.159        0.063       42.502       15.047        0.125      337.578        9.647      863.318
01/11/2015  23:12:00      -13.440       42.711       -4.329       14.991       22.656       16.752      224.723      513.312      280.626        0.152        0.051       44.775       16.774        0.140      337.521        9.552      863.312
01/11/2015  23:13:00       15.339       57.358       -7.689       16.510       35.892       14.059      272.587     1288.223      197.657        0.267        0.088       59.373       16.765        0.080      337.528        9.563      863.308
01/11/2015  23:14:00       28.273       12.139       -4.954       44.203       25.909       15.792     1953.867      671.262      249.386        0.192        0.144       30.769       18.905        0.378      337.556        9.608      863.310
01/11/2015  23:15:00      -41.157        2.605       11.010       32.931       27.204       25.480     1084.447      740.039      649.253        0.215        0.124       41.239       20.117        0.238      337.622        9.720      863.300
01/11/2015  23:16:00       -0.037       24.161       12.849       38.698       42.017       26.504     1497.527     1765.453      702.448        0.236        0.198       24.161       22.655        0.879      337.637        9.745      863.290
01/11/2015  23:17:00       -9.411      -40.998       -3.244       34.740       32.413       21.940     1206.894     1050.592      481.344        0.226        0.137       42.064       13.577        0.104      337.674        9.807      863.301
01/11/2015  23:18:00      -26.494      -55.484        4.119       38.048       31.123       20.972     1447.680      968.640      439.821        0.333        0.143       61.485       19.336        0.099      337.698        9.847      863.316
01/11/2015  23:19:00       -6.333      -62.909       -3.605       31.443       33.693       33.523      988.665     1135.227     1123.806        0.363        0.162       63.227       25.769        0.166      337.649        9.766      863.306
01/11/2015  23:20:00      -38.657      -44.608       -4.746       20.509       36.340       18.861      420.620     1320.609      355.720        0.280        0.105       59.027       18.046        0.093      337.666        9.796      863.298
01/11/2015  23:21:00      -23.271      -27.967       12.278       30.404       21.927       12.815      924.421      480.810      164.235        0.152        0.078       36.383       13.390        0.135      337.816       10.045      863.291
01/11/2015  23:22:00      -47.407      -75.244       -4.886       55.967       39.581       23.975     3132.314     1566.660      574.789        0.660        0.264       88.933       26.203        0.087      337.820       10.051      863.279
01/11/2015  23:23:00      -54.437      -51.181        0.418       33.680       58.680       19.202     1134.376     3443.293      368.720        0.526        0.247       74.719       17.131        0.053      337.853       10.108      863.266
01/11/2015  23:24:00        2.924      -33.757        5.873       32.634       21.620       17.142     1064.946      467.416      293.865        0.150        0.091       33.884       13.373        0.156      337.776        9.979      863.267
01/11/2015  23:25:00      -14.460      -82.238       -0.357       31.949       34.705       22.829     1020.721     1204.470      521.183        0.486        0.137       83.500       15.816        0.036      337.905       10.194      863.273
01/11/2015  23:26:00      -40.658      -27.093       -1.558       21.251       28.624       20.619      451.618      819.357      425.128        0.204        0.085       48.857       14.484        0.088      337.864       10.125      863.267
01/11/2015  23:27:00      -43.335      -24.335       -1.857       24.219       20.109        8.712      586.551      404.376       75.907        0.177        0.053       49.700        8.355        0.028      337.811       10.037      863.264
01/11/2015  23:28:00      -39.993      -49.499        2.594       31.542       37.959       16.817      994.902     1440.856      282.812        0.339        0.136       63.636       16.968        0.071      337.759        9.949      863.273
01/11/2015  23:29:00      -56.949      -93.550       -4.456       42.446       49.394       19.888     1801.694     2439.799      395.521        0.832        0.232      109.521       17.839        0.027      337.792       10.005      863.280
01/11/2015  23:30:00      -70.128      -69.531       -5.232       57.490       56.513       27.862     3305.100     3193.775      776.275        0.853        0.364       98.755       20.922        0.045      337.794       10.008      863.286
01/11/2015  23:31:00      -64.172      -70.124       -2.150       40.263       31.152       23.868     1621.110      970.443      569.659        0.610        0.158       95.055       25.168        0.070      337.784        9.992      863.299
01/11/2015  23:32:00      -22.232      -20.356       10.691       35.347       34.906       23.012     1249.434     1218.432      529.575        0.201        0.150       30.144       20.184        0.448      337.790       10.002      863.304
01/11/2015  23:33:00      -61.886       -4.405       14.624       49.426       36.427       24.678     2442.955     1326.894      609.019        0.422        0.219       62.042       31.820        0.263      337.737        9.915      863.317
01/11/2015  23:34:00      -31.142      -54.946        4.395       41.348       40.067       21.280     1709.687     1605.396      452.822        0.389        0.188       63.158       14.962        0.056      337.771        9.969      863.330
01/11/2015  23:35:00      -81.929      -84.363       -0.899       47.666       38.722       22.614     2272.030     1499.383      511.380        0.906        0.214      117.599       23.806        0.041      337.789        9.999      863.337
01/11/2015  23:36:00      -99.814      -94.866        0.355       39.666       45.102       28.641     1573.408     2034.179      820.282        1.169        0.221      137.704       25.678        0.035      337.728        9.899      863.354
01/11/2015  23:37:00      -53.092     -100.583       -3.278       47.813       27.665       18.227     2286.105      765.349      332.227        0.816        0.169      113.735       14.949        0.017      337.731        9.906      863.386
01/11/2015  23:38:00     -121.435      -58.465      -10.983       54.811       46.561       21.961     3004.269     2167.895      482.299        1.197        0.283      134.776       19.593        0.021      337.743        9.923      863.400
01/11/2015  23:39:00      -41.905      -69.317        2.120       40.512       36.117       22.868     1641.206     1304.422      522.963        0.502        0.173       80.999       22.908        0.080      337.756        9.945      863.416
01/11/2015  23:40:00     -113.233      -15.926       -1.078       67.072       37.006       28.331     4498.615     1369.474      802.627        0.987        0.334      114.348       31.740        0.077      337.735        9.909      863.430
01/11/2015  23:41:00     -135.824      -18.580       -3.024       79.137       49.237       30.047     6262.735     2424.262      902.813        1.419        0.479      137.089       36.440        0.071      337.747        9.928      863.436
01/11/2015  23:42:00      -54.985      -26.233        9.339       49.463       33.437       26.842     2446.607     1118.050      720.505        0.404        0.214       60.922       26.864        0.194      337.737        9.913      863.438
01/11/2015  23:43:00     -125.827        8.559       -1.373      104.216       46.542       41.994    10860.884     2166.156     1763.473        1.535        0.740      126.118       54.995        0.190      337.764        9.958      863.439
01/11/2015  23:44:00      -94.949      -34.212        7.488       60.149       44.141       29.572     3617.888     1948.402      874.475        0.834        0.322      100.925       33.252        0.109      337.724        9.892      863.436
01/11/2015  23:45:00      -48.708        2.324        1.237       32.181       21.504       19.432     1035.632      462.415      377.618        0.213        0.094       48.764       19.126        0.154      337.692        9.838      863.438
01/11/2015  23:46:00      -70.972       22.979       -9.621       35.854       20.189       17.174     1285.489      407.577      294.955        0.382        0.099       74.599       18.628        0.062      337.613        9.707      863.439
01/11/2015  23:47:00      -86.843      -25.814       -4.098       37.959       34.777       22.891     1440.923     1209.418      523.977        0.570        0.159       90.598       22.444        0.061      337.668        9.796      863.436
01/11/2015  23:48:00     -133.299       -5.633      -10.517       59.796       55.778       40.151     3575.504     3111.200     1612.142        1.310        0.415      133.418       34.653        0.067      337.744        9.926      863.438
01/11/2015  23:49:00     -200.456      -47.764      -14.638       66.301       89.880       36.679     4395.797     8078.384     1345.328        2.825        0.691      206.068       30.644        0.022      337.735        9.909      863.452
01/11/2015  23:50:00     -107.955      -24.768       -3.284       38.278       35.347       24.772     1465.183     1249.411      613.630        0.780        0.166      110.760       23.947        0.047      337.715        9.878      863.470
01/11/2015  23:51:00     -103.264      -44.300        3.625       66.792       52.472       31.704     4461.176     2753.303     1005.162        1.043        0.411      112.365       32.313        0.083      337.706        9.861      863.484
01/11/2015  23:52:00     -118.604      -37.093       -2.681       86.096       33.916       28.669     7412.585     1150.291      821.888        1.242        0.469      124.269       33.655        0.073      337.744        9.924      863.496
01/11/2015  23:53:00      -64.479       -7.761        6.063       65.135       35.377       24.299     4242.549     1251.519      590.424        0.517        0.304       64.945       28.303        0.190      337.746        9.927      863.479
01/11/2015  23:54:00     -103.834      -69.890        1.242       68.159       52.250       23.707     4645.630     2730.050      562.009        1.180        0.397      125.164       28.265        0.051      337.773        9.973      863.469
01/11/2015  23:55:00     -147.890      -41.876        1.436       50.197       53.618       28.545     2519.767     2874.848      814.802        1.492        0.310      153.705       28.828        0.035      337.829       10.065      863.461
01/11/2015  23:56:00     -145.898        0.546       -5.253       66.215       68.772       24.115     4384.429     4729.657      581.533        1.550        0.485      145.899       27.289        0.035      337.831       10.070      863.459
01/11/2015  23:57:00     -236.917        8.963      -18.787       76.788       94.966       40.239     5896.360     9018.550     1619.160        3.655        0.827      237.087       25.717        0.012      337.867       10.128      863.444
01/11/2015  23:58:00     -200.981      -66.955      -11.252       94.957       67.789       43.287     9016.858     4595.281     1873.726        3.024        0.774      211.840       41.338        0.038      337.867       10.129      863.419
01/11/2015  23:59:00     -284.384      -63.469      -17.397      118.635       59.123       45.453    14074.300     3495.477     2065.945        5.242        0.982      291.381       45.786        0.025      337.953       10.271      863.400
